<?xml version="1.0" encoding="UTF-8" standalone="no" ?>
<gpx xmlns="http://www.topografix.com/GPX/1/1" xmlns:xsi="http://www.w3.org/2001/XMLSchema-instance" xsi:schemaLocation="http://www.topografix.com/GPX/1/1 http://www.topografix.com/GPX/1/1/gpx.xsd" version="1.1" creator="VisuGPX - https://www.visugpx.com">
  <metadata>
    <name>Chabaud Latour, Amaury</name>
    <desc><![CDATA[Test de la nouvelle selle Royal Ellipse Gel Moderate.
Essai concluant, 30 bornes et mal de fesses relativement réduit.

Passage par le lac de Chabaud Latour et L'étang d'Amaury.
(Ouverture de la chasse demain, ça grouille de trouduc...)
]]></desc>
  </metadata>
  <trk>
    <name><![CDATA[Chabaud Latour, Amaury]]></name>
    <extensions>
      <line xmlns="http://www.topografix.com/GPX/gpx_style/0/2">
        <color>0000FF</color>
        <width>4</width>
      </line>
    </extensions>
    <trkseg>
      <trkpt lat="50.44994" lon="3.52655">
        <ele>29.6</ele>
        <time>2021-09-11T13:21:41.256Z</time>
      </trkpt>
      <trkpt lat="50.44997" lon="3.52658">
        <ele>29.7</ele>
        <time>2021-09-11T13:21:43.019Z</time>
      </trkpt>
      <trkpt lat="50.45" lon="3.52663">
        <ele>29.9</ele>
        <time>2021-09-11T13:21:45.759Z</time>
      </trkpt>
      <trkpt lat="50.45004" lon="3.52666">
        <ele>30</ele>
        <time>2021-09-11T13:21:47.816Z</time>
      </trkpt>
      <trkpt lat="50.45009" lon="3.52672">
        <ele>30.2</ele>
        <time>2021-09-11T13:21:51.084Z</time>
      </trkpt>
      <trkpt lat="50.45012" lon="3.52676">
        <ele>30.3</ele>
        <time>2021-09-11T13:21:52.972Z</time>
      </trkpt>
      <trkpt lat="50.45016" lon="3.52681">
        <ele>30.5</ele>
        <time>2021-09-11T13:21:55.905Z</time>
      </trkpt>
      <trkpt lat="50.4502" lon="3.52687">
        <ele>30.7</ele>
        <time>2021-09-11T13:21:58.950Z</time>
      </trkpt>
      <trkpt lat="50.45024" lon="3.52692">
        <ele>30.9</ele>
        <time>2021-09-11T13:22:01.884Z</time>
      </trkpt>
      <trkpt lat="50.45031" lon="3.52705">
        <ele>30.9</ele>
        <time>2021-09-11T13:22:05.875Z</time>
      </trkpt>
      <trkpt lat="50.45034" lon="3.5271">
        <ele>30.8</ele>
        <time>2021-09-11T13:22:06.656Z</time>
      </trkpt>
      <trkpt lat="50.45038" lon="3.52715">
        <ele>30.6</ele>
        <time>2021-09-11T13:22:07.428Z</time>
      </trkpt>
      <trkpt lat="50.45041" lon="3.5272">
        <ele>30.5</ele>
        <time>2021-09-11T13:22:08.209Z</time>
      </trkpt>
      <trkpt lat="50.45049" lon="3.5273">
        <ele>30.2</ele>
        <time>2021-09-11T13:22:09.911Z</time>
      </trkpt>
      <trkpt lat="50.45057" lon="3.52741">
        <ele>30</ele>
        <time>2021-09-11T13:22:11.903Z</time>
      </trkpt>
      <trkpt lat="50.45065" lon="3.52752">
        <ele>30</ele>
        <time>2021-09-11T13:22:15.817Z</time>
      </trkpt>
      <trkpt lat="50.45073" lon="3.52764">
        <ele>30</ele>
        <time>2021-09-11T13:22:19.890Z</time>
      </trkpt>
      <trkpt lat="50.45078" lon="3.5277">
        <ele>30</ele>
        <time>2021-09-11T13:22:22.207Z</time>
      </trkpt>
      <trkpt lat="50.45087" lon="3.52781">
        <ele>29.8</ele>
        <time>2021-09-11T13:22:24.375Z</time>
      </trkpt>
      <trkpt lat="50.45091" lon="3.52788">
        <ele>29.5</ele>
        <time>2021-09-11T13:22:25.193Z</time>
      </trkpt>
      <trkpt lat="50.45095" lon="3.52793">
        <ele>29.3</ele>
        <time>2021-09-11T13:22:25.964Z</time>
      </trkpt>
      <trkpt lat="50.45105" lon="3.52805">
        <ele>29</ele>
        <time>2021-09-11T13:22:28.188Z</time>
      </trkpt>
      <trkpt lat="50.45114" lon="3.52817">
        <ele>28.9</ele>
        <time>2021-09-11T13:22:30.709Z</time>
      </trkpt>
      <trkpt lat="50.45118" lon="3.52824">
        <ele>28.8</ele>
        <time>2021-09-11T13:22:31.860Z</time>
      </trkpt>
      <trkpt lat="50.45127" lon="3.52836">
        <ele>28.5</ele>
        <time>2021-09-11T13:22:33.910Z</time>
      </trkpt>
      <trkpt lat="50.45136" lon="3.52847">
        <ele>28.5</ele>
        <time>2021-09-11T13:22:38.109Z</time>
      </trkpt>
      <trkpt lat="50.4514" lon="3.52854">
        <ele>28.7</ele>
        <time>2021-09-11T13:22:41.285Z</time>
      </trkpt>
      <trkpt lat="50.45149" lon="3.52866">
        <ele>28.7</ele>
        <time>2021-09-11T13:22:45.632Z</time>
      </trkpt>
      <trkpt lat="50.45159" lon="3.52878">
        <ele>28.7</ele>
        <time>2021-09-11T13:22:50.265Z</time>
      </trkpt>
      <trkpt lat="50.45163" lon="3.52885">
        <ele>28.9</ele>
        <time>2021-09-11T13:22:53.442Z</time>
      </trkpt>
      <trkpt lat="50.45167" lon="3.52891">
        <ele>29</ele>
        <time>2021-09-11T13:22:55.882Z</time>
      </trkpt>
      <trkpt lat="50.45175" lon="3.52903">
        <ele>28.9</ele>
        <time>2021-09-11T13:22:58.227Z</time>
      </trkpt>
      <trkpt lat="50.45183" lon="3.52914">
        <ele>28.9</ele>
        <time>2021-09-11T13:23:02.141Z</time>
      </trkpt>
      <trkpt lat="50.45187" lon="3.52919">
        <ele>29.1</ele>
        <time>2021-09-11T13:23:05.075Z</time>
      </trkpt>
      <trkpt lat="50.45194" lon="3.52929">
        <ele>29.4</ele>
        <time>2021-09-11T13:23:09.984Z</time>
      </trkpt>
      <trkpt lat="50.45198" lon="3.52933">
        <ele>29.5</ele>
        <time>2021-09-11T13:23:12.148Z</time>
      </trkpt>
      <trkpt lat="50.45201" lon="3.52939">
        <ele>29.6</ele>
        <time>2021-09-11T13:23:14.352Z</time>
      </trkpt>
      <trkpt lat="50.45208" lon="3.52949">
        <ele>29.6</ele>
        <time>2021-09-11T13:23:17.836Z</time>
      </trkpt>
      <trkpt lat="50.45211" lon="3.52954">
        <ele>29.6</ele>
        <time>2021-09-11T13:23:19.446Z</time>
      </trkpt>
      <trkpt lat="50.45219" lon="3.52963">
        <ele>29.7</ele>
        <time>2021-09-11T13:23:23.441Z</time>
      </trkpt>
      <trkpt lat="50.45222" lon="3.52968">
        <ele>29.8</ele>
        <time>2021-09-11T13:23:25.478Z</time>
      </trkpt>
      <trkpt lat="50.45229" lon="3.52979">
        <ele>30</ele>
        <time>2021-09-11T13:23:29.951Z</time>
      </trkpt>
      <trkpt lat="50.45232" lon="3.52985">
        <ele>30</ele>
        <time>2021-09-11T13:23:31.739Z</time>
      </trkpt>
      <trkpt lat="50.45239" lon="3.52994">
        <ele>30</ele>
        <time>2021-09-11T13:23:35.070Z</time>
      </trkpt>
      <trkpt lat="50.45246" lon="3.53004">
        <ele>30</ele>
        <time>2021-09-11T13:23:38.554Z</time>
      </trkpt>
      <trkpt lat="50.45254" lon="3.53015">
        <ele>30</ele>
        <time>2021-09-11T13:23:42.468Z</time>
      </trkpt>
      <trkpt lat="50.4526" lon="3.53026">
        <ele>30</ele>
        <time>2021-09-11T13:23:45.864Z</time>
      </trkpt>
      <trkpt lat="50.45268" lon="3.53036">
        <ele>30.1</ele>
        <time>2021-09-11T13:23:49.998Z</time>
      </trkpt>
      <trkpt lat="50.45271" lon="3.53041">
        <ele>30.1</ele>
        <time>2021-09-11T13:23:51.609Z</time>
      </trkpt>
      <trkpt lat="50.45275" lon="3.53047">
        <ele>30.1</ele>
        <time>2021-09-11T13:23:53.645Z</time>
      </trkpt>
      <trkpt lat="50.45281" lon="3.53055">
        <ele>30</ele>
        <time>2021-09-11T13:23:55.235Z</time>
      </trkpt>
      <trkpt lat="50.4529" lon="3.53069">
        <ele>30</ele>
        <time>2021-09-11T13:23:59.898Z</time>
      </trkpt>
      <trkpt lat="50.45295" lon="3.53076">
        <ele>30</ele>
        <time>2021-09-11T13:24:02.364Z</time>
      </trkpt>
      <trkpt lat="50.45299" lon="3.53081">
        <ele>30</ele>
        <time>2021-09-11T13:24:04.247Z</time>
      </trkpt>
      <trkpt lat="50.45303" lon="3.53086">
        <ele>30</ele>
        <time>2021-09-11T13:24:06.129Z</time>
      </trkpt>
      <trkpt lat="50.45311" lon="3.53096">
        <ele>29.8</ele>
        <time>2021-09-11T13:24:08.027Z</time>
      </trkpt>
      <trkpt lat="50.45317" lon="3.53107">
        <ele>29.6</ele>
        <time>2021-09-11T13:24:09.697Z</time>
      </trkpt>
      <trkpt lat="50.45321" lon="3.53112">
        <ele>29.4</ele>
        <time>2021-09-11T13:24:10.468Z</time>
      </trkpt>
      <trkpt lat="50.45329" lon="3.53123">
        <ele>29.2</ele>
        <time>2021-09-11T13:24:12.459Z</time>
      </trkpt>
      <trkpt lat="50.45336" lon="3.53133">
        <ele>29</ele>
        <time>2021-09-11T13:24:14.184Z</time>
      </trkpt>
      <trkpt lat="50.4534" lon="3.53139">
        <ele>29</ele>
        <time>2021-09-11T13:24:16.220Z</time>
      </trkpt>
      <trkpt lat="50.45344" lon="3.53145">
        <ele>29</ele>
        <time>2021-09-11T13:24:18.257Z</time>
      </trkpt>
      <trkpt lat="50.45349" lon="3.53151">
        <ele>29</ele>
        <time>2021-09-11T13:24:20.573Z</time>
      </trkpt>
      <trkpt lat="50.45357" lon="3.53164">
        <ele>29</ele>
        <time>2021-09-11T13:24:24.811Z</time>
      </trkpt>
      <trkpt lat="50.45368" lon="3.53177">
        <ele>28.8</ele>
        <time>2021-09-11T13:24:27.528Z</time>
      </trkpt>
      <trkpt lat="50.45373" lon="3.53184">
        <ele>28.6</ele>
        <time>2021-09-11T13:24:28.637Z</time>
      </trkpt>
      <trkpt lat="50.45384" lon="3.53199">
        <ele>28.1</ele>
        <time>2021-09-11T13:24:30.940Z</time>
      </trkpt>
      <trkpt lat="50.4539" lon="3.53206">
        <ele>28</ele>
        <time>2021-09-11T13:24:32.437Z</time>
      </trkpt>
      <trkpt lat="50.45401" lon="3.53221">
        <ele>27.6</ele>
        <time>2021-09-11T13:24:34.911Z</time>
      </trkpt>
      <trkpt lat="50.45407" lon="3.53229">
        <ele>27.3</ele>
        <time>2021-09-11T13:24:36.109Z</time>
      </trkpt>
      <trkpt lat="50.45412" lon="3.53237">
        <ele>27.1</ele>
        <time>2021-09-11T13:24:37.314Z</time>
      </trkpt>
      <trkpt lat="50.45418" lon="3.53245">
        <ele>27</ele>
        <time>2021-09-11T13:24:38.904Z</time>
      </trkpt>
      <trkpt lat="50.45429" lon="3.5326">
        <ele>26.4</ele>
        <time>2021-09-11T13:24:41.058Z</time>
      </trkpt>
      <trkpt lat="50.45435" lon="3.53268">
        <ele>26.1</ele>
        <time>2021-09-11T13:24:42.257Z</time>
      </trkpt>
      <trkpt lat="50.4544" lon="3.53275">
        <ele>26</ele>
        <time>2021-09-11T13:24:43.572Z</time>
      </trkpt>
      <trkpt lat="50.45453" lon="3.53293">
        <ele>25.3</ele>
        <time>2021-09-11T13:24:46.155Z</time>
      </trkpt>
      <trkpt lat="50.45467" lon="3.53312">
        <ele>25</ele>
        <time>2021-09-11T13:24:49.731Z</time>
      </trkpt>
      <trkpt lat="50.45474" lon="3.53321">
        <ele>24.9</ele>
        <time>2021-09-11T13:24:51.597Z</time>
      </trkpt>
      <trkpt lat="50.45481" lon="3.5333">
        <ele>24.7</ele>
        <time>2021-09-11T13:24:53.228Z</time>
      </trkpt>
      <trkpt lat="50.45494" lon="3.53348">
        <ele>24.2</ele>
        <time>2021-09-11T13:24:56.127Z</time>
      </trkpt>
      <trkpt lat="50.45507" lon="3.53374">
        <ele>24</ele>
        <time>2021-09-11T13:25:00.560Z</time>
      </trkpt>
      <trkpt lat="50.45508" lon="3.53383">
        <ele>24</ele>
        <time>2021-09-11T13:25:02.701Z</time>
      </trkpt>
      <trkpt lat="50.4551" lon="3.53407">
        <ele>24</ele>
        <time>2021-09-11T13:25:08.375Z</time>
      </trkpt>
      <trkpt lat="50.45509" lon="3.5342">
        <ele>24</ele>
        <time>2021-09-11T13:25:11.445Z</time>
      </trkpt>
      <trkpt lat="50.45509" lon="3.53446">
        <ele>24</ele>
        <time>2021-09-11T13:25:17.539Z</time>
      </trkpt>
      <trkpt lat="50.45509" lon="3.53459">
        <ele>23.8</ele>
        <time>2021-09-11T13:25:18.996Z</time>
      </trkpt>
      <trkpt lat="50.45495" lon="3.53477">
        <ele>23.8</ele>
        <time>2021-09-11T13:25:25.657Z</time>
      </trkpt>
      <trkpt lat="50.45489" lon="3.53497">
        <ele>23.1</ele>
        <time>2021-09-11T13:25:27.585Z</time>
      </trkpt>
      <trkpt lat="50.45492" lon="3.53509">
        <ele>23</ele>
        <time>2021-09-11T13:25:29.254Z</time>
      </trkpt>
      <trkpt lat="50.45504" lon="3.53529">
        <ele>23</ele>
        <time>2021-09-11T13:25:35.696Z</time>
      </trkpt>
      <trkpt lat="50.45515" lon="3.53542">
        <ele>23</ele>
        <time>2021-09-11T13:25:40.764Z</time>
      </trkpt>
      <trkpt lat="50.45524" lon="3.53551">
        <ele>23</ele>
        <time>2021-09-11T13:25:44.692Z</time>
      </trkpt>
      <trkpt lat="50.45529" lon="3.53556">
        <ele>23</ele>
        <time>2021-09-11T13:25:46.874Z</time>
      </trkpt>
      <trkpt lat="50.45534" lon="3.53562">
        <ele>23</ele>
        <time>2021-09-11T13:25:49.191Z</time>
      </trkpt>
      <trkpt lat="50.45544" lon="3.53572">
        <ele>23</ele>
        <time>2021-09-11T13:25:53.555Z</time>
      </trkpt>
      <trkpt lat="50.45549" lon="3.53578">
        <ele>23</ele>
        <time>2021-09-11T13:25:55.872Z</time>
      </trkpt>
      <trkpt lat="50.45553" lon="3.53583">
        <ele>23</ele>
        <time>2021-09-11T13:25:57.754Z</time>
      </trkpt>
      <trkpt lat="50.45558" lon="3.53589">
        <ele>22.9</ele>
        <time>2021-09-11T13:25:58.975Z</time>
      </trkpt>
      <trkpt lat="50.45567" lon="3.53599">
        <ele>22.6</ele>
        <time>2021-09-11T13:26:00.852Z</time>
      </trkpt>
      <trkpt lat="50.45572" lon="3.53604">
        <ele>22.4</ele>
        <time>2021-09-11T13:26:01.795Z</time>
      </trkpt>
      <trkpt lat="50.45577" lon="3.53609">
        <ele>22.2</ele>
        <time>2021-09-11T13:26:02.737Z</time>
      </trkpt>
      <trkpt lat="50.45586" lon="3.53619">
        <ele>22</ele>
        <time>2021-09-11T13:26:04.819Z</time>
      </trkpt>
      <trkpt lat="50.45592" lon="3.53629">
        <ele>22</ele>
        <time>2021-09-11T13:26:08.039Z</time>
      </trkpt>
      <trkpt lat="50.45587" lon="3.53647">
        <ele>22.3</ele>
        <time>2021-09-11T13:26:13.939Z</time>
      </trkpt>
      <trkpt lat="50.45583" lon="3.53659">
        <ele>22.7</ele>
        <time>2021-09-11T13:26:19.362Z</time>
      </trkpt>
      <trkpt lat="50.45581" lon="3.53667">
        <ele>23</ele>
        <time>2021-09-11T13:26:23.000Z</time>
      </trkpt>
      <trkpt lat="50.45579" lon="3.53673">
        <ele>23</ele>
        <time>2021-09-11T13:26:24.588Z</time>
      </trkpt>
      <trkpt lat="50.45574" lon="3.53686">
        <ele>23</ele>
        <time>2021-09-11T13:26:28.148Z</time>
      </trkpt>
      <trkpt lat="50.45572" lon="3.53694">
        <ele>23</ele>
        <time>2021-09-11T13:26:30.162Z</time>
      </trkpt>
      <trkpt lat="50.45571" lon="3.53703">
        <ele>23</ele>
        <time>2021-09-11T13:26:32.304Z</time>
      </trkpt>
      <trkpt lat="50.45569" lon="3.53711">
        <ele>23</ele>
        <time>2021-09-11T13:26:34.318Z</time>
      </trkpt>
      <trkpt lat="50.45566" lon="3.53719">
        <ele>23</ele>
        <time>2021-09-11T13:26:36.495Z</time>
      </trkpt>
      <trkpt lat="50.45565" lon="3.5373">
        <ele>22.9</ele>
        <time>2021-09-11T13:26:37.898Z</time>
      </trkpt>
      <trkpt lat="50.45564" lon="3.53749">
        <ele>22.7</ele>
        <time>2021-09-11T13:26:40.236Z</time>
      </trkpt>
      <trkpt lat="50.45558" lon="3.53779">
        <ele>22.9</ele>
        <time>2021-09-11T13:26:48.349Z</time>
      </trkpt>
      <trkpt lat="50.45554" lon="3.53798">
        <ele>23</ele>
        <time>2021-09-11T13:26:53.403Z</time>
      </trkpt>
      <trkpt lat="50.45548" lon="3.53822">
        <ele>23</ele>
        <time>2021-09-11T13:26:59.447Z</time>
      </trkpt>
      <trkpt lat="50.45541" lon="3.53856">
        <ele>23</ele>
        <time>2021-09-11T13:27:07.823Z</time>
      </trkpt>
      <trkpt lat="50.45534" lon="3.53892">
        <ele>22.8</ele>
        <time>2021-09-11T13:27:12.949Z</time>
      </trkpt>
      <trkpt lat="50.45526" lon="3.53919">
        <ele>22.9</ele>
        <time>2021-09-11T13:27:20.284Z</time>
      </trkpt>
      <trkpt lat="50.45516" lon="3.53954">
        <ele>22.3</ele>
        <time>2021-09-11T13:27:24.566Z</time>
      </trkpt>
      <trkpt lat="50.45499" lon="3.53988">
        <ele>22</ele>
        <time>2021-09-11T13:27:30.256Z</time>
      </trkpt>
      <trkpt lat="50.45483" lon="3.54017">
        <ele>22</ele>
        <time>2021-09-11T13:27:39.251Z</time>
      </trkpt>
      <trkpt lat="50.45474" lon="3.54036">
        <ele>21.9</ele>
        <time>2021-09-11T13:27:44.290Z</time>
      </trkpt>
      <trkpt lat="50.45461" lon="3.54057">
        <ele>22.4</ele>
        <time>2021-09-11T13:27:53.391Z</time>
      </trkpt>
      <trkpt lat="50.45443" lon="3.54092">
        <ele>22</ele>
        <time>2021-09-11T13:27:59.084Z</time>
      </trkpt>
      <trkpt lat="50.45425" lon="3.54131">
        <ele>22</ele>
        <time>2021-09-11T13:28:10.375Z</time>
      </trkpt>
      <trkpt lat="50.45415" lon="3.54147">
        <ele>22</ele>
        <time>2021-09-11T13:28:15.631Z</time>
      </trkpt>
      <trkpt lat="50.45403" lon="3.54184">
        <ele>22</ele>
        <time>2021-09-11T13:28:25.364Z</time>
      </trkpt>
      <trkpt lat="50.45399" lon="3.54211">
        <ele>21.8</ele>
        <time>2021-09-11T13:28:28.993Z</time>
      </trkpt>
      <trkpt lat="50.45394" lon="3.54261">
        <ele>21</ele>
        <time>2021-09-11T13:28:34.625Z</time>
      </trkpt>
      <trkpt lat="50.45383" lon="3.54314">
        <ele>20.2</ele>
        <time>2021-09-11T13:28:40.990Z</time>
      </trkpt>
      <trkpt lat="50.45379" lon="3.54343">
        <ele>20.4</ele>
        <time>2021-09-11T13:28:48.693Z</time>
      </trkpt>
      <trkpt lat="50.45369" lon="3.54404">
        <ele>19.6</ele>
        <time>2021-09-11T13:28:56.104Z</time>
      </trkpt>
      <trkpt lat="50.45347" lon="3.54452">
        <ele>19</ele>
        <time>2021-09-11T13:29:03.406Z</time>
      </trkpt>
      <trkpt lat="50.4532" lon="3.54491">
        <ele>18.6</ele>
        <time>2021-09-11T13:29:10.990Z</time>
      </trkpt>
      <trkpt lat="50.45293" lon="3.5453">
        <ele>18.5</ele>
        <time>2021-09-11T13:29:23.953Z</time>
      </trkpt>
      <trkpt lat="50.45282" lon="3.54548">
        <ele>19</ele>
        <time>2021-09-11T13:29:32.171Z</time>
      </trkpt>
      <trkpt lat="50.45266" lon="3.54569">
        <ele>19.2</ele>
        <time>2021-09-11T13:29:40.587Z</time>
      </trkpt>
      <trkpt lat="50.45258" lon="3.54583">
        <ele>19.7</ele>
        <time>2021-09-11T13:29:47.727Z</time>
      </trkpt>
      <trkpt lat="50.45243" lon="3.54608">
        <ele>20</ele>
        <time>2021-09-11T13:29:56.936Z</time>
      </trkpt>
      <trkpt lat="50.45235" lon="3.54621">
        <ele>20.2</ele>
        <time>2021-09-11T13:30:01.977Z</time>
      </trkpt>
      <trkpt lat="50.45227" lon="3.54633">
        <ele>20.7</ele>
        <time>2021-09-11T13:30:08.881Z</time>
      </trkpt>
      <trkpt lat="50.45215" lon="3.54654">
        <ele>21</ele>
        <time>2021-09-11T13:30:16.690Z</time>
      </trkpt>
      <trkpt lat="50.45208" lon="3.54664">
        <ele>21</ele>
        <time>2021-09-11T13:30:20.174Z</time>
      </trkpt>
      <trkpt lat="50.45202" lon="3.54674">
        <ele>21</ele>
        <time>2021-09-11T13:30:23.395Z</time>
      </trkpt>
      <trkpt lat="50.45194" lon="3.54686">
        <ele>21</ele>
        <time>2021-09-11T13:30:27.467Z</time>
      </trkpt>
      <trkpt lat="50.45187" lon="3.54706">
        <ele>21.6</ele>
        <time>2021-09-11T13:30:36.072Z</time>
      </trkpt>
      <trkpt lat="50.4518" lon="3.54718">
        <ele>21.9</ele>
        <time>2021-09-11T13:30:41.263Z</time>
      </trkpt>
      <trkpt lat="50.45163" lon="3.54738">
        <ele>22.5</ele>
        <time>2021-09-11T13:30:51.813Z</time>
      </trkpt>
      <trkpt lat="50.45156" lon="3.5475">
        <ele>22.6</ele>
        <time>2021-09-11T13:30:55.998Z</time>
      </trkpt>
      <trkpt lat="50.45149" lon="3.54763">
        <ele>22.7</ele>
        <time>2021-09-11T13:31:00.358Z</time>
      </trkpt>
      <trkpt lat="50.45138" lon="3.54791">
        <ele>23</ele>
        <time>2021-09-11T13:31:09.235Z</time>
      </trkpt>
      <trkpt lat="50.45132" lon="3.54803">
        <ele>23</ele>
        <time>2021-09-11T13:31:12.811Z</time>
      </trkpt>
      <trkpt lat="50.45124" lon="3.5482">
        <ele>23</ele>
        <time>2021-09-11T13:31:17.767Z</time>
      </trkpt>
      <trkpt lat="50.45117" lon="3.54838">
        <ele>23</ele>
        <time>2021-09-11T13:31:22.711Z</time>
      </trkpt>
      <trkpt lat="50.45102" lon="3.54872">
        <ele>23</ele>
        <time>2021-09-11T13:31:32.408Z</time>
      </trkpt>
      <trkpt lat="50.45095" lon="3.54889">
        <ele>23</ele>
        <time>2021-09-11T13:31:37.154Z</time>
      </trkpt>
      <trkpt lat="50.45087" lon="3.54906">
        <ele>23</ele>
        <time>2021-09-11T13:31:42.109Z</time>
      </trkpt>
      <trkpt lat="50.4508" lon="3.54923">
        <ele>23</ele>
        <time>2021-09-11T13:31:46.855Z</time>
      </trkpt>
      <trkpt lat="50.45064" lon="3.54954">
        <ele>23</ele>
        <time>2021-09-11T13:31:56.210Z</time>
      </trkpt>
      <trkpt lat="50.45057" lon="3.5497">
        <ele>23</ele>
        <time>2021-09-11T13:32:00.761Z</time>
      </trkpt>
      <trkpt lat="50.45048" lon="3.54994">
        <ele>23</ele>
        <time>2021-09-11T13:32:07.290Z</time>
      </trkpt>
      <trkpt lat="50.45049" lon="3.55014">
        <ele>23</ele>
        <time>2021-09-11T13:32:11.993Z</time>
      </trkpt>
      <trkpt lat="50.45042" lon="3.55033">
        <ele>23</ele>
        <time>2021-09-11T13:32:17.139Z</time>
      </trkpt>
      <trkpt lat="50.45024" lon="3.55053">
        <ele>22.9</ele>
        <time>2021-09-11T13:32:24.729Z</time>
      </trkpt>
      <trkpt lat="50.45015" lon="3.55071">
        <ele>22.8</ele>
        <time>2021-09-11T13:32:29.584Z</time>
      </trkpt>
      <trkpt lat="50.45008" lon="3.55088">
        <ele>23</ele>
        <time>2021-09-11T13:32:35.116Z</time>
      </trkpt>
      <trkpt lat="50.44993" lon="3.55126">
        <ele>22.3</ele>
        <time>2021-09-11T13:32:40.105Z</time>
      </trkpt>
      <trkpt lat="50.44982" lon="3.55146">
        <ele>22</ele>
        <time>2021-09-11T13:32:43.294Z</time>
      </trkpt>
      <trkpt lat="50.44966" lon="3.55186">
        <ele>21.8</ele>
        <time>2021-09-11T13:32:53.344Z</time>
      </trkpt>
      <trkpt lat="50.44944" lon="3.55227">
        <ele>21</ele>
        <time>2021-09-11T13:32:59.405Z</time>
      </trkpt>
      <trkpt lat="50.44928" lon="3.55268">
        <ele>21</ele>
        <time>2021-09-11T13:33:10.678Z</time>
      </trkpt>
      <trkpt lat="50.44922" lon="3.5529">
        <ele>21</ele>
        <time>2021-09-11T13:33:16.289Z</time>
      </trkpt>
      <trkpt lat="50.44904" lon="3.55329">
        <ele>21</ele>
        <time>2021-09-11T13:33:27.581Z</time>
      </trkpt>
      <trkpt lat="50.44894" lon="3.55354">
        <ele>21</ele>
        <time>2021-09-11T13:33:34.502Z</time>
      </trkpt>
      <trkpt lat="50.44885" lon="3.55376">
        <ele>21</ele>
        <time>2021-09-11T13:33:40.632Z</time>
      </trkpt>
      <trkpt lat="50.44867" lon="3.55419">
        <ele>20.9</ele>
        <time>2021-09-11T13:33:52.157Z</time>
      </trkpt>
      <trkpt lat="50.44858" lon="3.5544">
        <ele>20.3</ele>
        <time>2021-09-11T13:33:54.634Z</time>
      </trkpt>
      <trkpt lat="50.44849" lon="3.55461">
        <ele>20.2</ele>
        <time>2021-09-11T13:34:00.053Z</time>
      </trkpt>
      <trkpt lat="50.44833" lon="3.55504">
        <ele>20</ele>
        <time>2021-09-11T13:34:10.700Z</time>
      </trkpt>
      <trkpt lat="50.44818" lon="3.55526">
        <ele>20</ele>
        <time>2021-09-11T13:34:18.256Z</time>
      </trkpt>
      <trkpt lat="50.44802" lon="3.55542">
        <ele>19.9</ele>
        <time>2021-09-11T13:34:24.718Z</time>
      </trkpt>
      <trkpt lat="50.44787" lon="3.55549">
        <ele>19.8</ele>
        <time>2021-09-11T13:34:29.965Z</time>
      </trkpt>
      <trkpt lat="50.44764" lon="3.55582">
        <ele>20</ele>
        <time>2021-09-11T13:34:42.152Z</time>
      </trkpt>
      <trkpt lat="50.44772" lon="3.55627">
        <ele>20</ele>
        <time>2021-09-11T13:34:53.105Z</time>
      </trkpt>
      <trkpt lat="50.4478" lon="3.55635">
        <ele>19.9</ele>
        <time>2021-09-11T13:34:55.075Z</time>
      </trkpt>
      <trkpt lat="50.44815" lon="3.55638">
        <ele>19</ele>
        <time>2021-09-11T13:35:01.144Z</time>
      </trkpt>
      <trkpt lat="50.44838" lon="3.55673">
        <ele>19</ele>
        <time>2021-09-11T13:35:12.935Z</time>
      </trkpt>
      <trkpt lat="50.44859" lon="3.55714">
        <ele>19</ele>
        <time>2021-09-11T13:35:25.271Z</time>
      </trkpt>
      <trkpt lat="50.44883" lon="3.55753">
        <ele>19</ele>
        <time>2021-09-11T13:35:37.985Z</time>
      </trkpt>
      <trkpt lat="50.44896" lon="3.55774">
        <ele>19</ele>
        <time>2021-09-11T13:35:44.852Z</time>
      </trkpt>
      <trkpt lat="50.44909" lon="3.55794">
        <ele>18.6</ele>
        <time>2021-09-11T13:35:48.136Z</time>
      </trkpt>
      <trkpt lat="50.44922" lon="3.55814">
        <ele>18</ele>
        <time>2021-09-11T13:35:51.053Z</time>
      </trkpt>
      <trkpt lat="50.44947" lon="3.5585">
        <ele>17.9</ele>
        <time>2021-09-11T13:36:03.001Z</time>
      </trkpt>
      <trkpt lat="50.44961" lon="3.55871">
        <ele>17.9</ele>
        <time>2021-09-11T13:36:10.129Z</time>
      </trkpt>
      <trkpt lat="50.44987" lon="3.55915">
        <ele>18.3</ele>
        <time>2021-09-11T13:36:25.693Z</time>
      </trkpt>
      <trkpt lat="50.45011" lon="3.5596">
        <ele>18.8</ele>
        <time>2021-09-11T13:36:41.375Z</time>
      </trkpt>
      <trkpt lat="50.45035" lon="3.55998">
        <ele>18</ele>
        <time>2021-09-11T13:36:47.423Z</time>
      </trkpt>
      <trkpt lat="50.45045" lon="3.56016">
        <ele>18</ele>
        <time>2021-09-11T13:36:53.023Z</time>
      </trkpt>
      <trkpt lat="50.45063" lon="3.56056">
        <ele>18</ele>
        <time>2021-09-11T13:37:04.505Z</time>
      </trkpt>
      <trkpt lat="50.45081" lon="3.5609">
        <ele>19</ele>
        <time>2021-09-11T13:37:19.869Z</time>
      </trkpt>
      <trkpt lat="50.45092" lon="3.56104">
        <ele>18.4</ele>
        <time>2021-09-11T13:37:21.940Z</time>
      </trkpt>
      <trkpt lat="50.45101" lon="3.56122">
        <ele>18.8</ele>
        <time>2021-09-11T13:37:29.107Z</time>
      </trkpt>
      <trkpt lat="50.45112" lon="3.56139">
        <ele>18.9</ele>
        <time>2021-09-11T13:37:35.148Z</time>
      </trkpt>
      <trkpt lat="50.45119" lon="3.56156">
        <ele>18.8</ele>
        <time>2021-09-11T13:37:37.927Z</time>
      </trkpt>
      <trkpt lat="50.45135" lon="3.56187">
        <ele>19.6</ele>
        <time>2021-09-11T13:37:51.073Z</time>
      </trkpt>
      <trkpt lat="50.45145" lon="3.56205">
        <ele>19.4</ele>
        <time>2021-09-11T13:37:54.128Z</time>
      </trkpt>
      <trkpt lat="50.45158" lon="3.56213">
        <ele>19.3</ele>
        <time>2021-09-11T13:37:58.760Z</time>
      </trkpt>
      <trkpt lat="50.45167" lon="3.56228">
        <ele>20</ele>
        <time>2021-09-11T13:38:07.397Z</time>
      </trkpt>
      <trkpt lat="50.45176" lon="3.56252">
        <ele>20</ele>
        <time>2021-09-11T13:38:13.926Z</time>
      </trkpt>
      <trkpt lat="50.45199" lon="3.56303">
        <ele>20.2</ele>
        <time>2021-09-11T13:38:29.284Z</time>
      </trkpt>
      <trkpt lat="50.45211" lon="3.56332">
        <ele>20.6</ele>
        <time>2021-09-11T13:38:39.009Z</time>
      </trkpt>
      <trkpt lat="50.4523" lon="3.5636">
        <ele>20.6</ele>
        <time>2021-09-11T13:38:48.602Z</time>
      </trkpt>
      <trkpt lat="50.45248" lon="3.56369">
        <ele>21.6</ele>
        <time>2021-09-11T13:39:01.001Z</time>
      </trkpt>
      <trkpt lat="50.45257" lon="3.56389">
        <ele>19.7</ele>
        <time>2021-09-11T13:39:03.033Z</time>
      </trkpt>
      <trkpt lat="50.45267" lon="3.56408">
        <ele>17</ele>
        <time>2021-09-11T13:39:05.077Z</time>
      </trkpt>
      <trkpt lat="50.4528" lon="3.56437">
        <ele>14.3</ele>
        <time>2021-09-11T13:39:08.020Z</time>
      </trkpt>
      <trkpt lat="50.45285" lon="3.56455">
        <ele>14.3</ele>
        <time>2021-09-11T13:39:12.623Z</time>
      </trkpt>
      <trkpt lat="50.45299" lon="3.56472">
        <ele>14.8</ele>
        <time>2021-09-11T13:39:21.413Z</time>
      </trkpt>
      <trkpt lat="50.4532" lon="3.56492">
        <ele>19</ele>
        <time>2021-09-11T13:39:56.289Z</time>
      </trkpt>
      <trkpt lat="50.45339" lon="3.56514">
        <ele>21.2</ele>
        <time>2021-09-11T13:40:17.484Z</time>
      </trkpt>
      <trkpt lat="50.4535" lon="3.56537">
        <ele>21.2</ele>
        <time>2021-09-11T13:40:24.227Z</time>
      </trkpt>
      <trkpt lat="50.45357" lon="3.5656">
        <ele>21.7</ele>
        <time>2021-09-11T13:40:32.552Z</time>
      </trkpt>
      <trkpt lat="50.45356" lon="3.56584">
        <ele>21.6</ele>
        <time>2021-09-11T13:40:37.677Z</time>
      </trkpt>
      <trkpt lat="50.45358" lon="3.56606">
        <ele>21.7</ele>
        <time>2021-09-11T13:40:43.247Z</time>
      </trkpt>
      <trkpt lat="50.45348" lon="3.56649">
        <ele>20.2</ele>
        <time>2021-09-11T13:40:47.179Z</time>
      </trkpt>
      <trkpt lat="50.45333" lon="3.56701">
        <ele>20.7</ele>
        <time>2021-09-11T13:41:02.490Z</time>
      </trkpt>
      <trkpt lat="50.45322" lon="3.56726">
        <ele>19.6</ele>
        <time>2021-09-11T13:41:04.985Z</time>
      </trkpt>
      <trkpt lat="50.45312" lon="3.56753">
        <ele>19.3</ele>
        <time>2021-09-11T13:41:08.883Z</time>
      </trkpt>
      <trkpt lat="50.45294" lon="3.5681">
        <ele>19.2</ele>
        <time>2021-09-11T13:41:23.254Z</time>
      </trkpt>
      <trkpt lat="50.45283" lon="3.56839">
        <ele>19.2</ele>
        <time>2021-09-11T13:41:31.167Z</time>
      </trkpt>
      <trkpt lat="50.45263" lon="3.56894">
        <ele>18.5</ele>
        <time>2021-09-11T13:41:38.852Z</time>
      </trkpt>
      <trkpt lat="50.45244" lon="3.56946">
        <ele>18.6</ele>
        <time>2021-09-11T13:41:53.252Z</time>
      </trkpt>
      <trkpt lat="50.45228" lon="3.57">
        <ele>18.2</ele>
        <time>2021-09-11T13:42:01.129Z</time>
      </trkpt>
      <trkpt lat="50.45209" lon="3.57048">
        <ele>18</ele>
        <time>2021-09-11T13:42:13.338Z</time>
      </trkpt>
      <trkpt lat="50.45199" lon="3.57071">
        <ele>17.8</ele>
        <time>2021-09-11T13:42:16.986Z</time>
      </trkpt>
      <trkpt lat="50.45183" lon="3.57113">
        <ele>17.6</ele>
        <time>2021-09-11T13:42:27.432Z</time>
      </trkpt>
      <trkpt lat="50.45174" lon="3.57135">
        <ele>17.7</ele>
        <time>2021-09-11T13:42:33.919Z</time>
      </trkpt>
      <trkpt lat="50.45167" lon="3.57153">
        <ele>18</ele>
        <time>2021-09-11T13:42:40.135Z</time>
      </trkpt>
      <trkpt lat="50.45146" lon="3.57185">
        <ele>17.3</ele>
        <time>2021-09-11T13:42:45.301Z</time>
      </trkpt>
      <trkpt lat="50.45131" lon="3.57221">
        <ele>17.7</ele>
        <time>2021-09-11T13:42:56.944Z</time>
      </trkpt>
      <trkpt lat="50.45115" lon="3.57251">
        <ele>18</ele>
        <time>2021-09-11T13:43:07.255Z</time>
      </trkpt>
      <trkpt lat="50.45095" lon="3.57278">
        <ele>18</ele>
        <time>2021-09-11T13:43:16.965Z</time>
      </trkpt>
      <trkpt lat="50.45076" lon="3.57298">
        <ele>18</ele>
        <time>2021-09-11T13:43:25.386Z</time>
      </trkpt>
      <trkpt lat="50.45063" lon="3.57333">
        <ele>17.7</ele>
        <time>2021-09-11T13:43:30.669Z</time>
      </trkpt>
      <trkpt lat="50.45053" lon="3.57353">
        <ele>18</ele>
        <time>2021-09-11T13:43:37.849Z</time>
      </trkpt>
      <trkpt lat="50.45039" lon="3.57378">
        <ele>18.2</ele>
        <time>2021-09-11T13:43:46.392Z</time>
      </trkpt>
      <trkpt lat="50.45027" lon="3.57387">
        <ele>18</ele>
        <time>2021-09-11T13:43:48.999Z</time>
      </trkpt>
      <trkpt lat="50.45008" lon="3.57412">
        <ele>18</ele>
        <time>2021-09-11T13:43:58.125Z</time>
      </trkpt>
      <trkpt lat="50.44999" lon="3.57428">
        <ele>18</ele>
        <time>2021-09-11T13:44:03.130Z</time>
      </trkpt>
      <trkpt lat="50.4498" lon="3.57457">
        <ele>17.7</ele>
        <time>2021-09-11T13:44:08.577Z</time>
      </trkpt>
      <trkpt lat="50.4497" lon="3.5747">
        <ele>17.8</ele>
        <time>2021-09-11T13:44:13.719Z</time>
      </trkpt>
      <trkpt lat="50.44957" lon="3.57489">
        <ele>18.1</ele>
        <time>2021-09-11T13:44:21.454Z</time>
      </trkpt>
      <trkpt lat="50.44946" lon="3.57502">
        <ele>18.1</ele>
        <time>2021-09-11T13:44:26.523Z</time>
      </trkpt>
      <trkpt lat="50.44929" lon="3.57528">
        <ele>17.5</ele>
        <time>2021-09-11T13:44:30.649Z</time>
      </trkpt>
      <trkpt lat="50.44915" lon="3.57557">
        <ele>17.9</ele>
        <time>2021-09-11T13:44:40.783Z</time>
      </trkpt>
      <trkpt lat="50.44909" lon="3.57571">
        <ele>17.9</ele>
        <time>2021-09-11T13:44:44.739Z</time>
      </trkpt>
      <trkpt lat="50.44901" lon="3.57585">
        <ele>18</ele>
        <time>2021-09-11T13:44:49.514Z</time>
      </trkpt>
      <trkpt lat="50.44895" lon="3.57597">
        <ele>18.4</ele>
        <time>2021-09-11T13:44:55.257Z</time>
      </trkpt>
      <trkpt lat="50.44886" lon="3.57612">
        <ele>18.8</ele>
        <time>2021-09-11T13:45:01.960Z</time>
      </trkpt>
      <trkpt lat="50.44885" lon="3.57621">
        <ele>18.5</ele>
        <time>2021-09-11T13:45:02.744Z</time>
      </trkpt>
      <trkpt lat="50.44859" lon="3.57664">
        <ele>18.8</ele>
        <time>2021-09-11T13:45:17.736Z</time>
      </trkpt>
      <trkpt lat="50.44847" lon="3.57693">
        <ele>18</ele>
        <time>2021-09-11T13:45:21.150Z</time>
      </trkpt>
      <trkpt lat="50.44835" lon="3.57723">
        <ele>18.9</ele>
        <time>2021-09-11T13:45:34.238Z</time>
      </trkpt>
      <trkpt lat="50.44828" lon="3.57742">
        <ele>18.2</ele>
        <time>2021-09-11T13:45:36.146Z</time>
      </trkpt>
      <trkpt lat="50.44825" lon="3.57768">
        <ele>18</ele>
        <time>2021-09-11T13:45:39.580Z</time>
      </trkpt>
      <trkpt lat="50.44819" lon="3.57787">
        <ele>17.8</ele>
        <time>2021-09-11T13:45:42.236Z</time>
      </trkpt>
      <trkpt lat="50.44807" lon="3.57806">
        <ele>17.9</ele>
        <time>2021-09-11T13:45:48.866Z</time>
      </trkpt>
      <trkpt lat="50.44801" lon="3.57828">
        <ele>18</ele>
        <time>2021-09-11T13:45:54.836Z</time>
      </trkpt>
      <trkpt lat="50.44783" lon="3.57866">
        <ele>17.8</ele>
        <time>2021-09-11T13:46:04.915Z</time>
      </trkpt>
      <trkpt lat="50.44772" lon="3.57909">
        <ele>18</ele>
        <time>2021-09-11T13:46:16.498Z</time>
      </trkpt>
      <trkpt lat="50.44763" lon="3.57952">
        <ele>18.5</ele>
        <time>2021-09-11T13:46:29.114Z</time>
      </trkpt>
      <trkpt lat="50.44758" lon="3.57971">
        <ele>18.7</ele>
        <time>2021-09-11T13:46:34.718Z</time>
      </trkpt>
      <trkpt lat="50.44752" lon="3.57996">
        <ele>19</ele>
        <time>2021-09-11T13:46:42.188Z</time>
      </trkpt>
      <trkpt lat="50.44746" lon="3.58039">
        <ele>19.1</ele>
        <time>2021-09-11T13:46:52.857Z</time>
      </trkpt>
      <trkpt lat="50.44737" lon="3.58076">
        <ele>19.5</ele>
        <time>2021-09-11T13:47:03.721Z</time>
      </trkpt>
      <trkpt lat="50.44735" lon="3.58097">
        <ele>19.5</ele>
        <time>2021-09-11T13:47:08.699Z</time>
      </trkpt>
      <trkpt lat="50.4473" lon="3.58117">
        <ele>19.7</ele>
        <time>2021-09-11T13:47:14.515Z</time>
      </trkpt>
      <trkpt lat="50.44726" lon="3.58141">
        <ele>19.8</ele>
        <time>2021-09-11T13:47:20.689Z</time>
      </trkpt>
      <trkpt lat="50.4472" lon="3.5818">
        <ele>19.1</ele>
        <time>2021-09-11T13:47:25.030Z</time>
      </trkpt>
      <trkpt lat="50.44709" lon="3.58219">
        <ele>19.5</ele>
        <time>2021-09-11T13:47:36.590Z</time>
      </trkpt>
      <trkpt lat="50.44703" lon="3.58259">
        <ele>20</ele>
        <time>2021-09-11T13:47:48.268Z</time>
      </trkpt>
      <trkpt lat="50.44695" lon="3.58301">
        <ele>20</ele>
        <time>2021-09-11T13:47:58.546Z</time>
      </trkpt>
      <trkpt lat="50.44686" lon="3.58344">
        <ele>19.6</ele>
        <time>2021-09-11T13:48:04.280Z</time>
      </trkpt>
      <trkpt lat="50.44684" lon="3.58361">
        <ele>19</ele>
        <time>2021-09-11T13:48:05.728Z</time>
      </trkpt>
      <trkpt lat="50.44681" lon="3.58384">
        <ele>18.2</ele>
        <time>2021-09-11T13:48:07.710Z</time>
      </trkpt>
      <trkpt lat="50.44678" lon="3.58405">
        <ele>17.4</ele>
        <time>2021-09-11T13:48:09.455Z</time>
      </trkpt>
      <trkpt lat="50.44675" lon="3.58426">
        <ele>16.8</ele>
        <time>2021-09-11T13:48:11.434Z</time>
      </trkpt>
      <trkpt lat="50.44666" lon="3.58469">
        <ele>16</ele>
        <time>2021-09-11T13:48:16.313Z</time>
      </trkpt>
      <trkpt lat="50.44664" lon="3.5849">
        <ele>16.2</ele>
        <time>2021-09-11T13:48:22.072Z</time>
      </trkpt>
      <trkpt lat="50.44668" lon="3.58531">
        <ele>16.2</ele>
        <time>2021-09-11T13:48:31.796Z</time>
      </trkpt>
      <trkpt lat="50.44664" lon="3.58574">
        <ele>17.2</ele>
        <time>2021-09-11T13:48:47.025Z</time>
      </trkpt>
      <trkpt lat="50.44668" lon="3.58598">
        <ele>17</ele>
        <time>2021-09-11T13:48:50.217Z</time>
      </trkpt>
      <trkpt lat="50.44704" lon="3.58605">
        <ele>17</ele>
        <time>2021-09-11T13:49:03.572Z</time>
      </trkpt>
      <trkpt lat="50.44717" lon="3.58579">
        <ele>16.9</ele>
        <time>2021-09-11T13:49:10.796Z</time>
      </trkpt>
      <trkpt lat="50.44717" lon="3.58547">
        <ele>16.4</ele>
        <time>2021-09-11T13:49:14.370Z</time>
      </trkpt>
      <trkpt lat="50.44724" lon="3.5852">
        <ele>16.9</ele>
        <time>2021-09-11T13:49:23.442Z</time>
      </trkpt>
      <trkpt lat="50.44756" lon="3.58487">
        <ele>16.5</ele>
        <time>2021-09-11T13:49:31.404Z</time>
      </trkpt>
      <trkpt lat="50.44772" lon="3.58475">
        <ele>16.9</ele>
        <time>2021-09-11T13:49:39.632Z</time>
      </trkpt>
      <trkpt lat="50.44801" lon="3.58459">
        <ele>17</ele>
        <time>2021-09-11T13:49:51.296Z</time>
      </trkpt>
      <trkpt lat="50.44813" lon="3.58445">
        <ele>18</ele>
        <time>2021-09-11T13:50:02.118Z</time>
      </trkpt>
      <trkpt lat="50.44825" lon="3.58434">
        <ele>18.3</ele>
        <time>2021-09-11T13:50:08.494Z</time>
      </trkpt>
      <trkpt lat="50.44831" lon="3.58433">
        <ele>18.4</ele>
        <time>2021-09-11T13:50:11.113Z</time>
      </trkpt>
      <trkpt lat="50.44842" lon="3.58431">
        <ele>18.8</ele>
        <time>2021-09-11T13:50:17.206Z</time>
      </trkpt>
      <trkpt lat="50.44853" lon="3.58433">
        <ele>19.1</ele>
        <time>2021-09-11T13:50:22.629Z</time>
      </trkpt>
      <trkpt lat="50.44878" lon="3.58438">
        <ele>19.7</ele>
        <time>2021-09-11T13:50:34.495Z</time>
      </trkpt>
      <trkpt lat="50.44901" lon="3.58444">
        <ele>20</ele>
        <time>2021-09-11T13:50:44.225Z</time>
      </trkpt>
      <trkpt lat="50.44914" lon="3.58454">
        <ele>19.9</ele>
        <time>2021-09-11T13:50:49.045Z</time>
      </trkpt>
      <trkpt lat="50.4493" lon="3.58461">
        <ele>20.5</ele>
        <time>2021-09-11T13:50:58.184Z</time>
      </trkpt>
      <trkpt lat="50.44943" lon="3.5847">
        <ele>20.9</ele>
        <time>2021-09-11T13:51:05.232Z</time>
      </trkpt>
      <trkpt lat="50.44954" lon="3.58476">
        <ele>21.3</ele>
        <time>2021-09-11T13:51:11.487Z</time>
      </trkpt>
      <trkpt lat="50.4497" lon="3.5849">
        <ele>21.9</ele>
        <time>2021-09-11T13:51:21.121Z</time>
      </trkpt>
      <trkpt lat="50.44978" lon="3.58497">
        <ele>22.2</ele>
        <time>2021-09-11T13:51:25.938Z</time>
      </trkpt>
      <trkpt lat="50.44995" lon="3.58513">
        <ele>22.8</ele>
        <time>2021-09-11T13:51:36.034Z</time>
      </trkpt>
      <trkpt lat="50.45003" lon="3.5852">
        <ele>23.2</ele>
        <time>2021-09-11T13:51:41.655Z</time>
      </trkpt>
      <trkpt lat="50.45017" lon="3.58538">
        <ele>23.9</ele>
        <time>2021-09-11T13:51:51.972Z</time>
      </trkpt>
      <trkpt lat="50.45028" lon="3.58551">
        <ele>24.2</ele>
        <time>2021-09-11T13:51:58.305Z</time>
      </trkpt>
      <trkpt lat="50.45036" lon="3.58534">
        <ele>25.4</ele>
        <time>2021-09-11T13:52:09.959Z</time>
      </trkpt>
      <trkpt lat="50.45044" lon="3.58546">
        <ele>25.5</ele>
        <time>2021-09-11T13:52:14.400Z</time>
      </trkpt>
      <trkpt lat="50.45062" lon="3.58574">
        <ele>25.3</ele>
        <time>2021-09-11T13:52:19.853Z</time>
      </trkpt>
      <trkpt lat="50.45069" lon="3.58585">
        <ele>25.5</ele>
        <time>2021-09-11T13:52:24.326Z</time>
      </trkpt>
      <trkpt lat="50.45082" lon="3.58606">
        <ele>25.4</ele>
        <time>2021-09-11T13:52:30.671Z</time>
      </trkpt>
      <trkpt lat="50.45097" lon="3.58623">
        <ele>26.1</ele>
        <time>2021-09-11T13:52:41.094Z</time>
      </trkpt>
      <trkpt lat="50.45103" lon="3.58633">
        <ele>25.7</ele>
        <time>2021-09-11T13:52:42.335Z</time>
      </trkpt>
      <trkpt lat="50.45108" lon="3.58641">
        <ele>25.1</ele>
        <time>2021-09-11T13:52:43.265Z</time>
      </trkpt>
      <trkpt lat="50.45114" lon="3.58648">
        <ele>25.3</ele>
        <time>2021-09-11T13:52:46.911Z</time>
      </trkpt>
      <trkpt lat="50.45119" lon="3.58655">
        <ele>25.6</ele>
        <time>2021-09-11T13:52:51.080Z</time>
      </trkpt>
      <trkpt lat="50.45127" lon="3.58666">
        <ele>25.6</ele>
        <time>2021-09-11T13:52:54.995Z</time>
      </trkpt>
      <trkpt lat="50.4513" lon="3.58671">
        <ele>25.6</ele>
        <time>2021-09-11T13:52:56.605Z</time>
      </trkpt>
      <trkpt lat="50.45142" lon="3.58685">
        <ele>25.5</ele>
        <time>2021-09-11T13:53:01.597Z</time>
      </trkpt>
      <trkpt lat="50.45152" lon="3.58697">
        <ele>25.5</ele>
        <time>2021-09-11T13:53:06.231Z</time>
      </trkpt>
      <trkpt lat="50.45212" lon="3.58766">
        <ele>26.5</ele>
        <time>2021-09-11T13:53:37.455Z</time>
      </trkpt>
      <trkpt lat="50.45237" lon="3.58796">
        <ele>26.4</ele>
        <time>2021-09-11T13:53:48.500Z</time>
      </trkpt>
      <trkpt lat="50.45247" lon="3.58807">
        <ele>26</ele>
        <time>2021-09-11T13:53:50.462Z</time>
      </trkpt>
      <trkpt lat="50.45259" lon="3.58822">
        <ele>26.6</ele>
        <time>2021-09-11T13:53:59.261Z</time>
      </trkpt>
      <trkpt lat="50.45268" lon="3.58838">
        <ele>26.6</ele>
        <time>2021-09-11T13:54:04.266Z</time>
      </trkpt>
      <trkpt lat="50.45283" lon="3.58873">
        <ele>26.5</ele>
        <time>2021-09-11T13:54:13.622Z</time>
      </trkpt>
      <trkpt lat="50.45293" lon="3.58889">
        <ele>27</ele>
        <time>2021-09-11T13:54:21.361Z</time>
      </trkpt>
      <trkpt lat="50.45297" lon="3.58905">
        <ele>27</ele>
        <time>2021-09-11T13:54:25.390Z</time>
      </trkpt>
      <trkpt lat="50.45302" lon="3.5893">
        <ele>26.5</ele>
        <time>2021-09-11T13:54:28.149Z</time>
      </trkpt>
      <trkpt lat="50.45315" lon="3.58957">
        <ele>26</ele>
        <time>2021-09-11T13:54:31.985Z</time>
      </trkpt>
      <trkpt lat="50.45346" lon="3.58938">
        <ele>26</ele>
        <time>2021-09-11T13:54:44.236Z</time>
      </trkpt>
      <trkpt lat="50.45365" lon="3.58935">
        <ele>25.9</ele>
        <time>2021-09-11T13:54:50.745Z</time>
      </trkpt>
      <trkpt lat="50.45403" lon="3.58971">
        <ele>24.5</ele>
        <time>2021-09-11T13:54:57.963Z</time>
      </trkpt>
      <trkpt lat="50.45422" lon="3.59021">
        <ele>24.6</ele>
        <time>2021-09-11T13:55:11.958Z</time>
      </trkpt>
      <trkpt lat="50.45407" lon="3.59049">
        <ele>24.8</ele>
        <time>2021-09-11T13:55:21.267Z</time>
      </trkpt>
      <trkpt lat="50.45391" lon="3.59068">
        <ele>25.4</ele>
        <time>2021-09-11T13:55:31.439Z</time>
      </trkpt>
      <trkpt lat="50.45369" lon="3.59102">
        <ele>25.5</ele>
        <time>2021-09-11T13:55:43.150Z</time>
      </trkpt>
      <trkpt lat="50.45363" lon="3.59114">
        <ele>25.8</ele>
        <time>2021-09-11T13:55:48.137Z</time>
      </trkpt>
      <trkpt lat="50.45363" lon="3.59125">
        <ele>25.4</ele>
        <time>2021-09-11T13:55:49.038Z</time>
      </trkpt>
      <trkpt lat="50.4536" lon="3.59137">
        <ele>25.1</ele>
        <time>2021-09-11T13:55:50.308Z</time>
      </trkpt>
      <trkpt lat="50.45354" lon="3.59152">
        <ele>24.6</ele>
        <time>2021-09-11T13:55:51.928Z</time>
      </trkpt>
      <trkpt lat="50.45342" lon="3.59168">
        <ele>24.7</ele>
        <time>2021-09-11T13:55:58.082Z</time>
      </trkpt>
      <trkpt lat="50.45333" lon="3.59183">
        <ele>25</ele>
        <time>2021-09-11T13:56:04.193Z</time>
      </trkpt>
      <trkpt lat="50.45323" lon="3.5921">
        <ele>25</ele>
        <time>2021-09-11T13:56:11.515Z</time>
      </trkpt>
      <trkpt lat="50.45315" lon="3.59236">
        <ele>25</ele>
        <time>2021-09-11T13:56:18.284Z</time>
      </trkpt>
      <trkpt lat="50.45315" lon="3.59248">
        <ele>25</ele>
        <time>2021-09-11T13:56:21.097Z</time>
      </trkpt>
      <trkpt lat="50.4532" lon="3.59249">
        <ele>25</ele>
        <time>2021-09-11T13:56:22.952Z</time>
      </trkpt>
      <trkpt lat="50.45321" lon="3.59282">
        <ele>24.4</ele>
        <time>2021-09-11T13:56:26.484Z</time>
      </trkpt>
      <trkpt lat="50.45325" lon="3.5931">
        <ele>23.6</ele>
        <time>2021-09-11T13:56:29.122Z</time>
      </trkpt>
      <trkpt lat="50.45317" lon="3.59358">
        <ele>22.1</ele>
        <time>2021-09-11T13:56:33.535Z</time>
      </trkpt>
      <trkpt lat="50.45308" lon="3.59443">
        <ele>20</ele>
        <time>2021-09-11T13:56:41.878Z</time>
      </trkpt>
      <trkpt lat="50.45308" lon="3.59502">
        <ele>17.9</ele>
        <time>2021-09-11T13:56:46.760Z</time>
      </trkpt>
      <trkpt lat="50.45311" lon="3.59527">
        <ele>17</ele>
        <time>2021-09-11T13:56:48.871Z</time>
      </trkpt>
      <trkpt lat="50.45314" lon="3.59539">
        <ele>16.9</ele>
        <time>2021-09-11T13:56:50.540Z</time>
      </trkpt>
      <trkpt lat="50.4531" lon="3.59552">
        <ele>16.9</ele>
        <time>2021-09-11T13:56:53.924Z</time>
      </trkpt>
      <trkpt lat="50.45293" lon="3.59568">
        <ele>17.7</ele>
        <time>2021-09-11T13:57:05.501Z</time>
      </trkpt>
      <trkpt lat="50.45285" lon="3.59584">
        <ele>17.7</ele>
        <time>2021-09-11T13:57:10.270Z</time>
      </trkpt>
      <trkpt lat="50.45279" lon="3.59599">
        <ele>17.4</ele>
        <time>2021-09-11T13:57:12.204Z</time>
      </trkpt>
      <trkpt lat="50.45265" lon="3.59632">
        <ele>16.7</ele>
        <time>2021-09-11T13:57:16.479Z</time>
      </trkpt>
      <trkpt lat="50.45261" lon="3.59655">
        <ele>16.3</ele>
        <time>2021-09-11T13:57:19.088Z</time>
      </trkpt>
      <trkpt lat="50.45251" lon="3.59683">
        <ele>16</ele>
        <time>2021-09-11T13:57:23.115Z</time>
      </trkpt>
      <trkpt lat="50.4524" lon="3.59696">
        <ele>16.3</ele>
        <time>2021-09-11T13:57:29.447Z</time>
      </trkpt>
      <trkpt lat="50.45221" lon="3.59721">
        <ele>16.1</ele>
        <time>2021-09-11T13:57:34.769Z</time>
      </trkpt>
      <trkpt lat="50.45199" lon="3.59736">
        <ele>16.4</ele>
        <time>2021-09-11T13:57:44.742Z</time>
      </trkpt>
      <trkpt lat="50.45188" lon="3.59741">
        <ele>16.3</ele>
        <time>2021-09-11T13:57:47.179Z</time>
      </trkpt>
      <trkpt lat="50.4518" lon="3.5975">
        <ele>16</ele>
        <time>2021-09-11T13:57:48.797Z</time>
      </trkpt>
      <trkpt lat="50.45159" lon="3.59772">
        <ele>16.1</ele>
        <time>2021-09-11T13:57:58.441Z</time>
      </trkpt>
      <trkpt lat="50.45151" lon="3.59775">
        <ele>16.1</ele>
        <time>2021-09-11T13:58:01.469Z</time>
      </trkpt>
      <trkpt lat="50.45127" lon="3.59796">
        <ele>16.4</ele>
        <time>2021-09-11T13:58:12.708Z</time>
      </trkpt>
      <trkpt lat="50.45103" lon="3.59816">
        <ele>16.7</ele>
        <time>2021-09-11T13:58:23.836Z</time>
      </trkpt>
      <trkpt lat="50.45091" lon="3.59818">
        <ele>16.9</ele>
        <time>2021-09-11T13:58:29.074Z</time>
      </trkpt>
      <trkpt lat="50.45085" lon="3.59818">
        <ele>17</ele>
        <time>2021-09-11T13:58:31.681Z</time>
      </trkpt>
      <trkpt lat="50.45066" lon="3.59838">
        <ele>17</ele>
        <time>2021-09-11T13:58:40.102Z</time>
      </trkpt>
      <trkpt lat="50.45054" lon="3.59847">
        <ele>17.5</ele>
        <time>2021-09-11T13:58:47.570Z</time>
      </trkpt>
      <trkpt lat="50.45037" lon="3.59859">
        <ele>17.9</ele>
        <time>2021-09-11T13:58:56.110Z</time>
      </trkpt>
      <trkpt lat="50.45033" lon="3.59873">
        <ele>17.6</ele>
        <time>2021-09-11T13:58:57.714Z</time>
      </trkpt>
      <trkpt lat="50.45029" lon="3.59895">
        <ele>17</ele>
        <time>2021-09-11T13:58:59.869Z</time>
      </trkpt>
      <trkpt lat="50.45023" lon="3.59935">
        <ele>17</ele>
        <time>2021-09-11T13:59:09.502Z</time>
      </trkpt>
      <trkpt lat="50.4502" lon="3.59948">
        <ele>17</ele>
        <time>2021-09-11T13:59:12.744Z</time>
      </trkpt>
      <trkpt lat="50.45025" lon="3.59959">
        <ele>17</ele>
        <time>2021-09-11T13:59:15.912Z</time>
      </trkpt>
      <trkpt lat="50.45038" lon="3.59973">
        <ele>17</ele>
        <time>2021-09-11T13:59:21.715Z</time>
      </trkpt>
      <trkpt lat="50.45044" lon="3.59988">
        <ele>17</ele>
        <time>2021-09-11T13:59:25.868Z</time>
      </trkpt>
      <trkpt lat="50.45052" lon="3.60026">
        <ele>17</ele>
        <time>2021-09-11T13:59:35.251Z</time>
      </trkpt>
      <trkpt lat="50.45071" lon="3.60047">
        <ele>16.7</ele>
        <time>2021-09-11T13:59:39.930Z</time>
      </trkpt>
      <trkpt lat="50.45089" lon="3.60055">
        <ele>17</ele>
        <time>2021-09-11T13:59:48.003Z</time>
      </trkpt>
      <trkpt lat="50.45105" lon="3.60064">
        <ele>17</ele>
        <time>2021-09-11T13:59:54.260Z</time>
      </trkpt>
      <trkpt lat="50.45136" lon="3.6005">
        <ele>17</ele>
        <time>2021-09-11T14:00:06.136Z</time>
      </trkpt>
      <trkpt lat="50.45142" lon="3.60041">
        <ele>17</ele>
        <time>2021-09-11T14:00:09.191Z</time>
      </trkpt>
      <trkpt lat="50.45149" lon="3.60019">
        <ele>17</ele>
        <time>2021-09-11T14:00:14.956Z</time>
      </trkpt>
      <trkpt lat="50.45146" lon="3.60002">
        <ele>17</ele>
        <time>2021-09-11T14:00:19.091Z</time>
      </trkpt>
      <trkpt lat="50.45125" lon="3.59993">
        <ele>16.7</ele>
        <time>2021-09-11T14:00:23.428Z</time>
      </trkpt>
      <trkpt lat="50.45115" lon="3.6">
        <ele>17</ele>
        <time>2021-09-11T14:00:28.809Z</time>
      </trkpt>
      <trkpt lat="50.4509" lon="3.60003">
        <ele>17</ele>
        <time>2021-09-11T14:00:38.040Z</time>
      </trkpt>
      <trkpt lat="50.45078" lon="3.60002">
        <ele>17</ele>
        <time>2021-09-11T14:00:42.464Z</time>
      </trkpt>
      <trkpt lat="50.45064" lon="3.6">
        <ele>17</ele>
        <time>2021-09-11T14:00:47.640Z</time>
      </trkpt>
      <trkpt lat="50.45057" lon="3.6">
        <ele>17</ele>
        <time>2021-09-11T14:00:50.217Z</time>
      </trkpt>
      <trkpt lat="50.4505" lon="3.6">
        <ele>17</ele>
        <time>2021-09-11T14:00:52.794Z</time>
      </trkpt>
      <trkpt lat="50.45046" lon="3.59993">
        <ele>17</ele>
        <time>2021-09-11T14:00:54.999Z</time>
      </trkpt>
      <trkpt lat="50.45044" lon="3.59984">
        <ele>17</ele>
        <time>2021-09-11T14:00:57.233Z</time>
      </trkpt>
      <trkpt lat="50.45041" lon="3.59978">
        <ele>17</ele>
        <time>2021-09-11T14:00:59.022Z</time>
      </trkpt>
      <trkpt lat="50.45038" lon="3.59973">
        <ele>17</ele>
        <time>2021-09-11T14:01:00.632Z</time>
      </trkpt>
      <trkpt lat="50.45031" lon="3.59965">
        <ele>17</ele>
        <time>2021-09-11T14:01:03.820Z</time>
      </trkpt>
      <trkpt lat="50.45028" lon="3.59959">
        <ele>17</ele>
        <time>2021-09-11T14:01:05.608Z</time>
      </trkpt>
      <trkpt lat="50.45025" lon="3.59952">
        <ele>17</ele>
        <time>2021-09-11T14:01:07.586Z</time>
      </trkpt>
      <trkpt lat="50.45021" lon="3.5994">
        <ele>17</ele>
        <time>2021-09-11T14:01:10.761Z</time>
      </trkpt>
      <trkpt lat="50.45019" lon="3.59927">
        <ele>17</ele>
        <time>2021-09-11T14:01:13.897Z</time>
      </trkpt>
      <trkpt lat="50.45013" lon="3.59909">
        <ele>17.1</ele>
        <time>2021-09-11T14:01:19.022Z</time>
      </trkpt>
      <trkpt lat="50.45011" lon="3.599">
        <ele>17.4</ele>
        <time>2021-09-11T14:01:22.915Z</time>
      </trkpt>
      <trkpt lat="50.45008" lon="3.59893">
        <ele>17.6</ele>
        <time>2021-09-11T14:01:25.917Z</time>
      </trkpt>
      <trkpt lat="50.45003" lon="3.59881">
        <ele>17.9</ele>
        <time>2021-09-11T14:01:30.726Z</time>
      </trkpt>
      <trkpt lat="50.44997" lon="3.59877">
        <ele>18.1</ele>
        <time>2021-09-11T14:01:34.064Z</time>
      </trkpt>
      <trkpt lat="50.44992" lon="3.59878">
        <ele>18.3</ele>
        <time>2021-09-11T14:01:36.979Z</time>
      </trkpt>
      <trkpt lat="50.44985" lon="3.59879">
        <ele>18.5</ele>
        <time>2021-09-11T14:01:40.479Z</time>
      </trkpt>
      <trkpt lat="50.4498" lon="3.59881">
        <ele>18.7</ele>
        <time>2021-09-11T14:01:43.424Z</time>
      </trkpt>
      <trkpt lat="50.44976" lon="3.59883">
        <ele>18.9</ele>
        <time>2021-09-11T14:01:46.086Z</time>
      </trkpt>
      <trkpt lat="50.44969" lon="3.59886">
        <ele>19</ele>
        <time>2021-09-11T14:01:49.143Z</time>
      </trkpt>
      <trkpt lat="50.44964" lon="3.5989">
        <ele>19</ele>
        <time>2021-09-11T14:01:51.209Z</time>
      </trkpt>
      <trkpt lat="50.44962" lon="3.59897">
        <ele>18.8</ele>
        <time>2021-09-11T14:01:51.933Z</time>
      </trkpt>
      <trkpt lat="50.44962" lon="3.59909">
        <ele>18.5</ele>
        <time>2021-09-11T14:01:53.084Z</time>
      </trkpt>
      <trkpt lat="50.44961" lon="3.5992">
        <ele>18.4</ele>
        <time>2021-09-11T14:01:54.487Z</time>
      </trkpt>
      <trkpt lat="50.44962" lon="3.59936">
        <ele>18.4</ele>
        <time>2021-09-11T14:01:58.256Z</time>
      </trkpt>
      <trkpt lat="50.44962" lon="3.59947">
        <ele>18.4</ele>
        <time>2021-09-11T14:02:00.835Z</time>
      </trkpt>
      <trkpt lat="50.44962" lon="3.59955">
        <ele>18.4</ele>
        <time>2021-09-11T14:02:02.710Z</time>
      </trkpt>
      <trkpt lat="50.44963" lon="3.59968">
        <ele>18.3</ele>
        <time>2021-09-11T14:02:04.410Z</time>
      </trkpt>
      <trkpt lat="50.44962" lon="3.59976">
        <ele>18.4</ele>
        <time>2021-09-11T14:02:06.731Z</time>
      </trkpt>
      <trkpt lat="50.44963" lon="3.59993">
        <ele>18.3</ele>
        <time>2021-09-11T14:02:09.029Z</time>
      </trkpt>
      <trkpt lat="50.44967" lon="3.60008">
        <ele>18.4</ele>
        <time>2021-09-11T14:02:13.212Z</time>
      </trkpt>
      <trkpt lat="50.44968" lon="3.60026">
        <ele>18.9</ele>
        <time>2021-09-11T14:02:20.249Z</time>
      </trkpt>
      <trkpt lat="50.44968" lon="3.60042">
        <ele>19</ele>
        <time>2021-09-11T14:02:24.370Z</time>
      </trkpt>
      <trkpt lat="50.44969" lon="3.60057">
        <ele>19</ele>
        <time>2021-09-11T14:02:27.906Z</time>
      </trkpt>
      <trkpt lat="50.44969" lon="3.60066">
        <ele>18.7</ele>
        <time>2021-09-11T14:02:28.673Z</time>
      </trkpt>
      <trkpt lat="50.44969" lon="3.60082">
        <ele>18.2</ele>
        <time>2021-09-11T14:02:30.076Z</time>
      </trkpt>
      <trkpt lat="50.44969" lon="3.6009">
        <ele>18.1</ele>
        <time>2021-09-11T14:02:31.021Z</time>
      </trkpt>
      <trkpt lat="50.4497" lon="3.60105">
        <ele>18.1</ele>
        <time>2021-09-11T14:02:34.557Z</time>
      </trkpt>
      <trkpt lat="50.4497" lon="3.60114">
        <ele>18.1</ele>
        <time>2021-09-11T14:02:36.667Z</time>
      </trkpt>
      <trkpt lat="50.44971" lon="3.60123">
        <ele>18</ele>
        <time>2021-09-11T14:02:37.777Z</time>
      </trkpt>
      <trkpt lat="50.44971" lon="3.6014">
        <ele>18</ele>
        <time>2021-09-11T14:02:41.763Z</time>
      </trkpt>
      <trkpt lat="50.44971" lon="3.60148">
        <ele>18</ele>
        <time>2021-09-11T14:02:43.638Z</time>
      </trkpt>
      <trkpt lat="50.44973" lon="3.60166">
        <ele>18</ele>
        <time>2021-09-11T14:02:47.922Z</time>
      </trkpt>
      <trkpt lat="50.44973" lon="3.60175">
        <ele>18</ele>
        <time>2021-09-11T14:02:50.032Z</time>
      </trkpt>
      <trkpt lat="50.44972" lon="3.60192">
        <ele>18</ele>
        <time>2021-09-11T14:02:54.034Z</time>
      </trkpt>
      <trkpt lat="50.44972" lon="3.60208">
        <ele>18</ele>
        <time>2021-09-11T14:02:57.785Z</time>
      </trkpt>
      <trkpt lat="50.44972" lon="3.60217">
        <ele>18</ele>
        <time>2021-09-11T14:02:59.895Z</time>
      </trkpt>
      <trkpt lat="50.44972" lon="3.60233">
        <ele>18</ele>
        <time>2021-09-11T14:03:03.645Z</time>
      </trkpt>
      <trkpt lat="50.44973" lon="3.60241">
        <ele>18</ele>
        <time>2021-09-11T14:03:05.557Z</time>
      </trkpt>
      <trkpt lat="50.44973" lon="3.60258">
        <ele>17.7</ele>
        <time>2021-09-11T14:03:07.390Z</time>
      </trkpt>
      <trkpt lat="50.44974" lon="3.60266">
        <ele>17.4</ele>
        <time>2021-09-11T14:03:08.054Z</time>
      </trkpt>
      <trkpt lat="50.44976" lon="3.60282">
        <ele>17</ele>
        <time>2021-09-11T14:03:09.629Z</time>
      </trkpt>
      <trkpt lat="50.44977" lon="3.6029">
        <ele>17</ele>
        <time>2021-09-11T14:03:11.541Z</time>
      </trkpt>
      <trkpt lat="50.44978" lon="3.60307">
        <ele>17</ele>
        <time>2021-09-11T14:03:15.543Z</time>
      </trkpt>
      <trkpt lat="50.44978" lon="3.60315">
        <ele>17</ele>
        <time>2021-09-11T14:03:17.418Z</time>
      </trkpt>
      <trkpt lat="50.44977" lon="3.60332">
        <ele>17</ele>
        <time>2021-09-11T14:03:21.421Z</time>
      </trkpt>
      <trkpt lat="50.44977" lon="3.6034">
        <ele>17</ele>
        <time>2021-09-11T14:03:23.296Z</time>
      </trkpt>
      <trkpt lat="50.44977" lon="3.60356">
        <ele>17</ele>
        <time>2021-09-11T14:03:27.047Z</time>
      </trkpt>
      <trkpt lat="50.44977" lon="3.60376">
        <ele>16.9</ele>
        <time>2021-09-11T14:03:29.789Z</time>
      </trkpt>
      <trkpt lat="50.44978" lon="3.60396">
        <ele>16.8</ele>
        <time>2021-09-11T14:03:32.541Z</time>
      </trkpt>
      <trkpt lat="50.44979" lon="3.60409">
        <ele>16.8</ele>
        <time>2021-09-11T14:03:35.611Z</time>
      </trkpt>
      <trkpt lat="50.4498" lon="3.60421">
        <ele>16.7</ele>
        <time>2021-09-11T14:03:37.162Z</time>
      </trkpt>
      <trkpt lat="50.4498" lon="3.60438">
        <ele>16.7</ele>
        <time>2021-09-11T14:03:41.147Z</time>
      </trkpt>
      <trkpt lat="50.44979" lon="3.60447">
        <ele>16.8</ele>
        <time>2021-09-11T14:03:43.689Z</time>
      </trkpt>
      <trkpt lat="50.44979" lon="3.60454">
        <ele>16.8</ele>
        <time>2021-09-11T14:03:45.330Z</time>
      </trkpt>
      <trkpt lat="50.44977" lon="3.60467">
        <ele>16.8</ele>
        <time>2021-09-11T14:03:48.466Z</time>
      </trkpt>
      <trkpt lat="50.44977" lon="3.60481">
        <ele>16.8</ele>
        <time>2021-09-11T14:03:51.748Z</time>
      </trkpt>
      <trkpt lat="50.44978" lon="3.60491">
        <ele>16.8</ele>
        <time>2021-09-11T14:03:54.121Z</time>
      </trkpt>
      <trkpt lat="50.44979" lon="3.60503">
        <ele>16.7</ele>
        <time>2021-09-11T14:03:55.672Z</time>
      </trkpt>
      <trkpt lat="50.4498" lon="3.60519">
        <ele>16.5</ele>
        <time>2021-09-11T14:03:57.572Z</time>
      </trkpt>
      <trkpt lat="50.44981" lon="3.60527">
        <ele>16.4</ele>
        <time>2021-09-11T14:03:58.540Z</time>
      </trkpt>
      <trkpt lat="50.44981" lon="3.60544">
        <ele>16</ele>
        <time>2021-09-11T14:04:00.207Z</time>
      </trkpt>
      <trkpt lat="50.44981" lon="3.60561">
        <ele>15.5</ele>
        <time>2021-09-11T14:04:01.736Z</time>
      </trkpt>
      <trkpt lat="50.44981" lon="3.6057">
        <ele>15.3</ele>
        <time>2021-09-11T14:04:02.637Z</time>
      </trkpt>
      <trkpt lat="50.44981" lon="3.60579">
        <ele>15.1</ele>
        <time>2021-09-11T14:04:03.538Z</time>
      </trkpt>
      <trkpt lat="50.44981" lon="3.60588">
        <ele>15</ele>
        <time>2021-09-11T14:04:04.629Z</time>
      </trkpt>
      <trkpt lat="50.44981" lon="3.60604">
        <ele>15</ele>
        <time>2021-09-11T14:04:08.380Z</time>
      </trkpt>
      <trkpt lat="50.44981" lon="3.6062">
        <ele>14.7</ele>
        <time>2021-09-11T14:04:10.074Z</time>
      </trkpt>
      <trkpt lat="50.44981" lon="3.60635">
        <ele>14.1</ele>
        <time>2021-09-11T14:04:11.248Z</time>
      </trkpt>
      <trkpt lat="50.44981" lon="3.60643">
        <ele>14</ele>
        <time>2021-09-11T14:04:12.193Z</time>
      </trkpt>
      <trkpt lat="50.44981" lon="3.60651">
        <ele>14</ele>
        <time>2021-09-11T14:04:14.068Z</time>
      </trkpt>
      <trkpt lat="50.44981" lon="3.60667">
        <ele>14</ele>
        <time>2021-09-11T14:04:17.819Z</time>
      </trkpt>
      <trkpt lat="50.44982" lon="3.60681">
        <ele>14</ele>
        <time>2021-09-11T14:04:21.122Z</time>
      </trkpt>
      <trkpt lat="50.44982" lon="3.6069">
        <ele>14</ele>
        <time>2021-09-11T14:04:23.232Z</time>
      </trkpt>
      <trkpt lat="50.44982" lon="3.60699">
        <ele>14</ele>
        <time>2021-09-11T14:04:25.342Z</time>
      </trkpt>
      <trkpt lat="50.44982" lon="3.6071">
        <ele>14</ele>
        <time>2021-09-11T14:04:27.920Z</time>
      </trkpt>
      <trkpt lat="50.44981" lon="3.60724">
        <ele>14</ele>
        <time>2021-09-11T14:04:31.223Z</time>
      </trkpt>
      <trkpt lat="50.44981" lon="3.60737">
        <ele>14</ele>
        <time>2021-09-11T14:04:34.270Z</time>
      </trkpt>
      <trkpt lat="50.44977" lon="3.60747">
        <ele>14</ele>
        <time>2021-09-11T14:04:37.039Z</time>
      </trkpt>
      <trkpt lat="50.44974" lon="3.60764">
        <ele>14.5</ele>
        <time>2021-09-11T14:04:44.019Z</time>
      </trkpt>
      <trkpt lat="50.44974" lon="3.60773">
        <ele>14.8</ele>
        <time>2021-09-11T14:04:47.766Z</time>
      </trkpt>
      <trkpt lat="50.44976" lon="3.6078">
        <ele>14.9</ele>
        <time>2021-09-11T14:04:49.980Z</time>
      </trkpt>
      <trkpt lat="50.44977" lon="3.60788">
        <ele>14.8</ele>
        <time>2021-09-11T14:04:50.947Z</time>
      </trkpt>
      <trkpt lat="50.44975" lon="3.60799">
        <ele>14.9</ele>
        <time>2021-09-11T14:04:54.014Z</time>
      </trkpt>
      <trkpt lat="50.44974" lon="3.6081">
        <ele>15.1</ele>
        <time>2021-09-11T14:04:57.529Z</time>
      </trkpt>
      <trkpt lat="50.44973" lon="3.60821">
        <ele>15.5</ele>
        <time>2021-09-11T14:05:02.288Z</time>
      </trkpt>
      <trkpt lat="50.44974" lon="3.60836">
        <ele>16</ele>
        <time>2021-09-11T14:05:08.555Z</time>
      </trkpt>
      <trkpt lat="50.44974" lon="3.60843">
        <ele>16.3</ele>
        <time>2021-09-11T14:05:11.791Z</time>
      </trkpt>
      <trkpt lat="50.44974" lon="3.6085">
        <ele>16.5</ele>
        <time>2021-09-11T14:05:14.567Z</time>
      </trkpt>
      <trkpt lat="50.44974" lon="3.60864">
        <ele>17</ele>
        <time>2021-09-11T14:05:20.545Z</time>
      </trkpt>
      <trkpt lat="50.44974" lon="3.60873">
        <ele>17.3</ele>
        <time>2021-09-11T14:05:24.291Z</time>
      </trkpt>
      <trkpt lat="50.44975" lon="3.6089">
        <ele>17.8</ele>
        <time>2021-09-11T14:05:31.111Z</time>
      </trkpt>
      <trkpt lat="50.44976" lon="3.60905">
        <ele>17.7</ele>
        <time>2021-09-11T14:05:33.109Z</time>
      </trkpt>
      <trkpt lat="50.44977" lon="3.60917">
        <ele>17.6</ele>
        <time>2021-09-11T14:05:34.660Z</time>
      </trkpt>
      <trkpt lat="50.44977" lon="3.60932">
        <ele>17.1</ele>
        <time>2021-09-11T14:05:35.939Z</time>
      </trkpt>
      <trkpt lat="50.44978" lon="3.60939">
        <ele>16.8</ele>
        <time>2021-09-11T14:05:36.488Z</time>
      </trkpt>
      <trkpt lat="50.44978" lon="3.60947">
        <ele>16.6</ele>
        <time>2021-09-11T14:05:37.255Z</time>
      </trkpt>
      <trkpt lat="50.44977" lon="3.60955">
        <ele>16.7</ele>
        <time>2021-09-11T14:05:39.576Z</time>
      </trkpt>
      <trkpt lat="50.44978" lon="3.60966">
        <ele>16.6</ele>
        <time>2021-09-11T14:05:40.979Z</time>
      </trkpt>
      <trkpt lat="50.44978" lon="3.60977">
        <ele>16.4</ele>
        <time>2021-09-11T14:05:42.155Z</time>
      </trkpt>
      <trkpt lat="50.44978" lon="3.60988">
        <ele>16.1</ele>
        <time>2021-09-11T14:05:43.175Z</time>
      </trkpt>
      <trkpt lat="50.44977" lon="3.60998">
        <ele>15.9</ele>
        <time>2021-09-11T14:05:44.229Z</time>
      </trkpt>
      <trkpt lat="50.44977" lon="3.61008">
        <ele>15.8</ele>
        <time>2021-09-11T14:05:45.467Z</time>
      </trkpt>
      <trkpt lat="50.44977" lon="3.61025">
        <ele>15.8</ele>
        <time>2021-09-11T14:05:49.453Z</time>
      </trkpt>
      <trkpt lat="50.44977" lon="3.61033">
        <ele>15.8</ele>
        <time>2021-09-11T14:05:51.328Z</time>
      </trkpt>
      <trkpt lat="50.44976" lon="3.61046">
        <ele>15.9</ele>
        <time>2021-09-11T14:05:54.777Z</time>
      </trkpt>
      <trkpt lat="50.44975" lon="3.61054">
        <ele>15.9</ele>
        <time>2021-09-11T14:05:56.688Z</time>
      </trkpt>
      <trkpt lat="50.44976" lon="3.61062">
        <ele>15.9</ele>
        <time>2021-09-11T14:05:58.599Z</time>
      </trkpt>
      <trkpt lat="50.44977" lon="3.61075">
        <ele>15.8</ele>
        <time>2021-09-11T14:06:00.299Z</time>
      </trkpt>
      <trkpt lat="50.4498" lon="3.61089">
        <ele>15.7</ele>
        <time>2021-09-11T14:06:02.250Z</time>
      </trkpt>
      <trkpt lat="50.44978" lon="3.61103">
        <ele>15.8</ele>
        <time>2021-09-11T14:06:05.988Z</time>
      </trkpt>
      <trkpt lat="50.44977" lon="3.61111">
        <ele>15.8</ele>
        <time>2021-09-11T14:06:07.900Z</time>
      </trkpt>
      <trkpt lat="50.44977" lon="3.61119">
        <ele>15.8</ele>
        <time>2021-09-11T14:06:09.775Z</time>
      </trkpt>
      <trkpt lat="50.44977" lon="3.61127">
        <ele>15.8</ele>
        <time>2021-09-11T14:06:11.651Z</time>
      </trkpt>
      <trkpt lat="50.44978" lon="3.61135">
        <ele>15.8</ele>
        <time>2021-09-11T14:06:13.562Z</time>
      </trkpt>
      <trkpt lat="50.44979" lon="3.61149">
        <ele>15.8</ele>
        <time>2021-09-11T14:06:16.864Z</time>
      </trkpt>
      <trkpt lat="50.44979" lon="3.61163">
        <ele>15.8</ele>
        <time>2021-09-11T14:06:20.146Z</time>
      </trkpt>
      <trkpt lat="50.44978" lon="3.6117">
        <ele>15.7</ele>
        <time>2021-09-11T14:06:20.972Z</time>
      </trkpt>
      <trkpt lat="50.44976" lon="3.61184">
        <ele>15.3</ele>
        <time>2021-09-11T14:06:22.291Z</time>
      </trkpt>
      <trkpt lat="50.44976" lon="3.61197">
        <ele>15</ele>
        <time>2021-09-11T14:06:23.575Z</time>
      </trkpt>
      <trkpt lat="50.44977" lon="3.61212">
        <ele>15</ele>
        <time>2021-09-11T14:06:27.111Z</time>
      </trkpt>
      <trkpt lat="50.44977" lon="3.61226">
        <ele>15</ele>
        <time>2021-09-11T14:06:30.393Z</time>
      </trkpt>
      <trkpt lat="50.44977" lon="3.6124">
        <ele>15</ele>
        <time>2021-09-11T14:06:33.675Z</time>
      </trkpt>
      <trkpt lat="50.44977" lon="3.61255">
        <ele>15</ele>
        <time>2021-09-11T14:06:37.191Z</time>
      </trkpt>
      <trkpt lat="50.44978" lon="3.61268">
        <ele>15</ele>
        <time>2021-09-11T14:06:40.261Z</time>
      </trkpt>
      <trkpt lat="50.44979" lon="3.61275">
        <ele>15</ele>
        <time>2021-09-11T14:06:41.943Z</time>
      </trkpt>
      <trkpt lat="50.44979" lon="3.61289">
        <ele>15</ele>
        <time>2021-09-11T14:06:45.225Z</time>
      </trkpt>
      <trkpt lat="50.4498" lon="3.61298">
        <ele>15</ele>
        <time>2021-09-11T14:06:47.366Z</time>
      </trkpt>
      <trkpt lat="50.4498" lon="3.6131">
        <ele>15.1</ele>
        <time>2021-09-11T14:06:50.563Z</time>
      </trkpt>
      <trkpt lat="50.4498" lon="3.61318">
        <ele>15.3</ele>
        <time>2021-09-11T14:06:53.491Z</time>
      </trkpt>
      <trkpt lat="50.44981" lon="3.61339">
        <ele>15.7</ele>
        <time>2021-09-11T14:07:00.284Z</time>
      </trkpt>
      <trkpt lat="50.44981" lon="3.61353">
        <ele>15.7</ele>
        <time>2021-09-11T14:07:03.566Z</time>
      </trkpt>
      <trkpt lat="50.44982" lon="3.61369">
        <ele>15.6</ele>
        <time>2021-09-11T14:07:05.715Z</time>
      </trkpt>
      <trkpt lat="50.44982" lon="3.61378">
        <ele>15.6</ele>
        <time>2021-09-11T14:07:07.824Z</time>
      </trkpt>
      <trkpt lat="50.44982" lon="3.6139">
        <ele>15.6</ele>
        <time>2021-09-11T14:07:10.638Z</time>
      </trkpt>
      <trkpt lat="50.44983" lon="3.61398">
        <ele>15.4</ele>
        <time>2021-09-11T14:07:11.425Z</time>
      </trkpt>
      <trkpt lat="50.44983" lon="3.61405">
        <ele>15.3</ele>
        <time>2021-09-11T14:07:12.225Z</time>
      </trkpt>
      <trkpt lat="50.44983" lon="3.61412">
        <ele>15.1</ele>
        <time>2021-09-11T14:07:12.863Z</time>
      </trkpt>
      <trkpt lat="50.44983" lon="3.6143">
        <ele>15</ele>
        <time>2021-09-11T14:07:15.302Z</time>
      </trkpt>
      <trkpt lat="50.44983" lon="3.61438">
        <ele>15</ele>
        <time>2021-09-11T14:07:17.177Z</time>
      </trkpt>
      <trkpt lat="50.44981" lon="3.6145">
        <ele>15</ele>
        <time>2021-09-11T14:07:20.085Z</time>
      </trkpt>
      <trkpt lat="50.44979" lon="3.61458">
        <ele>15</ele>
        <time>2021-09-11T14:07:22.100Z</time>
      </trkpt>
      <trkpt lat="50.44979" lon="3.61471">
        <ele>15</ele>
        <time>2021-09-11T14:07:25.148Z</time>
      </trkpt>
      <trkpt lat="50.4498" lon="3.61484">
        <ele>15</ele>
        <time>2021-09-11T14:07:28.217Z</time>
      </trkpt>
      <trkpt lat="50.44981" lon="3.61491">
        <ele>15</ele>
        <time>2021-09-11T14:07:29.899Z</time>
      </trkpt>
      <trkpt lat="50.44983" lon="3.61504">
        <ele>15</ele>
        <time>2021-09-11T14:07:33.035Z</time>
      </trkpt>
      <trkpt lat="50.44983" lon="3.61518">
        <ele>15</ele>
        <time>2021-09-11T14:07:36.317Z</time>
      </trkpt>
      <trkpt lat="50.44983" lon="3.61531">
        <ele>15.1</ele>
        <time>2021-09-11T14:07:39.743Z</time>
      </trkpt>
      <trkpt lat="50.44984" lon="3.61538">
        <ele>15.2</ele>
        <time>2021-09-11T14:07:41.847Z</time>
      </trkpt>
      <trkpt lat="50.44984" lon="3.61546">
        <ele>15.4</ele>
        <time>2021-09-11T14:07:44.776Z</time>
      </trkpt>
      <trkpt lat="50.44985" lon="3.61559">
        <ele>15.6</ele>
        <time>2021-09-11T14:07:48.710Z</time>
      </trkpt>
      <trkpt lat="50.44985" lon="3.61579">
        <ele>15.9</ele>
        <time>2021-09-11T14:07:54.688Z</time>
      </trkpt>
      <trkpt lat="50.44985" lon="3.61599">
        <ele>16</ele>
        <time>2021-09-11T14:07:59.740Z</time>
      </trkpt>
      <trkpt lat="50.44985" lon="3.61608">
        <ele>16</ele>
        <time>2021-09-11T14:08:01.850Z</time>
      </trkpt>
      <trkpt lat="50.44985" lon="3.61619">
        <ele>16</ele>
        <time>2021-09-11T14:08:04.429Z</time>
      </trkpt>
      <trkpt lat="50.44985" lon="3.61632">
        <ele>16</ele>
        <time>2021-09-11T14:08:07.476Z</time>
      </trkpt>
      <trkpt lat="50.44985" lon="3.61639">
        <ele>16</ele>
        <time>2021-09-11T14:08:09.117Z</time>
      </trkpt>
      <trkpt lat="50.44985" lon="3.61653">
        <ele>16</ele>
        <time>2021-09-11T14:08:12.399Z</time>
      </trkpt>
      <trkpt lat="50.44985" lon="3.61665">
        <ele>16</ele>
        <time>2021-09-11T14:08:15.213Z</time>
      </trkpt>
      <trkpt lat="50.44985" lon="3.6168">
        <ele>16</ele>
        <time>2021-09-11T14:08:18.729Z</time>
      </trkpt>
      <trkpt lat="50.44986" lon="3.61688">
        <ele>16</ele>
        <time>2021-09-11T14:08:20.640Z</time>
      </trkpt>
      <trkpt lat="50.44987" lon="3.61698">
        <ele>16</ele>
        <time>2021-09-11T14:08:23.013Z</time>
      </trkpt>
      <trkpt lat="50.44986" lon="3.61707">
        <ele>16</ele>
        <time>2021-09-11T14:08:25.155Z</time>
      </trkpt>
      <trkpt lat="50.44985" lon="3.61721">
        <ele>16</ele>
        <time>2021-09-11T14:08:28.458Z</time>
      </trkpt>
      <trkpt lat="50.44986" lon="3.61736">
        <ele>16.5</ele>
        <time>2021-09-11T14:08:34.725Z</time>
      </trkpt>
      <trkpt lat="50.44986" lon="3.61747">
        <ele>16.9</ele>
        <time>2021-09-11T14:08:39.454Z</time>
      </trkpt>
      <trkpt lat="50.44986" lon="3.61754">
        <ele>17</ele>
        <time>2021-09-11T14:08:41.519Z</time>
      </trkpt>
      <trkpt lat="50.44986" lon="3.61764">
        <ele>17</ele>
        <time>2021-09-11T14:08:43.864Z</time>
      </trkpt>
      <trkpt lat="50.44985" lon="3.61775">
        <ele>17</ele>
        <time>2021-09-11T14:08:46.469Z</time>
      </trkpt>
      <trkpt lat="50.44985" lon="3.61791">
        <ele>17</ele>
        <time>2021-09-11T14:08:50.219Z</time>
      </trkpt>
      <trkpt lat="50.44985" lon="3.61799">
        <ele>17</ele>
        <time>2021-09-11T14:08:52.095Z</time>
      </trkpt>
      <trkpt lat="50.44985" lon="3.61807">
        <ele>17</ele>
        <time>2021-09-11T14:08:53.970Z</time>
      </trkpt>
      <trkpt lat="50.44985" lon="3.61815">
        <ele>17</ele>
        <time>2021-09-11T14:08:55.846Z</time>
      </trkpt>
      <trkpt lat="50.44985" lon="3.61827">
        <ele>17</ele>
        <time>2021-09-11T14:08:58.659Z</time>
      </trkpt>
      <trkpt lat="50.44985" lon="3.61838">
        <ele>17</ele>
        <time>2021-09-11T14:09:01.238Z</time>
      </trkpt>
      <trkpt lat="50.44985" lon="3.61851">
        <ele>17</ele>
        <time>2021-09-11T14:09:04.285Z</time>
      </trkpt>
      <trkpt lat="50.44986" lon="3.61865">
        <ele>17</ele>
        <time>2021-09-11T14:09:07.588Z</time>
      </trkpt>
      <trkpt lat="50.44987" lon="3.61873">
        <ele>17</ele>
        <time>2021-09-11T14:09:09.499Z</time>
      </trkpt>
      <trkpt lat="50.44987" lon="3.61888">
        <ele>17</ele>
        <time>2021-09-11T14:09:13.015Z</time>
      </trkpt>
      <trkpt lat="50.44987" lon="3.61899">
        <ele>17</ele>
        <time>2021-09-11T14:09:15.594Z</time>
      </trkpt>
      <trkpt lat="50.44987" lon="3.61906">
        <ele>17</ele>
        <time>2021-09-11T14:09:17.235Z</time>
      </trkpt>
      <trkpt lat="50.44987" lon="3.61914">
        <ele>17</ele>
        <time>2021-09-11T14:09:19.111Z</time>
      </trkpt>
      <trkpt lat="50.44987" lon="3.61922">
        <ele>17</ele>
        <time>2021-09-11T14:09:20.986Z</time>
      </trkpt>
      <trkpt lat="50.44987" lon="3.61934">
        <ele>17</ele>
        <time>2021-09-11T14:09:23.799Z</time>
      </trkpt>
      <trkpt lat="50.44987" lon="3.61944">
        <ele>17</ele>
        <time>2021-09-11T14:09:26.143Z</time>
      </trkpt>
      <trkpt lat="50.44987" lon="3.61958">
        <ele>17.2</ele>
        <time>2021-09-11T14:09:30.274Z</time>
      </trkpt>
      <trkpt lat="50.44987" lon="3.6197">
        <ele>17.4</ele>
        <time>2021-09-11T14:09:33.975Z</time>
      </trkpt>
      <trkpt lat="50.44987" lon="3.61981">
        <ele>17.3</ele>
        <time>2021-09-11T14:09:35.361Z</time>
      </trkpt>
      <trkpt lat="50.44987" lon="3.61991">
        <ele>17.2</ele>
        <time>2021-09-11T14:09:36.600Z</time>
      </trkpt>
      <trkpt lat="50.44987" lon="3.61999">
        <ele>17</ele>
        <time>2021-09-11T14:09:37.367Z</time>
      </trkpt>
      <trkpt lat="50.44988" lon="3.62008">
        <ele>17</ele>
        <time>2021-09-11T14:09:39.509Z</time>
      </trkpt>
      <trkpt lat="50.44989" lon="3.62022">
        <ele>17</ele>
        <time>2021-09-11T14:09:42.811Z</time>
      </trkpt>
      <trkpt lat="50.44989" lon="3.62029">
        <ele>17</ele>
        <time>2021-09-11T14:09:44.452Z</time>
      </trkpt>
      <trkpt lat="50.4499" lon="3.62042">
        <ele>16.7</ele>
        <time>2021-09-11T14:09:45.749Z</time>
      </trkpt>
      <trkpt lat="50.4499" lon="3.62056">
        <ele>16.4</ele>
        <time>2021-09-11T14:09:47.168Z</time>
      </trkpt>
      <trkpt lat="50.4499" lon="3.62064">
        <ele>16.4</ele>
        <time>2021-09-11T14:09:49.044Z</time>
      </trkpt>
      <trkpt lat="50.4499" lon="3.62072">
        <ele>16.4</ele>
        <time>2021-09-11T14:09:50.919Z</time>
      </trkpt>
      <trkpt lat="50.44989" lon="3.62086">
        <ele>16.4</ele>
        <time>2021-09-11T14:09:54.222Z</time>
      </trkpt>
      <trkpt lat="50.44989" lon="3.62096">
        <ele>16.4</ele>
        <time>2021-09-11T14:09:56.566Z</time>
      </trkpt>
      <trkpt lat="50.44989" lon="3.62106">
        <ele>16.4</ele>
        <time>2021-09-11T14:09:58.910Z</time>
      </trkpt>
      <trkpt lat="50.44989" lon="3.62118">
        <ele>16.4</ele>
        <time>2021-09-11T14:10:01.723Z</time>
      </trkpt>
      <trkpt lat="50.44989" lon="3.62129">
        <ele>16.4</ele>
        <time>2021-09-11T14:10:04.302Z</time>
      </trkpt>
      <trkpt lat="50.4499" lon="3.62142">
        <ele>16.4</ele>
        <time>2021-09-11T14:10:07.372Z</time>
      </trkpt>
      <trkpt lat="50.44991" lon="3.62156">
        <ele>16.7</ele>
        <time>2021-09-11T14:10:12.133Z</time>
      </trkpt>
      <trkpt lat="50.44992" lon="3.62164">
        <ele>16.9</ele>
        <time>2021-09-11T14:10:15.086Z</time>
      </trkpt>
      <trkpt lat="50.44993" lon="3.62174">
        <ele>17</ele>
        <time>2021-09-11T14:10:17.852Z</time>
      </trkpt>
      <trkpt lat="50.44993" lon="3.62192">
        <ele>17</ele>
        <time>2021-09-11T14:10:22.072Z</time>
      </trkpt>
      <trkpt lat="50.44993" lon="3.62202">
        <ele>17</ele>
        <time>2021-09-11T14:10:24.416Z</time>
      </trkpt>
      <trkpt lat="50.44993" lon="3.6221">
        <ele>17</ele>
        <time>2021-09-11T14:10:26.292Z</time>
      </trkpt>
      <trkpt lat="50.44993" lon="3.62223">
        <ele>17</ele>
        <time>2021-09-11T14:10:29.339Z</time>
      </trkpt>
      <trkpt lat="50.44993" lon="3.62232">
        <ele>17</ele>
        <time>2021-09-11T14:10:31.449Z</time>
      </trkpt>
      <trkpt lat="50.44998" lon="3.62242">
        <ele>17</ele>
        <time>2021-09-11T14:10:34.430Z</time>
      </trkpt>
      <trkpt lat="50.45008" lon="3.6223">
        <ele>17</ele>
        <time>2021-09-11T14:10:39.063Z</time>
      </trkpt>
      <trkpt lat="50.45016" lon="3.62211">
        <ele>16.8</ele>
        <time>2021-09-11T14:10:41.952Z</time>
      </trkpt>
      <trkpt lat="50.45019" lon="3.62201">
        <ele>16.5</ele>
        <time>2021-09-11T14:10:42.980Z</time>
      </trkpt>
      <trkpt lat="50.45028" lon="3.62175">
        <ele>16.7</ele>
        <time>2021-09-11T14:10:50.664Z</time>
      </trkpt>
      <trkpt lat="50.45031" lon="3.62168">
        <ele>16.8</ele>
        <time>2021-09-11T14:10:53.049Z</time>
      </trkpt>
      <trkpt lat="50.45039" lon="3.62156">
        <ele>16.4</ele>
        <time>2021-09-11T14:10:54.766Z</time>
      </trkpt>
      <trkpt lat="50.45049" lon="3.62138">
        <ele>16</ele>
        <time>2021-09-11T14:10:57.382Z</time>
      </trkpt>
      <trkpt lat="50.45064" lon="3.62114">
        <ele>16</ele>
        <time>2021-09-11T14:11:05.266Z</time>
      </trkpt>
      <trkpt lat="50.45075" lon="3.62096">
        <ele>16.4</ele>
        <time>2021-09-11T14:11:12.868Z</time>
      </trkpt>
      <trkpt lat="50.45104" lon="3.62066">
        <ele>16.7</ele>
        <time>2021-09-11T14:11:26.751Z</time>
      </trkpt>
      <trkpt lat="50.45127" lon="3.62055">
        <ele>17</ele>
        <time>2021-09-11T14:11:36.745Z</time>
      </trkpt>
      <trkpt lat="50.45143" lon="3.62027">
        <ele>16.9</ele>
        <time>2021-09-11T14:11:45.035Z</time>
      </trkpt>
      <trkpt lat="50.45156" lon="3.61996">
        <ele>16.4</ele>
        <time>2021-09-11T14:11:49.341Z</time>
      </trkpt>
      <trkpt lat="50.45157" lon="3.61968">
        <ele>16.3</ele>
        <time>2021-09-11T14:11:55.396Z</time>
      </trkpt>
      <trkpt lat="50.45164" lon="3.61953">
        <ele>16.1</ele>
        <time>2021-09-11T14:11:57.665Z</time>
      </trkpt>
      <trkpt lat="50.45172" lon="3.61937">
        <ele>16</ele>
        <time>2021-09-11T14:12:00.460Z</time>
      </trkpt>
      <trkpt lat="50.45171" lon="3.61922">
        <ele>16</ele>
        <time>2021-09-11T14:12:03.995Z</time>
      </trkpt>
      <trkpt lat="50.45185" lon="3.61875">
        <ele>16</ele>
        <time>2021-09-11T14:12:16.159Z</time>
      </trkpt>
      <trkpt lat="50.45189" lon="3.6186">
        <ele>16</ele>
        <time>2021-09-11T14:12:19.971Z</time>
      </trkpt>
      <trkpt lat="50.45201" lon="3.61833">
        <ele>16</ele>
        <time>2021-09-11T14:12:27.690Z</time>
      </trkpt>
      <trkpt lat="50.45213" lon="3.61825">
        <ele>16</ele>
        <time>2021-09-11T14:12:32.490Z</time>
      </trkpt>
      <trkpt lat="50.45217" lon="3.61835">
        <ele>16</ele>
        <time>2021-09-11T14:12:35.258Z</time>
      </trkpt>
      <trkpt lat="50.45221" lon="3.61847">
        <ele>16</ele>
        <time>2021-09-11T14:12:38.433Z</time>
      </trkpt>
      <trkpt lat="50.45226" lon="3.61864">
        <ele>16</ele>
        <time>2021-09-11T14:12:42.823Z</time>
      </trkpt>
      <trkpt lat="50.45224" lon="3.61872">
        <ele>16</ele>
        <time>2021-09-11T14:12:44.838Z</time>
      </trkpt>
      <trkpt lat="50.45236" lon="3.61886">
        <ele>16.4</ele>
        <time>2021-09-11T14:12:52.128Z</time>
      </trkpt>
      <trkpt lat="50.45243" lon="3.61896">
        <ele>16.8</ele>
        <time>2021-09-11T14:12:57.813Z</time>
      </trkpt>
      <trkpt lat="50.45248" lon="3.61903">
        <ele>17</ele>
        <time>2021-09-11T14:13:01.207Z</time>
      </trkpt>
      <trkpt lat="50.45253" lon="3.61914">
        <ele>17</ele>
        <time>2021-09-11T14:13:04.376Z</time>
      </trkpt>
      <trkpt lat="50.45259" lon="3.61926">
        <ele>17.1</ele>
        <time>2021-09-11T14:13:08.325Z</time>
      </trkpt>
      <trkpt lat="50.45262" lon="3.61932">
        <ele>17.2</ele>
        <time>2021-09-11T14:13:10.528Z</time>
      </trkpt>
      <trkpt lat="50.45265" lon="3.61938">
        <ele>17.4</ele>
        <time>2021-09-11T14:13:13.400Z</time>
      </trkpt>
      <trkpt lat="50.45267" lon="3.61949">
        <ele>17.6</ele>
        <time>2021-09-11T14:13:16.982Z</time>
      </trkpt>
      <trkpt lat="50.45273" lon="3.61956">
        <ele>17.8</ele>
        <time>2021-09-11T14:13:20.628Z</time>
      </trkpt>
      <trkpt lat="50.45281" lon="3.61971">
        <ele>17.9</ele>
        <time>2021-09-11T14:13:25.578Z</time>
      </trkpt>
      <trkpt lat="50.45284" lon="3.61977">
        <ele>17.8</ele>
        <time>2021-09-11T14:13:26.469Z</time>
      </trkpt>
      <trkpt lat="50.45288" lon="3.61983">
        <ele>17.8</ele>
        <time>2021-09-11T14:13:28.506Z</time>
      </trkpt>
      <trkpt lat="50.45292" lon="3.61994">
        <ele>17.9</ele>
        <time>2021-09-11T14:13:31.856Z</time>
      </trkpt>
      <trkpt lat="50.45296" lon="3.62005">
        <ele>18</ele>
        <time>2021-09-11T14:13:35.205Z</time>
      </trkpt>
      <trkpt lat="50.453" lon="3.62018">
        <ele>18</ele>
        <time>2021-09-11T14:13:38.590Z</time>
      </trkpt>
      <trkpt lat="50.45303" lon="3.62029">
        <ele>18</ele>
        <time>2021-09-11T14:13:41.395Z</time>
      </trkpt>
      <trkpt lat="50.45307" lon="3.62039">
        <ele>18</ele>
        <time>2021-09-11T14:13:44.163Z</time>
      </trkpt>
      <trkpt lat="50.45311" lon="3.62049">
        <ele>18</ele>
        <time>2021-09-11T14:13:46.932Z</time>
      </trkpt>
      <trkpt lat="50.45314" lon="3.62057">
        <ele>18</ele>
        <time>2021-09-11T14:13:49.108Z</time>
      </trkpt>
      <trkpt lat="50.45318" lon="3.6207">
        <ele>18</ele>
        <time>2021-09-11T14:13:52.493Z</time>
      </trkpt>
      <trkpt lat="50.45321" lon="3.62076">
        <ele>18</ele>
        <time>2021-09-11T14:13:54.281Z</time>
      </trkpt>
      <trkpt lat="50.45325" lon="3.62084">
        <ele>18</ele>
        <time>2021-09-11T14:13:56.665Z</time>
      </trkpt>
      <trkpt lat="50.45328" lon="3.62091">
        <ele>18</ele>
        <time>2021-09-11T14:13:58.643Z</time>
      </trkpt>
      <trkpt lat="50.4533" lon="3.62097">
        <ele>18</ele>
        <time>2021-09-11T14:14:00.231Z</time>
      </trkpt>
      <trkpt lat="50.45334" lon="3.62109">
        <ele>18</ele>
        <time>2021-09-11T14:14:03.406Z</time>
      </trkpt>
      <trkpt lat="50.45341" lon="3.62125">
        <ele>18.1</ele>
        <time>2021-09-11T14:14:08.321Z</time>
      </trkpt>
      <trkpt lat="50.45343" lon="3.62131">
        <ele>18.2</ele>
        <time>2021-09-11T14:14:10.337Z</time>
      </trkpt>
      <trkpt lat="50.4535" lon="3.62144">
        <ele>18.6</ele>
        <time>2021-09-11T14:14:16.365Z</time>
      </trkpt>
      <trkpt lat="50.45355" lon="3.62155">
        <ele>18.8</ele>
        <time>2021-09-11T14:14:20.390Z</time>
      </trkpt>
      <trkpt lat="50.45359" lon="3.62163">
        <ele>18.9</ele>
        <time>2021-09-11T14:14:23.168Z</time>
      </trkpt>
      <trkpt lat="50.45362" lon="3.62169">
        <ele>18.9</ele>
        <time>2021-09-11T14:14:24.956Z</time>
      </trkpt>
      <trkpt lat="50.45366" lon="3.62176">
        <ele>18.7</ele>
        <time>2021-09-11T14:14:25.912Z</time>
      </trkpt>
      <trkpt lat="50.45369" lon="3.62183">
        <ele>18.6</ele>
        <time>2021-09-11T14:14:26.920Z</time>
      </trkpt>
      <trkpt lat="50.45372" lon="3.62189">
        <ele>18.5</ele>
        <time>2021-09-11T14:14:27.811Z</time>
      </trkpt>
      <trkpt lat="50.45377" lon="3.622">
        <ele>18.5</ele>
        <time>2021-09-11T14:14:30.979Z</time>
      </trkpt>
      <trkpt lat="50.45381" lon="3.62209">
        <ele>18.3</ele>
        <time>2021-09-11T14:14:32.151Z</time>
      </trkpt>
      <trkpt lat="50.45391" lon="3.62218">
        <ele>18.1</ele>
        <time>2021-09-11T14:14:34.348Z</time>
      </trkpt>
      <trkpt lat="50.45396" lon="3.62219">
        <ele>18.1</ele>
        <time>2021-09-11T14:14:36.204Z</time>
      </trkpt>
      <trkpt lat="50.45403" lon="3.62221">
        <ele>18</ele>
        <time>2021-09-11T14:14:37.616Z</time>
      </trkpt>
      <trkpt lat="50.45408" lon="3.62215">
        <ele>18.1</ele>
        <time>2021-09-11T14:14:40.327Z</time>
      </trkpt>
      <trkpt lat="50.45413" lon="3.62216">
        <ele>18</ele>
        <time>2021-09-11T14:14:41.260Z</time>
      </trkpt>
      <trkpt lat="50.4542" lon="3.62213">
        <ele>18</ele>
        <time>2021-09-11T14:14:43.931Z</time>
      </trkpt>
      <trkpt lat="50.45425" lon="3.6221">
        <ele>18</ele>
        <time>2021-09-11T14:14:45.902Z</time>
      </trkpt>
      <trkpt lat="50.45432" lon="3.62202">
        <ele>18</ele>
        <time>2021-09-11T14:14:49.089Z</time>
      </trkpt>
      <trkpt lat="50.45435" lon="3.62198">
        <ele>18</ele>
        <time>2021-09-11T14:14:50.538Z</time>
      </trkpt>
      <trkpt lat="50.45438" lon="3.62192">
        <ele>18</ele>
        <time>2021-09-11T14:14:52.326Z</time>
      </trkpt>
      <trkpt lat="50.45444" lon="3.62183">
        <ele>18</ele>
        <time>2021-09-11T14:14:55.381Z</time>
      </trkpt>
      <trkpt lat="50.45448" lon="3.62178">
        <ele>17.9</ele>
        <time>2021-09-11T14:14:56.330Z</time>
      </trkpt>
      <trkpt lat="50.45453" lon="3.62174">
        <ele>17.7</ele>
        <time>2021-09-11T14:14:57.205Z</time>
      </trkpt>
      <trkpt lat="50.45457" lon="3.62169">
        <ele>17.5</ele>
        <time>2021-09-11T14:14:57.977Z</time>
      </trkpt>
      <trkpt lat="50.45464" lon="3.62164">
        <ele>17.3</ele>
        <time>2021-09-11T14:14:59.303Z</time>
      </trkpt>
      <trkpt lat="50.45476" lon="3.62164">
        <ele>16.9</ele>
        <time>2021-09-11T14:15:01.220Z</time>
      </trkpt>
      <trkpt lat="50.45483" lon="3.62164">
        <ele>16.6</ele>
        <time>2021-09-11T14:15:02.239Z</time>
      </trkpt>
      <trkpt lat="50.45497" lon="3.62166">
        <ele>16.1</ele>
        <time>2021-09-11T14:15:04.434Z</time>
      </trkpt>
      <trkpt lat="50.45504" lon="3.62166">
        <ele>16</ele>
        <time>2021-09-11T14:15:05.820Z</time>
      </trkpt>
      <trkpt lat="50.45516" lon="3.62165">
        <ele>16.1</ele>
        <time>2021-09-11T14:15:10.609Z</time>
      </trkpt>
      <trkpt lat="50.45521" lon="3.62162">
        <ele>16.2</ele>
        <time>2021-09-11T14:15:12.987Z</time>
      </trkpt>
      <trkpt lat="50.45533" lon="3.62154">
        <ele>16.4</ele>
        <time>2021-09-11T14:15:18.571Z</time>
      </trkpt>
      <trkpt lat="50.4554" lon="3.62142">
        <ele>16.5</ele>
        <time>2021-09-11T14:15:22.756Z</time>
      </trkpt>
      <trkpt lat="50.45544" lon="3.6213">
        <ele>16.6</ele>
        <time>2021-09-11T14:15:26.308Z</time>
      </trkpt>
      <trkpt lat="50.4555" lon="3.62117">
        <ele>16.8</ele>
        <time>2021-09-11T14:15:30.893Z</time>
      </trkpt>
      <trkpt lat="50.45555" lon="3.62108">
        <ele>17</ele>
        <time>2021-09-11T14:15:34.582Z</time>
      </trkpt>
      <trkpt lat="50.45561" lon="3.62103">
        <ele>16.9</ele>
        <time>2021-09-11T14:15:35.919Z</time>
      </trkpt>
      <trkpt lat="50.45565" lon="3.62097">
        <ele>16.8</ele>
        <time>2021-09-11T14:15:36.964Z</time>
      </trkpt>
      <trkpt lat="50.45568" lon="3.6209">
        <ele>16.9</ele>
        <time>2021-09-11T14:15:39.348Z</time>
      </trkpt>
      <trkpt lat="50.45575" lon="3.62076">
        <ele>17.2</ele>
        <time>2021-09-11T14:15:44.856Z</time>
      </trkpt>
      <trkpt lat="50.4558" lon="3.62068">
        <ele>17.5</ele>
        <time>2021-09-11T14:15:49.129Z</time>
      </trkpt>
      <trkpt lat="50.45584" lon="3.62062">
        <ele>17.7</ele>
        <time>2021-09-11T14:15:52.174Z</time>
      </trkpt>
      <trkpt lat="50.45589" lon="3.62054">
        <ele>17.9</ele>
        <time>2021-09-11T14:15:55.709Z</time>
      </trkpt>
      <trkpt lat="50.45594" lon="3.62046">
        <ele>18</ele>
        <time>2021-09-11T14:15:58.724Z</time>
      </trkpt>
      <trkpt lat="50.456" lon="3.62038">
        <ele>18</ele>
        <time>2021-09-11T14:16:01.621Z</time>
      </trkpt>
      <trkpt lat="50.45605" lon="3.62031">
        <ele>18.1</ele>
        <time>2021-09-11T14:16:04.478Z</time>
      </trkpt>
      <trkpt lat="50.4561" lon="3.62024">
        <ele>18.2</ele>
        <time>2021-09-11T14:16:07.334Z</time>
      </trkpt>
      <trkpt lat="50.45615" lon="3.62017">
        <ele>18.3</ele>
        <time>2021-09-11T14:16:10.191Z</time>
      </trkpt>
      <trkpt lat="50.45621" lon="3.62008">
        <ele>18.5</ele>
        <time>2021-09-11T14:16:14.111Z</time>
      </trkpt>
      <trkpt lat="50.45626" lon="3.61999">
        <ele>18.5</ele>
        <time>2021-09-11T14:16:16.911Z</time>
      </trkpt>
      <trkpt lat="50.4563" lon="3.6199">
        <ele>18.6</ele>
        <time>2021-09-11T14:16:19.872Z</time>
      </trkpt>
      <trkpt lat="50.45634" lon="3.61984">
        <ele>18.7</ele>
        <time>2021-09-11T14:16:22.312Z</time>
      </trkpt>
      <trkpt lat="50.45637" lon="3.61978">
        <ele>18.8</ele>
        <time>2021-09-11T14:16:24.516Z</time>
      </trkpt>
      <trkpt lat="50.45643" lon="3.61968">
        <ele>18.6</ele>
        <time>2021-09-11T14:16:26.079Z</time>
      </trkpt>
      <trkpt lat="50.45648" lon="3.61959">
        <ele>18.2</ele>
        <time>2021-09-11T14:16:27.095Z</time>
      </trkpt>
      <trkpt lat="50.45652" lon="3.6195">
        <ele>18</ele>
        <time>2021-09-11T14:16:28.267Z</time>
      </trkpt>
      <trkpt lat="50.45655" lon="3.61944">
        <ele>17.9</ele>
        <time>2021-09-11T14:16:29.158Z</time>
      </trkpt>
      <trkpt lat="50.45659" lon="3.61941">
        <ele>17.7</ele>
        <time>2021-09-11T14:16:29.790Z</time>
      </trkpt>
      <trkpt lat="50.45662" lon="3.61934">
        <ele>18</ele>
        <time>2021-09-11T14:16:33.386Z</time>
      </trkpt>
      <trkpt lat="50.45665" lon="3.61925">
        <ele>18.4</ele>
        <time>2021-09-11T14:16:37.900Z</time>
      </trkpt>
      <trkpt lat="50.45669" lon="3.61916">
        <ele>18.8</ele>
        <time>2021-09-11T14:16:42.623Z</time>
      </trkpt>
      <trkpt lat="50.45671" lon="3.61908">
        <ele>18.6</ele>
        <time>2021-09-11T14:16:43.469Z</time>
      </trkpt>
      <trkpt lat="50.45674" lon="3.61901">
        <ele>18.4</ele>
        <time>2021-09-11T14:16:44.295Z</time>
      </trkpt>
      <trkpt lat="50.45677" lon="3.61893">
        <ele>18.2</ele>
        <time>2021-09-11T14:16:45.234Z</time>
      </trkpt>
      <trkpt lat="50.45679" lon="3.61887">
        <ele>18.1</ele>
        <time>2021-09-11T14:16:46.001Z</time>
      </trkpt>
      <trkpt lat="50.45681" lon="3.61878">
        <ele>18</ele>
        <time>2021-09-11T14:16:47.171Z</time>
      </trkpt>
      <trkpt lat="50.45684" lon="3.61872">
        <ele>17.9</ele>
        <time>2021-09-11T14:16:48.061Z</time>
      </trkpt>
      <trkpt lat="50.45689" lon="3.61863">
        <ele>18</ele>
        <time>2021-09-11T14:16:51.245Z</time>
      </trkpt>
      <trkpt lat="50.45695" lon="3.61851">
        <ele>18</ele>
        <time>2021-09-11T14:16:54.821Z</time>
      </trkpt>
      <trkpt lat="50.457" lon="3.61839">
        <ele>18</ele>
        <time>2021-09-11T14:16:58.183Z</time>
      </trkpt>
      <trkpt lat="50.45702" lon="3.61831">
        <ele>18</ele>
        <time>2021-09-11T14:17:00.197Z</time>
      </trkpt>
      <trkpt lat="50.45709" lon="3.6182">
        <ele>18</ele>
        <time>2021-09-11T14:17:03.843Z</time>
      </trkpt>
      <trkpt lat="50.45715" lon="3.61811">
        <ele>18</ele>
        <time>2021-09-11T14:17:06.897Z</time>
      </trkpt>
      <trkpt lat="50.45721" lon="3.61802">
        <ele>18</ele>
        <time>2021-09-11T14:17:09.952Z</time>
      </trkpt>
      <trkpt lat="50.45727" lon="3.61795">
        <ele>17.8</ele>
        <time>2021-09-11T14:17:11.230Z</time>
      </trkpt>
      <trkpt lat="50.45733" lon="3.61792">
        <ele>17.6</ele>
        <time>2021-09-11T14:17:12.252Z</time>
      </trkpt>
      <trkpt lat="50.45739" lon="3.61798">
        <ele>17.4</ele>
        <time>2021-09-11T14:17:13.452Z</time>
      </trkpt>
      <trkpt lat="50.45743" lon="3.61803">
        <ele>17.3</ele>
        <time>2021-09-11T14:17:14.401Z</time>
      </trkpt>
      <trkpt lat="50.4575" lon="3.61814">
        <ele>17</ele>
        <time>2021-09-11T14:17:16.032Z</time>
      </trkpt>
      <trkpt lat="50.45757" lon="3.61831">
        <ele>17.2</ele>
        <time>2021-09-11T14:17:21.564Z</time>
      </trkpt>
      <trkpt lat="50.45763" lon="3.61845">
        <ele>17.5</ele>
        <time>2021-09-11T14:17:26.879Z</time>
      </trkpt>
      <trkpt lat="50.45767" lon="3.6185">
        <ele>17.6</ele>
        <time>2021-09-11T14:17:29.172Z</time>
      </trkpt>
      <trkpt lat="50.4577" lon="3.61855">
        <ele>17.7</ele>
        <time>2021-09-11T14:17:31.209Z</time>
      </trkpt>
      <trkpt lat="50.45777" lon="3.61859">
        <ele>18</ele>
        <time>2021-09-11T14:17:35.554Z</time>
      </trkpt>
      <trkpt lat="50.45789" lon="3.61851">
        <ele>18</ele>
        <time>2021-09-11T14:17:40.354Z</time>
      </trkpt>
      <trkpt lat="50.45794" lon="3.61846">
        <ele>18</ele>
        <time>2021-09-11T14:17:42.536Z</time>
      </trkpt>
      <trkpt lat="50.45798" lon="3.6184">
        <ele>18</ele>
        <time>2021-09-11T14:17:44.572Z</time>
      </trkpt>
      <trkpt lat="50.45802" lon="3.61833">
        <ele>18</ele>
        <time>2021-09-11T14:17:46.777Z</time>
      </trkpt>
      <trkpt lat="50.45806" lon="3.61826">
        <ele>17.7</ele>
        <time>2021-09-11T14:17:47.594Z</time>
      </trkpt>
      <trkpt lat="50.45814" lon="3.61816">
        <ele>17.6</ele>
        <time>2021-09-11T14:17:49.739Z</time>
      </trkpt>
      <trkpt lat="50.45821" lon="3.61806">
        <ele>17.6</ele>
        <time>2021-09-11T14:17:53.223Z</time>
      </trkpt>
      <trkpt lat="50.45828" lon="3.61796">
        <ele>17.5</ele>
        <time>2021-09-11T14:17:55.188Z</time>
      </trkpt>
      <trkpt lat="50.45834" lon="3.61786">
        <ele>17.4</ele>
        <time>2021-09-11T14:17:56.984Z</time>
      </trkpt>
      <trkpt lat="50.45836" lon="3.61779">
        <ele>17.2</ele>
        <time>2021-09-11T14:17:57.708Z</time>
      </trkpt>
      <trkpt lat="50.4584" lon="3.61774">
        <ele>17.4</ele>
        <time>2021-09-11T14:18:00.641Z</time>
      </trkpt>
      <trkpt lat="50.45843" lon="3.61769">
        <ele>17.6</ele>
        <time>2021-09-11T14:18:03.380Z</time>
      </trkpt>
      <trkpt lat="50.45847" lon="3.61764">
        <ele>17.7</ele>
        <time>2021-09-11T14:18:05.673Z</time>
      </trkpt>
      <trkpt lat="50.4585" lon="3.61759">
        <ele>17.8</ele>
        <time>2021-09-11T14:18:07.710Z</time>
      </trkpt>
      <trkpt lat="50.45854" lon="3.61751">
        <ele>17.8</ele>
        <time>2021-09-11T14:18:10.094Z</time>
      </trkpt>
      <trkpt lat="50.45857" lon="3.61746">
        <ele>17.7</ele>
        <time>2021-09-11T14:18:10.876Z</time>
      </trkpt>
      <trkpt lat="50.45861" lon="3.61737">
        <ele>17.5</ele>
        <time>2021-09-11T14:18:12.048Z</time>
      </trkpt>
      <trkpt lat="50.45864" lon="3.6173">
        <ele>17.5</ele>
        <time>2021-09-11T14:18:14.026Z</time>
      </trkpt>
      <trkpt lat="50.45866" lon="3.61724">
        <ele>17.4</ele>
        <time>2021-09-11T14:18:14.793Z</time>
      </trkpt>
      <trkpt lat="50.45871" lon="3.61714">
        <ele>17.5</ele>
        <time>2021-09-11T14:18:18.154Z</time>
      </trkpt>
      <trkpt lat="50.45875" lon="3.61709">
        <ele>17.5</ele>
        <time>2021-09-11T14:18:20.036Z</time>
      </trkpt>
      <trkpt lat="50.45878" lon="3.61703">
        <ele>17.4</ele>
        <time>2021-09-11T14:18:20.927Z</time>
      </trkpt>
      <trkpt lat="50.45882" lon="3.61692">
        <ele>17</ele>
        <time>2021-09-11T14:18:22.032Z</time>
      </trkpt>
      <trkpt lat="50.45885" lon="3.61685">
        <ele>17</ele>
        <time>2021-09-11T14:18:24.010Z</time>
      </trkpt>
      <trkpt lat="50.45889" lon="3.61679">
        <ele>17</ele>
        <time>2021-09-11T14:18:26.046Z</time>
      </trkpt>
      <trkpt lat="50.45894" lon="3.61668">
        <ele>17</ele>
        <time>2021-09-11T14:18:29.214Z</time>
      </trkpt>
      <trkpt lat="50.459" lon="3.61656">
        <ele>17</ele>
        <time>2021-09-11T14:18:32.791Z</time>
      </trkpt>
      <trkpt lat="50.45906" lon="3.61643">
        <ele>17</ele>
        <time>2021-09-11T14:18:36.554Z</time>
      </trkpt>
      <trkpt lat="50.45913" lon="3.61634">
        <ele>17</ele>
        <time>2021-09-11T14:18:39.885Z</time>
      </trkpt>
      <trkpt lat="50.45917" lon="3.61627">
        <ele>17</ele>
        <time>2021-09-11T14:18:42.089Z</time>
      </trkpt>
      <trkpt lat="50.4592" lon="3.61622">
        <ele>17</ele>
        <time>2021-09-11T14:18:43.700Z</time>
      </trkpt>
      <trkpt lat="50.45925" lon="3.61614">
        <ele>17</ele>
        <time>2021-09-11T14:18:46.327Z</time>
      </trkpt>
      <trkpt lat="50.4593" lon="3.61605">
        <ele>16.9</ele>
        <time>2021-09-11T14:18:47.854Z</time>
      </trkpt>
      <trkpt lat="50.45934" lon="3.61601">
        <ele>16.9</ele>
        <time>2021-09-11T14:18:49.600Z</time>
      </trkpt>
      <trkpt lat="50.4594" lon="3.6159">
        <ele>16.9</ele>
        <time>2021-09-11T14:18:52.995Z</time>
      </trkpt>
      <trkpt lat="50.45943" lon="3.61584">
        <ele>16.9</ele>
        <time>2021-09-11T14:18:54.783Z</time>
      </trkpt>
      <trkpt lat="50.45946" lon="3.61577">
        <ele>17.2</ele>
        <time>2021-09-11T14:18:58.379Z</time>
      </trkpt>
      <trkpt lat="50.45949" lon="3.61572">
        <ele>17.6</ele>
        <time>2021-09-11T14:19:02.245Z</time>
      </trkpt>
      <trkpt lat="50.45953" lon="3.61565">
        <ele>18</ele>
        <time>2021-09-11T14:19:06.577Z</time>
      </trkpt>
      <trkpt lat="50.45957" lon="3.61559">
        <ele>18.4</ele>
        <time>2021-09-11T14:19:10.747Z</time>
      </trkpt>
      <trkpt lat="50.45962" lon="3.61549">
        <ele>18.6</ele>
        <time>2021-09-11T14:19:14.599Z</time>
      </trkpt>
      <trkpt lat="50.45965" lon="3.61541">
        <ele>18.4</ele>
        <time>2021-09-11T14:19:15.538Z</time>
      </trkpt>
      <trkpt lat="50.4597" lon="3.61533">
        <ele>18.3</ele>
        <time>2021-09-11T14:19:16.956Z</time>
      </trkpt>
      <trkpt lat="50.45976" lon="3.6152">
        <ele>18</ele>
        <time>2021-09-11T14:19:18.657Z</time>
      </trkpt>
      <trkpt lat="50.45981" lon="3.61508">
        <ele>17.7</ele>
        <time>2021-09-11T14:19:20.122Z</time>
      </trkpt>
      <trkpt lat="50.45985" lon="3.61501">
        <ele>17.5</ele>
        <time>2021-09-11T14:19:21.078Z</time>
      </trkpt>
      <trkpt lat="50.45989" lon="3.61493">
        <ele>17.5</ele>
        <time>2021-09-11T14:19:23.462Z</time>
      </trkpt>
      <trkpt lat="50.45992" lon="3.61485">
        <ele>17.3</ele>
        <time>2021-09-11T14:19:24.402Z</time>
      </trkpt>
      <trkpt lat="50.45995" lon="3.61478">
        <ele>17.2</ele>
        <time>2021-09-11T14:19:25.410Z</time>
      </trkpt>
      <trkpt lat="50.46" lon="3.61462">
        <ele>17</ele>
        <time>2021-09-11T14:19:27.566Z</time>
      </trkpt>
      <trkpt lat="50.46003" lon="3.61452">
        <ele>17</ele>
        <time>2021-09-11T14:19:30.157Z</time>
      </trkpt>
      <trkpt lat="50.46005" lon="3.61443">
        <ele>17</ele>
        <time>2021-09-11T14:19:32.391Z</time>
      </trkpt>
      <trkpt lat="50.46007" lon="3.61432">
        <ele>17</ele>
        <time>2021-09-11T14:19:35.072Z</time>
      </trkpt>
      <trkpt lat="50.46011" lon="3.61419">
        <ele>17</ele>
        <time>2021-09-11T14:19:38.456Z</time>
      </trkpt>
      <trkpt lat="50.46015" lon="3.6141">
        <ele>17.1</ele>
        <time>2021-09-11T14:19:41.417Z</time>
      </trkpt>
      <trkpt lat="50.46019" lon="3.61399">
        <ele>17.4</ele>
        <time>2021-09-11T14:19:45.921Z</time>
      </trkpt>
      <trkpt lat="50.46022" lon="3.61391">
        <ele>17.7</ele>
        <time>2021-09-11T14:19:49.745Z</time>
      </trkpt>
      <trkpt lat="50.46024" lon="3.61381">
        <ele>17.9</ele>
        <time>2021-09-11T14:19:53.131Z</time>
      </trkpt>
      <trkpt lat="50.46027" lon="3.61374">
        <ele>18</ele>
        <time>2021-09-11T14:19:55.515Z</time>
      </trkpt>
      <trkpt lat="50.46029" lon="3.61365">
        <ele>18.1</ele>
        <time>2021-09-11T14:19:58.147Z</time>
      </trkpt>
      <trkpt lat="50.46032" lon="3.61355">
        <ele>18.4</ele>
        <time>2021-09-11T14:20:02.397Z</time>
      </trkpt>
      <trkpt lat="50.46036" lon="3.61339">
        <ele>18.7</ele>
        <time>2021-09-11T14:20:07.777Z</time>
      </trkpt>
      <trkpt lat="50.4604" lon="3.61325">
        <ele>18.7</ele>
        <time>2021-09-11T14:20:11.374Z</time>
      </trkpt>
      <trkpt lat="50.46041" lon="3.61318">
        <ele>18.7</ele>
        <time>2021-09-11T14:20:13.055Z</time>
      </trkpt>
      <trkpt lat="50.46043" lon="3.6131">
        <ele>18.6</ele>
        <time>2021-09-11T14:20:14.087Z</time>
      </trkpt>
      <trkpt lat="50.46045" lon="3.61302">
        <ele>18.5</ele>
        <time>2021-09-11T14:20:15.118Z</time>
      </trkpt>
      <trkpt lat="50.4605" lon="3.61279">
        <ele>18</ele>
        <time>2021-09-11T14:20:17.615Z</time>
      </trkpt>
      <trkpt lat="50.46055" lon="3.61255">
        <ele>18</ele>
        <time>2021-09-11T14:20:23.533Z</time>
      </trkpt>
      <trkpt lat="50.46058" lon="3.61237">
        <ele>18.4</ele>
        <time>2021-09-11T14:20:29.847Z</time>
      </trkpt>
      <trkpt lat="50.46063" lon="3.61219">
        <ele>19.1</ele>
        <time>2021-09-11T14:20:38.224Z</time>
      </trkpt>
      <trkpt lat="50.46072" lon="3.61177">
        <ele>21</ele>
        <time>2021-09-11T14:20:58.715Z</time>
      </trkpt>
      <trkpt lat="50.46075" lon="3.61158">
        <ele>21.3</ele>
        <time>2021-09-11T14:21:04.601Z</time>
      </trkpt>
      <trkpt lat="50.46078" lon="3.61139">
        <ele>21.2</ele>
        <time>2021-09-11T14:21:07.278Z</time>
      </trkpt>
      <trkpt lat="50.46074" lon="3.61127">
        <ele>20.4</ele>
        <time>2021-09-11T14:21:08.402Z</time>
      </trkpt>
      <trkpt lat="50.46078" lon="3.61107">
        <ele>20.3</ele>
        <time>2021-09-11T14:21:11.290Z</time>
      </trkpt>
      <trkpt lat="50.46078" lon="3.6109">
        <ele>20</ele>
        <time>2021-09-11T14:21:13.123Z</time>
      </trkpt>
      <trkpt lat="50.46077" lon="3.61078">
        <ele>19.7</ele>
        <time>2021-09-11T14:21:14.287Z</time>
      </trkpt>
      <trkpt lat="50.46077" lon="3.61071">
        <ele>19.7</ele>
        <time>2021-09-11T14:21:15.927Z</time>
      </trkpt>
      <trkpt lat="50.46081" lon="3.61077">
        <ele>19.9</ele>
        <time>2021-09-11T14:21:18.972Z</time>
      </trkpt>
      <trkpt lat="50.46085" lon="3.61066">
        <ele>19.9</ele>
        <time>2021-09-11T14:21:21.941Z</time>
      </trkpt>
      <trkpt lat="50.46086" lon="3.61053">
        <ele>19.8</ele>
        <time>2021-09-11T14:21:23.640Z</time>
      </trkpt>
      <trkpt lat="50.4609" lon="3.61037">
        <ele>19.5</ele>
        <time>2021-09-11T14:21:25.499Z</time>
      </trkpt>
      <trkpt lat="50.46093" lon="3.61027">
        <ele>19.3</ele>
        <time>2021-09-11T14:21:26.682Z</time>
      </trkpt>
      <trkpt lat="50.46094" lon="3.61018">
        <ele>19</ele>
        <time>2021-09-11T14:21:27.466Z</time>
      </trkpt>
      <trkpt lat="50.46098" lon="3.61005">
        <ele>18.6</ele>
        <time>2021-09-11T14:21:28.797Z</time>
      </trkpt>
      <trkpt lat="50.461" lon="3.60992">
        <ele>18.4</ele>
        <time>2021-09-11T14:21:30.307Z</time>
      </trkpt>
      <trkpt lat="50.46102" lon="3.6098">
        <ele>18.3</ele>
        <time>2021-09-11T14:21:31.903Z</time>
      </trkpt>
      <trkpt lat="50.46104" lon="3.6097">
        <ele>18.3</ele>
        <time>2021-09-11T14:21:34.359Z</time>
      </trkpt>
      <trkpt lat="50.46106" lon="3.60958">
        <ele>18.6</ele>
        <time>2021-09-11T14:21:38.818Z</time>
      </trkpt>
      <trkpt lat="50.46107" lon="3.60947">
        <ele>18.9</ele>
        <time>2021-09-11T14:21:43.077Z</time>
      </trkpt>
      <trkpt lat="50.46108" lon="3.6094">
        <ele>19.1</ele>
        <time>2021-09-11T14:21:45.884Z</time>
      </trkpt>
      <trkpt lat="50.46111" lon="3.60925">
        <ele>19.7</ele>
        <time>2021-09-11T14:21:52.777Z</time>
      </trkpt>
      <trkpt lat="50.46112" lon="3.60914">
        <ele>19.9</ele>
        <time>2021-09-11T14:21:56.292Z</time>
      </trkpt>
      <trkpt lat="50.46113" lon="3.60896">
        <ele>19.9</ele>
        <time>2021-09-11T14:22:00.526Z</time>
      </trkpt>
      <trkpt lat="50.46113" lon="3.60885">
        <ele>19.8</ele>
        <time>2021-09-11T14:22:01.912Z</time>
      </trkpt>
      <trkpt lat="50.46114" lon="3.60876">
        <ele>19.5</ele>
        <time>2021-09-11T14:22:02.696Z</time>
      </trkpt>
      <trkpt lat="50.46118" lon="3.60865">
        <ele>19.3</ele>
        <time>2021-09-11T14:22:04.106Z</time>
      </trkpt>
      <trkpt lat="50.46125" lon="3.60853">
        <ele>19.5</ele>
        <time>2021-09-11T14:22:08.740Z</time>
      </trkpt>
      <trkpt lat="50.46128" lon="3.60848">
        <ele>19.6</ele>
        <time>2021-09-11T14:22:10.777Z</time>
      </trkpt>
      <trkpt lat="50.46131" lon="3.60842">
        <ele>19.7</ele>
        <time>2021-09-11T14:22:12.981Z</time>
      </trkpt>
      <trkpt lat="50.4613" lon="3.60829">
        <ele>19.4</ele>
        <time>2021-09-11T14:22:14.277Z</time>
      </trkpt>
      <trkpt lat="50.46132" lon="3.60815">
        <ele>18.4</ele>
        <time>2021-09-11T14:22:15.467Z</time>
      </trkpt>
      <trkpt lat="50.46133" lon="3.608">
        <ele>17.6</ele>
        <time>2021-09-11T14:22:16.718Z</time>
      </trkpt>
      <trkpt lat="50.46133" lon="3.60781">
        <ele>17.1</ele>
        <time>2021-09-11T14:22:18.505Z</time>
      </trkpt>
      <trkpt lat="50.46132" lon="3.60772">
        <ele>17</ele>
        <time>2021-09-11T14:22:19.615Z</time>
      </trkpt>
      <trkpt lat="50.46133" lon="3.60762">
        <ele>17</ele>
        <time>2021-09-11T14:22:21.988Z</time>
      </trkpt>
      <trkpt lat="50.46134" lon="3.60751">
        <ele>17</ele>
        <time>2021-09-11T14:22:24.592Z</time>
      </trkpt>
      <trkpt lat="50.46135" lon="3.60742">
        <ele>17</ele>
        <time>2021-09-11T14:22:26.733Z</time>
      </trkpt>
      <trkpt lat="50.46137" lon="3.60728">
        <ele>17</ele>
        <time>2021-09-11T14:22:30.096Z</time>
      </trkpt>
      <trkpt lat="50.46141" lon="3.60723">
        <ele>17</ele>
        <time>2021-09-11T14:22:31.978Z</time>
      </trkpt>
      <trkpt lat="50.46146" lon="3.60721">
        <ele>17</ele>
        <time>2021-09-11T14:22:33.878Z</time>
      </trkpt>
      <trkpt lat="50.46153" lon="3.60723">
        <ele>17</ele>
        <time>2021-09-11T14:22:36.497Z</time>
      </trkpt>
      <trkpt lat="50.46166" lon="3.60724">
        <ele>17</ele>
        <time>2021-09-11T14:22:41.289Z</time>
      </trkpt>
      <trkpt lat="50.46171" lon="3.60724">
        <ele>17</ele>
        <time>2021-09-11T14:22:43.130Z</time>
      </trkpt>
      <trkpt lat="50.46181" lon="3.60725">
        <ele>17</ele>
        <time>2021-09-11T14:22:46.819Z</time>
      </trkpt>
      <trkpt lat="50.46187" lon="3.60725">
        <ele>17</ele>
        <time>2021-09-11T14:22:49.028Z</time>
      </trkpt>
      <trkpt lat="50.46195" lon="3.60725">
        <ele>17</ele>
        <time>2021-09-11T14:22:51.973Z</time>
      </trkpt>
      <trkpt lat="50.46205" lon="3.60725">
        <ele>17</ele>
        <time>2021-09-11T14:22:55.655Z</time>
      </trkpt>
      <trkpt lat="50.4621" lon="3.60725">
        <ele>17</ele>
        <time>2021-09-11T14:22:57.496Z</time>
      </trkpt>
      <trkpt lat="50.46214" lon="3.60725">
        <ele>17</ele>
        <time>2021-09-11T14:22:58.968Z</time>
      </trkpt>
      <trkpt lat="50.46221" lon="3.60725">
        <ele>17</ele>
        <time>2021-09-11T14:23:01.545Z</time>
      </trkpt>
      <trkpt lat="50.46227" lon="3.60726">
        <ele>17</ele>
        <time>2021-09-11T14:23:03.767Z</time>
      </trkpt>
      <trkpt lat="50.46235" lon="3.60728">
        <ele>17</ele>
        <time>2021-09-11T14:23:06.749Z</time>
      </trkpt>
      <trkpt lat="50.4624" lon="3.60728">
        <ele>17</ele>
        <time>2021-09-11T14:23:08.590Z</time>
      </trkpt>
      <trkpt lat="50.46246" lon="3.60729">
        <ele>17</ele>
        <time>2021-09-11T14:23:10.811Z</time>
      </trkpt>
      <trkpt lat="50.46255" lon="3.60729">
        <ele>17.2</ele>
        <time>2021-09-11T14:23:14.972Z</time>
      </trkpt>
      <trkpt lat="50.4626" lon="3.60729">
        <ele>17.4</ele>
        <time>2021-09-11T14:23:17.877Z</time>
      </trkpt>
      <trkpt lat="50.46265" lon="3.6073">
        <ele>17.5</ele>
        <time>2021-09-11T14:23:20.145Z</time>
      </trkpt>
      <trkpt lat="50.46274" lon="3.60732">
        <ele>17.9</ele>
        <time>2021-09-11T14:23:25.751Z</time>
      </trkpt>
      <trkpt lat="50.46282" lon="3.60733">
        <ele>18.2</ele>
        <time>2021-09-11T14:23:30.244Z</time>
      </trkpt>
      <trkpt lat="50.46291" lon="3.60733">
        <ele>18.5</ele>
        <time>2021-09-11T14:23:35.014Z</time>
      </trkpt>
      <trkpt lat="50.46301" lon="3.60736">
        <ele>18.8</ele>
        <time>2021-09-11T14:23:40.148Z</time>
      </trkpt>
      <trkpt lat="50.46306" lon="3.60738">
        <ele>19</ele>
        <time>2021-09-11T14:23:43.093Z</time>
      </trkpt>
      <trkpt lat="50.46317" lon="3.60743">
        <ele>19</ele>
        <time>2021-09-11T14:23:47.309Z</time>
      </trkpt>
      <trkpt lat="50.46321" lon="3.60745">
        <ele>19</ele>
        <time>2021-09-11T14:23:48.854Z</time>
      </trkpt>
      <trkpt lat="50.46326" lon="3.60748">
        <ele>19</ele>
        <time>2021-09-11T14:23:50.825Z</time>
      </trkpt>
      <trkpt lat="50.4633" lon="3.60751">
        <ele>19</ele>
        <time>2021-09-11T14:23:52.457Z</time>
      </trkpt>
      <trkpt lat="50.46336" lon="3.60755">
        <ele>19</ele>
        <time>2021-09-11T14:23:54.856Z</time>
      </trkpt>
      <trkpt lat="50.46344" lon="3.60762">
        <ele>18.8</ele>
        <time>2021-09-11T14:23:56.512Z</time>
      </trkpt>
      <trkpt lat="50.46348" lon="3.60767">
        <ele>18.7</ele>
        <time>2021-09-11T14:23:57.461Z</time>
      </trkpt>
      <trkpt lat="50.46354" lon="3.60772">
        <ele>18.4</ele>
        <time>2021-09-11T14:23:58.438Z</time>
      </trkpt>
      <trkpt lat="50.46359" lon="3.60777">
        <ele>18.1</ele>
        <time>2021-09-11T14:23:59.243Z</time>
      </trkpt>
      <trkpt lat="50.46375" lon="3.60791">
        <ele>17.5</ele>
        <time>2021-09-11T14:24:02.185Z</time>
      </trkpt>
      <trkpt lat="50.46398" lon="3.6081">
        <ele>17.6</ele>
        <time>2021-09-11T14:24:12.102Z</time>
      </trkpt>
      <trkpt lat="50.46419" lon="3.60835">
        <ele>19.9</ele>
        <time>2021-09-11T14:24:34.549Z</time>
      </trkpt>
      <trkpt lat="50.46441" lon="3.60855">
        <ele>19</ele>
        <time>2021-09-11T14:24:38.524Z</time>
      </trkpt>
      <trkpt lat="50.4645" lon="3.60866">
        <ele>18.9</ele>
        <time>2021-09-11T14:24:40.950Z</time>
      </trkpt>
      <trkpt lat="50.46469" lon="3.60878">
        <ele>18.9</ele>
        <time>2021-09-11T14:24:48.489Z</time>
      </trkpt>
      <trkpt lat="50.4648" lon="3.6089">
        <ele>19</ele>
        <time>2021-09-11T14:24:53.781Z</time>
      </trkpt>
      <trkpt lat="50.46507" lon="3.60911">
        <ele>18.8</ele>
        <time>2021-09-11T14:25:03.849Z</time>
      </trkpt>
      <trkpt lat="50.4653" lon="3.60947">
        <ele>18.8</ele>
        <time>2021-09-11T14:25:15.803Z</time>
      </trkpt>
      <trkpt lat="50.46544" lon="3.60964">
        <ele>18.5</ele>
        <time>2021-09-11T14:25:19.192Z</time>
      </trkpt>
      <trkpt lat="50.46553" lon="3.60969">
        <ele>18.8</ele>
        <time>2021-09-11T14:25:24.127Z</time>
      </trkpt>
      <trkpt lat="50.46568" lon="3.60997">
        <ele>18.6</ele>
        <time>2021-09-11T14:25:29.094Z</time>
      </trkpt>
      <trkpt lat="50.46578" lon="3.61011">
        <ele>18.4</ele>
        <time>2021-09-11T14:25:31.724Z</time>
      </trkpt>
      <trkpt lat="50.4659" lon="3.61042">
        <ele>18.9</ele>
        <time>2021-09-11T14:25:42.330Z</time>
      </trkpt>
      <trkpt lat="50.46606" lon="3.61066">
        <ele>18.9</ele>
        <time>2021-09-11T14:25:50.474Z</time>
      </trkpt>
      <trkpt lat="50.46614" lon="3.61081">
        <ele>18.9</ele>
        <time>2021-09-11T14:25:55.060Z</time>
      </trkpt>
      <trkpt lat="50.46628" lon="3.61103">
        <ele>18.8</ele>
        <time>2021-09-11T14:26:01.827Z</time>
      </trkpt>
      <trkpt lat="50.46642" lon="3.61124">
        <ele>18.5</ele>
        <time>2021-09-11T14:26:05.601Z</time>
      </trkpt>
      <trkpt lat="50.46648" lon="3.61136">
        <ele>18.1</ele>
        <time>2021-09-11T14:26:07.038Z</time>
      </trkpt>
      <trkpt lat="50.46656" lon="3.61149">
        <ele>18.2</ele>
        <time>2021-09-11T14:26:11.641Z</time>
      </trkpt>
      <trkpt lat="50.46665" lon="3.61157">
        <ele>18.6</ele>
        <time>2021-09-11T14:26:17.538Z</time>
      </trkpt>
      <trkpt lat="50.46682" lon="3.61186">
        <ele>18.7</ele>
        <time>2021-09-11T14:26:27.127Z</time>
      </trkpt>
      <trkpt lat="50.467" lon="3.61213">
        <ele>18.5</ele>
        <time>2021-09-11T14:26:32.473Z</time>
      </trkpt>
      <trkpt lat="50.46722" lon="3.6124">
        <ele>19</ele>
        <time>2021-09-11T14:26:44.768Z</time>
      </trkpt>
      <trkpt lat="50.46736" lon="3.61262">
        <ele>18.8</ele>
        <time>2021-09-11T14:26:48.905Z</time>
      </trkpt>
      <trkpt lat="50.46742" lon="3.61272">
        <ele>18.8</ele>
        <time>2021-09-11T14:26:52.125Z</time>
      </trkpt>
      <trkpt lat="50.4675" lon="3.61284">
        <ele>19</ele>
        <time>2021-09-11T14:26:57.006Z</time>
      </trkpt>
      <trkpt lat="50.4676" lon="3.6129">
        <ele>19</ele>
        <time>2021-09-11T14:27:00.947Z</time>
      </trkpt>
      <trkpt lat="50.46773" lon="3.61328">
        <ele>18.9</ele>
        <time>2021-09-11T14:27:10.522Z</time>
      </trkpt>
      <trkpt lat="50.46774" lon="3.61344">
        <ele>18.5</ele>
        <time>2021-09-11T14:27:12.066Z</time>
      </trkpt>
      <trkpt lat="50.46781" lon="3.61355">
        <ele>18.2</ele>
        <time>2021-09-11T14:27:13.698Z</time>
      </trkpt>
      <trkpt lat="50.46798" lon="3.61382">
        <ele>18.5</ele>
        <time>2021-09-11T14:27:23.739Z</time>
      </trkpt>
      <trkpt lat="50.46808" lon="3.61398">
        <ele>18.7</ele>
        <time>2021-09-11T14:27:29.768Z</time>
      </trkpt>
      <trkpt lat="50.46822" lon="3.6143">
        <ele>18.3</ele>
        <time>2021-09-11T14:27:34.546Z</time>
      </trkpt>
      <trkpt lat="50.46828" lon="3.6144">
        <ele>18.1</ele>
        <time>2021-09-11T14:27:36.109Z</time>
      </trkpt>
      <trkpt lat="50.46832" lon="3.61451">
        <ele>18.2</ele>
        <time>2021-09-11T14:27:39.458Z</time>
      </trkpt>
      <trkpt lat="50.46838" lon="3.61446">
        <ele>18.2</ele>
        <time>2021-09-11T14:27:41.958Z</time>
      </trkpt>
      <trkpt lat="50.46846" lon="3.6147">
        <ele>19</ele>
        <time>2021-09-11T14:27:52.803Z</time>
      </trkpt>
      <trkpt lat="50.46855" lon="3.61491">
        <ele>18.9</ele>
        <time>2021-09-11T14:27:58.220Z</time>
      </trkpt>
      <trkpt lat="50.46863" lon="3.61516">
        <ele>19</ele>
        <time>2021-09-11T14:28:05.133Z</time>
      </trkpt>
      <trkpt lat="50.46873" lon="3.61542">
        <ele>19.4</ele>
        <time>2021-09-11T14:28:13.916Z</time>
      </trkpt>
      <trkpt lat="50.46886" lon="3.6156">
        <ele>20.5</ele>
        <time>2021-09-11T14:28:26.152Z</time>
      </trkpt>
      <trkpt lat="50.46894" lon="3.61585">
        <ele>19.2</ele>
        <time>2021-09-11T14:28:28.472Z</time>
      </trkpt>
      <trkpt lat="50.46907" lon="3.61602">
        <ele>19.7</ele>
        <time>2021-09-11T14:28:37.012Z</time>
      </trkpt>
      <trkpt lat="50.46914" lon="3.61619">
        <ele>19.6</ele>
        <time>2021-09-11T14:28:39.790Z</time>
      </trkpt>
      <trkpt lat="50.46925" lon="3.61648">
        <ele>19.3</ele>
        <time>2021-09-11T14:28:44.061Z</time>
      </trkpt>
      <trkpt lat="50.46933" lon="3.61666">
        <ele>20</ele>
        <time>2021-09-11T14:28:53.062Z</time>
      </trkpt>
      <trkpt lat="50.46945" lon="3.61685">
        <ele>19.3</ele>
        <time>2021-09-11T14:28:55.585Z</time>
      </trkpt>
      <trkpt lat="50.46955" lon="3.61703">
        <ele>19.3</ele>
        <time>2021-09-11T14:29:01.183Z</time>
      </trkpt>
      <trkpt lat="50.46963" lon="3.61716">
        <ele>19.8</ele>
        <time>2021-09-11T14:29:08.221Z</time>
      </trkpt>
      <trkpt lat="50.46969" lon="3.6173">
        <ele>19.8</ele>
        <time>2021-09-11T14:29:12.176Z</time>
      </trkpt>
      <trkpt lat="50.46972" lon="3.61735">
        <ele>19.5</ele>
        <time>2021-09-11T14:29:12.746Z</time>
      </trkpt>
      <trkpt lat="50.46975" lon="3.61742">
        <ele>19.4</ele>
        <time>2021-09-11T14:29:13.754Z</time>
      </trkpt>
      <trkpt lat="50.46978" lon="3.6175">
        <ele>19.2</ele>
        <time>2021-09-11T14:29:14.693Z</time>
      </trkpt>
      <trkpt lat="50.4698" lon="3.61757">
        <ele>19.4</ele>
        <time>2021-09-11T14:29:17.571Z</time>
      </trkpt>
      <trkpt lat="50.46986" lon="3.61778">
        <ele>19.5</ele>
        <time>2021-09-11T14:29:23.324Z</time>
      </trkpt>
      <trkpt lat="50.46981" lon="3.618">
        <ele>19.1</ele>
        <time>2021-09-11T14:29:25.865Z</time>
      </trkpt>
      <trkpt lat="50.46972" lon="3.61813">
        <ele>19</ele>
        <time>2021-09-11T14:29:28.486Z</time>
      </trkpt>
      <trkpt lat="50.46958" lon="3.61823">
        <ele>19.2</ele>
        <time>2021-09-11T14:29:34.913Z</time>
      </trkpt>
      <trkpt lat="50.46933" lon="3.61832">
        <ele>19.4</ele>
        <time>2021-09-11T14:29:45.082Z</time>
      </trkpt>
      <trkpt lat="50.46919" lon="3.6184">
        <ele>19.7</ele>
        <time>2021-09-11T14:29:51.807Z</time>
      </trkpt>
      <trkpt lat="50.46904" lon="3.6185">
        <ele>19.7</ele>
        <time>2021-09-11T14:29:57.806Z</time>
      </trkpt>
      <trkpt lat="50.46891" lon="3.61859">
        <ele>19.9</ele>
        <time>2021-09-11T14:30:03.811Z</time>
      </trkpt>
      <trkpt lat="50.46883" lon="3.61867">
        <ele>19.8</ele>
        <time>2021-09-11T14:30:05.781Z</time>
      </trkpt>
      <trkpt lat="50.46871" lon="3.61876">
        <ele>19.5</ele>
        <time>2021-09-11T14:30:08.165Z</time>
      </trkpt>
      <trkpt lat="50.46859" lon="3.61886">
        <ele>19.1</ele>
        <time>2021-09-11T14:30:10.423Z</time>
      </trkpt>
      <trkpt lat="50.46847" lon="3.61899">
        <ele>19.2</ele>
        <time>2021-09-11T14:30:16.149Z</time>
      </trkpt>
      <trkpt lat="50.46833" lon="3.61912">
        <ele>19</ele>
        <time>2021-09-11T14:30:19.451Z</time>
      </trkpt>
      <trkpt lat="50.46809" lon="3.6193">
        <ele>19.5</ele>
        <time>2021-09-11T14:30:31.279Z</time>
      </trkpt>
      <trkpt lat="50.46788" lon="3.61944">
        <ele>19.6</ele>
        <time>2021-09-11T14:30:40.029Z</time>
      </trkpt>
      <trkpt lat="50.46779" lon="3.61949">
        <ele>19.8</ele>
        <time>2021-09-11T14:30:44.378Z</time>
      </trkpt>
      <trkpt lat="50.46765" lon="3.61953">
        <ele>19.4</ele>
        <time>2021-09-11T14:30:46.778Z</time>
      </trkpt>
      <trkpt lat="50.46753" lon="3.6196">
        <ele>19</ele>
        <time>2021-09-11T14:30:48.866Z</time>
      </trkpt>
      <trkpt lat="50.46739" lon="3.61972">
        <ele>19.4</ele>
        <time>2021-09-11T14:30:56.489Z</time>
      </trkpt>
      <trkpt lat="50.46723" lon="3.61989">
        <ele>19.4</ele>
        <time>2021-09-11T14:31:03.600Z</time>
      </trkpt>
      <trkpt lat="50.46697" lon="3.62009">
        <ele>19.6</ele>
        <time>2021-09-11T14:31:14.978Z</time>
      </trkpt>
      <trkpt lat="50.46684" lon="3.62015">
        <ele>19.3</ele>
        <time>2021-09-11T14:31:17.419Z</time>
      </trkpt>
      <trkpt lat="50.46664" lon="3.62027">
        <ele>19.8</ele>
        <time>2021-09-11T14:31:27.446Z</time>
      </trkpt>
      <trkpt lat="50.46645" lon="3.62047">
        <ele>19.4</ele>
        <time>2021-09-11T14:31:31.798Z</time>
      </trkpt>
      <trkpt lat="50.46639" lon="3.62057">
        <ele>19.9</ele>
        <time>2021-09-11T14:31:37.706Z</time>
      </trkpt>
      <trkpt lat="50.46623" lon="3.62082">
        <ele>19.5</ele>
        <time>2021-09-11T14:31:41.988Z</time>
      </trkpt>
      <trkpt lat="50.46603" lon="3.62106">
        <ele>19.1</ele>
        <time>2021-09-11T14:31:46.871Z</time>
      </trkpt>
      <trkpt lat="50.46587" lon="3.62121">
        <ele>19</ele>
        <time>2021-09-11T14:31:53.209Z</time>
      </trkpt>
      <trkpt lat="50.46579" lon="3.62139">
        <ele>19.2</ele>
        <time>2021-09-11T14:31:59.130Z</time>
      </trkpt>
      <trkpt lat="50.46561" lon="3.62153">
        <ele>19.8</ele>
        <time>2021-09-11T14:32:09.311Z</time>
      </trkpt>
      <trkpt lat="50.46548" lon="3.62166">
        <ele>20</ele>
        <time>2021-09-11T14:32:15.750Z</time>
      </trkpt>
      <trkpt lat="50.46544" lon="3.62169">
        <ele>20.1</ele>
        <time>2021-09-11T14:32:17.806Z</time>
      </trkpt>
      <trkpt lat="50.46548" lon="3.62166">
        <ele>20</ele>
        <time>2021-09-11T14:32:18.601Z</time>
      </trkpt>
      <trkpt lat="50.46543" lon="3.62168">
        <ele>20</ele>
        <time>2021-09-11T14:32:20.501Z</time>
      </trkpt>
      <trkpt lat="50.46537" lon="3.62173">
        <ele>20.2</ele>
        <time>2021-09-11T14:32:23.925Z</time>
      </trkpt>
      <trkpt lat="50.46532" lon="3.62178">
        <ele>20.4</ele>
        <time>2021-09-11T14:32:27.083Z</time>
      </trkpt>
      <trkpt lat="50.46528" lon="3.62182">
        <ele>20.6</ele>
        <time>2021-09-11T14:32:29.928Z</time>
      </trkpt>
      <trkpt lat="50.46519" lon="3.62191">
        <ele>20.6</ele>
        <time>2021-09-11T14:32:33.856Z</time>
      </trkpt>
      <trkpt lat="50.46507" lon="3.62199">
        <ele>20.1</ele>
        <time>2021-09-11T14:32:35.837Z</time>
      </trkpt>
      <trkpt lat="50.46498" lon="3.62207">
        <ele>19.5</ele>
        <time>2021-09-11T14:32:37.157Z</time>
      </trkpt>
      <trkpt lat="50.46493" lon="3.62212">
        <ele>19.3</ele>
        <time>2021-09-11T14:32:38.100Z</time>
      </trkpt>
      <trkpt lat="50.46482" lon="3.6222">
        <ele>19</ele>
        <time>2021-09-11T14:32:40.221Z</time>
      </trkpt>
      <trkpt lat="50.46473" lon="3.62227">
        <ele>19</ele>
        <time>2021-09-11T14:32:43.918Z</time>
      </trkpt>
      <trkpt lat="50.46468" lon="3.6223">
        <ele>19.1</ele>
        <time>2021-09-11T14:32:46.295Z</time>
      </trkpt>
      <trkpt lat="50.46456" lon="3.62231">
        <ele>19.4</ele>
        <time>2021-09-11T14:32:52.031Z</time>
      </trkpt>
      <trkpt lat="50.46451" lon="3.62238">
        <ele>19.3</ele>
        <time>2021-09-11T14:32:53.346Z</time>
      </trkpt>
      <trkpt lat="50.46442" lon="3.62244">
        <ele>19.2</ele>
        <time>2021-09-11T14:32:55.385Z</time>
      </trkpt>
      <trkpt lat="50.46437" lon="3.62251">
        <ele>19</ele>
        <time>2021-09-11T14:32:56.494Z</time>
      </trkpt>
      <trkpt lat="50.46432" lon="3.62255">
        <ele>18.8</ele>
        <time>2021-09-11T14:32:57.369Z</time>
      </trkpt>
      <trkpt lat="50.46424" lon="3.62257">
        <ele>18.7</ele>
        <time>2021-09-11T14:32:59.013Z</time>
      </trkpt>
      <trkpt lat="50.4642" lon="3.62253">
        <ele>18.9</ele>
        <time>2021-09-11T14:33:01.858Z</time>
      </trkpt>
      <trkpt lat="50.46415" lon="3.62255">
        <ele>18.8</ele>
        <time>2021-09-11T14:33:02.818Z</time>
      </trkpt>
      <trkpt lat="50.46405" lon="3.62267">
        <ele>18.6</ele>
        <time>2021-09-11T14:33:05.259Z</time>
      </trkpt>
      <trkpt lat="50.46402" lon="3.62273">
        <ele>18.6</ele>
        <time>2021-09-11T14:33:07.047Z</time>
      </trkpt>
      <trkpt lat="50.46396" lon="3.62277">
        <ele>18.8</ele>
        <time>2021-09-11T14:33:10.385Z</time>
      </trkpt>
      <trkpt lat="50.46388" lon="3.62284">
        <ele>18.8</ele>
        <time>2021-09-11T14:33:13.756Z</time>
      </trkpt>
      <trkpt lat="50.46377" lon="3.62287">
        <ele>18.7</ele>
        <time>2021-09-11T14:33:16.125Z</time>
      </trkpt>
      <trkpt lat="50.4637" lon="3.62291">
        <ele>18.5</ele>
        <time>2021-09-11T14:33:17.398Z</time>
      </trkpt>
      <trkpt lat="50.46365" lon="3.62294">
        <ele>18.4</ele>
        <time>2021-09-11T14:33:18.402Z</time>
      </trkpt>
      <trkpt lat="50.4636" lon="3.62299">
        <ele>18.3</ele>
        <time>2021-09-11T14:33:19.538Z</time>
      </trkpt>
      <trkpt lat="50.46354" lon="3.62304">
        <ele>18.3</ele>
        <time>2021-09-11T14:33:22.039Z</time>
      </trkpt>
      <trkpt lat="50.4635" lon="3.62307">
        <ele>18.3</ele>
        <time>2021-09-11T14:33:23.671Z</time>
      </trkpt>
      <trkpt lat="50.46345" lon="3.62311">
        <ele>18.2</ele>
        <time>2021-09-11T14:33:24.734Z</time>
      </trkpt>
      <trkpt lat="50.46339" lon="3.62316">
        <ele>18</ele>
        <time>2021-09-11T14:33:25.863Z</time>
      </trkpt>
      <trkpt lat="50.46333" lon="3.6232">
        <ele>18</ele>
        <time>2021-09-11T14:33:28.263Z</time>
      </trkpt>
      <trkpt lat="50.46324" lon="3.62325">
        <ele>17.7</ele>
        <time>2021-09-11T14:33:29.818Z</time>
      </trkpt>
      <trkpt lat="50.46311" lon="3.6233">
        <ele>17.9</ele>
        <time>2021-09-11T14:33:35.527Z</time>
      </trkpt>
      <trkpt lat="50.46305" lon="3.62331">
        <ele>18</ele>
        <time>2021-09-11T14:33:38.146Z</time>
      </trkpt>
      <trkpt lat="50.46295" lon="3.62332">
        <ele>18</ele>
        <time>2021-09-11T14:33:41.835Z</time>
      </trkpt>
      <trkpt lat="50.46285" lon="3.62334">
        <ele>18</ele>
        <time>2021-09-11T14:33:45.546Z</time>
      </trkpt>
      <trkpt lat="50.4628" lon="3.62335">
        <ele>17.9</ele>
        <time>2021-09-11T14:33:46.479Z</time>
      </trkpt>
      <trkpt lat="50.46268" lon="3.62343">
        <ele>17.2</ele>
        <time>2021-09-11T14:33:48.204Z</time>
      </trkpt>
      <trkpt lat="50.46262" lon="3.62344">
        <ele>17</ele>
        <time>2021-09-11T14:33:49.170Z</time>
      </trkpt>
      <trkpt lat="50.46254" lon="3.62346">
        <ele>16.7</ele>
        <time>2021-09-11T14:33:50.416Z</time>
      </trkpt>
      <trkpt lat="50.46245" lon="3.62348">
        <ele>16.5</ele>
        <time>2021-09-11T14:33:52.057Z</time>
      </trkpt>
      <trkpt lat="50.4624" lon="3.62348">
        <ele>16.6</ele>
        <time>2021-09-11T14:33:54.310Z</time>
      </trkpt>
      <trkpt lat="50.46232" lon="3.62349">
        <ele>16.7</ele>
        <time>2021-09-11T14:33:57.646Z</time>
      </trkpt>
      <trkpt lat="50.46227" lon="3.62348">
        <ele>16.9</ele>
        <time>2021-09-11T14:34:00.561Z</time>
      </trkpt>
      <trkpt lat="50.46222" lon="3.62348">
        <ele>16.9</ele>
        <time>2021-09-11T14:34:02.402Z</time>
      </trkpt>
      <trkpt lat="50.46211" lon="3.62349">
        <ele>16.9</ele>
        <time>2021-09-11T14:34:06.458Z</time>
      </trkpt>
      <trkpt lat="50.46206" lon="3.62346">
        <ele>17.1</ele>
        <time>2021-09-11T14:34:09.454Z</time>
      </trkpt>
      <trkpt lat="50.46202" lon="3.62346">
        <ele>17.1</ele>
        <time>2021-09-11T14:34:10.927Z</time>
      </trkpt>
      <trkpt lat="50.46197" lon="3.62347">
        <ele>17</ele>
        <time>2021-09-11T14:34:11.859Z</time>
      </trkpt>
      <trkpt lat="50.46189" lon="3.62349">
        <ele>16.8</ele>
        <time>2021-09-11T14:34:13.277Z</time>
      </trkpt>
      <trkpt lat="50.46176" lon="3.6235">
        <ele>16.4</ele>
        <time>2021-09-11T14:34:15.412Z</time>
      </trkpt>
      <trkpt lat="50.46168" lon="3.62348">
        <ele>16.4</ele>
        <time>2021-09-11T14:34:18.395Z</time>
      </trkpt>
      <trkpt lat="50.46161" lon="3.6235">
        <ele>16.2</ele>
        <time>2021-09-11T14:34:19.595Z</time>
      </trkpt>
      <trkpt lat="50.46156" lon="3.6235">
        <ele>16.2</ele>
        <time>2021-09-11T14:34:21.435Z</time>
      </trkpt>
      <trkpt lat="50.46147" lon="3.6235">
        <ele>16.2</ele>
        <time>2021-09-11T14:34:24.749Z</time>
      </trkpt>
      <trkpt lat="50.46143" lon="3.6235">
        <ele>16.2</ele>
        <time>2021-09-11T14:34:26.221Z</time>
      </trkpt>
      <trkpt lat="50.46134" lon="3.62349">
        <ele>16.4</ele>
        <time>2021-09-11T14:34:30.389Z</time>
      </trkpt>
      <trkpt lat="50.46129" lon="3.62348">
        <ele>16.6</ele>
        <time>2021-09-11T14:34:33.305Z</time>
      </trkpt>
      <trkpt lat="50.46122" lon="3.62348">
        <ele>16.7</ele>
        <time>2021-09-11T14:34:36.270Z</time>
      </trkpt>
      <trkpt lat="50.46115" lon="3.62348">
        <ele>16.9</ele>
        <time>2021-09-11T14:34:39.761Z</time>
      </trkpt>
      <trkpt lat="50.46109" lon="3.62348">
        <ele>17</ele>
        <time>2021-09-11T14:34:42.368Z</time>
      </trkpt>
      <trkpt lat="50.46101" lon="3.62349">
        <ele>17.3</ele>
        <time>2021-09-11T14:34:46.861Z</time>
      </trkpt>
      <trkpt lat="50.46093" lon="3.62349">
        <ele>17.6</ele>
        <time>2021-09-11T14:34:51.347Z</time>
      </trkpt>
      <trkpt lat="50.46081" lon="3.6235">
        <ele>18</ele>
        <time>2021-09-11T14:34:57.712Z</time>
      </trkpt>
      <trkpt lat="50.46074" lon="3.6235">
        <ele>18.1</ele>
        <time>2021-09-11T14:35:00.677Z</time>
      </trkpt>
      <trkpt lat="50.46065" lon="3.6235">
        <ele>18.3</ele>
        <time>2021-09-11T14:35:04.837Z</time>
      </trkpt>
      <trkpt lat="50.4606" lon="3.6235">
        <ele>18.3</ele>
        <time>2021-09-11T14:35:06.678Z</time>
      </trkpt>
      <trkpt lat="50.46051" lon="3.62351">
        <ele>18.2</ele>
        <time>2021-09-11T14:35:08.539Z</time>
      </trkpt>
      <trkpt lat="50.46045" lon="3.62353">
        <ele>17.9</ele>
        <time>2021-09-11T14:35:09.385Z</time>
      </trkpt>
      <trkpt lat="50.46036" lon="3.62355">
        <ele>17.5</ele>
        <time>2021-09-11T14:35:10.695Z</time>
      </trkpt>
      <trkpt lat="50.46031" lon="3.62358">
        <ele>17.2</ele>
        <time>2021-09-11T14:35:11.389Z</time>
      </trkpt>
      <trkpt lat="50.46027" lon="3.62361">
        <ele>17</ele>
        <time>2021-09-11T14:35:12.022Z</time>
      </trkpt>
      <trkpt lat="50.46018" lon="3.62369">
        <ele>17.1</ele>
        <time>2021-09-11T14:35:16.199Z</time>
      </trkpt>
      <trkpt lat="50.4601" lon="3.62376">
        <ele>17.1</ele>
        <time>2021-09-11T14:35:19.570Z</time>
      </trkpt>
      <trkpt lat="50.46006" lon="3.62381">
        <ele>17.1</ele>
        <time>2021-09-11T14:35:21.452Z</time>
      </trkpt>
      <trkpt lat="50.46002" lon="3.62386">
        <ele>17</ele>
        <time>2021-09-11T14:35:22.401Z</time>
      </trkpt>
      <trkpt lat="50.45998" lon="3.62393">
        <ele>16.7</ele>
        <time>2021-09-11T14:35:23.218Z</time>
      </trkpt>
      <trkpt lat="50.45995" lon="3.62402">
        <ele>16.1</ele>
        <time>2021-09-11T14:35:24.061Z</time>
      </trkpt>
      <trkpt lat="50.45991" lon="3.62415">
        <ele>15.1</ele>
        <time>2021-09-11T14:35:25.259Z</time>
      </trkpt>
      <trkpt lat="50.45986" lon="3.62428">
        <ele>14.4</ele>
        <time>2021-09-11T14:35:26.518Z</time>
      </trkpt>
      <trkpt lat="50.45983" lon="3.62435">
        <ele>14.1</ele>
        <time>2021-09-11T14:35:27.217Z</time>
      </trkpt>
      <trkpt lat="50.45979" lon="3.62441">
        <ele>13.9</ele>
        <time>2021-09-11T14:35:28.076Z</time>
      </trkpt>
      <trkpt lat="50.45976" lon="3.62448">
        <ele>13.8</ele>
        <time>2021-09-11T14:35:29.084Z</time>
      </trkpt>
      <trkpt lat="50.4597" lon="3.62457">
        <ele>13.6</ele>
        <time>2021-09-11T14:35:30.546Z</time>
      </trkpt>
      <trkpt lat="50.45966" lon="3.62466">
        <ele>13.4</ele>
        <time>2021-09-11T14:35:31.718Z</time>
      </trkpt>
      <trkpt lat="50.45962" lon="3.62472">
        <ele>13.4</ele>
        <time>2021-09-11T14:35:33.754Z</time>
      </trkpt>
      <trkpt lat="50.45957" lon="3.62483">
        <ele>13.5</ele>
        <time>2021-09-11T14:35:37.299Z</time>
      </trkpt>
      <trkpt lat="50.45954" lon="3.62489">
        <ele>13.5</ele>
        <time>2021-09-11T14:35:39.087Z</time>
      </trkpt>
      <trkpt lat="50.4595" lon="3.62499">
        <ele>13.2</ele>
        <time>2021-09-11T14:35:40.213Z</time>
      </trkpt>
      <trkpt lat="50.45942" lon="3.62516">
        <ele>13.1</ele>
        <time>2021-09-11T14:35:43.128Z</time>
      </trkpt>
      <trkpt lat="50.45939" lon="3.62522">
        <ele>13.2</ele>
        <time>2021-09-11T14:35:45.332Z</time>
      </trkpt>
      <trkpt lat="50.45936" lon="3.62527">
        <ele>13.3</ele>
        <time>2021-09-11T14:35:47.369Z</time>
      </trkpt>
      <trkpt lat="50.45929" lon="3.62538">
        <ele>13.6</ele>
        <time>2021-09-11T14:35:52.415Z</time>
      </trkpt>
      <trkpt lat="50.45924" lon="3.62544">
        <ele>13.7</ele>
        <time>2021-09-11T14:35:55.126Z</time>
      </trkpt>
      <trkpt lat="50.4592" lon="3.6255">
        <ele>13.9</ele>
        <time>2021-09-11T14:35:58.171Z</time>
      </trkpt>
      <trkpt lat="50.45913" lon="3.62561">
        <ele>14</ele>
        <time>2021-09-11T14:36:02.188Z</time>
      </trkpt>
      <trkpt lat="50.45906" lon="3.62572">
        <ele>14</ele>
        <time>2021-09-11T14:36:05.833Z</time>
      </trkpt>
      <trkpt lat="50.45902" lon="3.62577">
        <ele>14</ele>
        <time>2021-09-11T14:36:07.715Z</time>
      </trkpt>
      <trkpt lat="50.45894" lon="3.62589">
        <ele>13.8</ele>
        <time>2021-09-11T14:36:09.805Z</time>
      </trkpt>
      <trkpt lat="50.45885" lon="3.62602">
        <ele>13.3</ele>
        <time>2021-09-11T14:36:11.619Z</time>
      </trkpt>
      <trkpt lat="50.45882" lon="3.62607">
        <ele>13.1</ele>
        <time>2021-09-11T14:36:12.239Z</time>
      </trkpt>
      <trkpt lat="50.45874" lon="3.62618">
        <ele>13</ele>
        <time>2021-09-11T14:36:14.481Z</time>
      </trkpt>
      <trkpt lat="50.4587" lon="3.62622">
        <ele>13</ele>
        <time>2021-09-11T14:36:16.227Z</time>
      </trkpt>
      <trkpt lat="50.45866" lon="3.62627">
        <ele>13</ele>
        <time>2021-09-11T14:36:18.109Z</time>
      </trkpt>
      <trkpt lat="50.45862" lon="3.62633">
        <ele>13</ele>
        <time>2021-09-11T14:36:20.145Z</time>
      </trkpt>
      <trkpt lat="50.45854" lon="3.62644">
        <ele>13</ele>
        <time>2021-09-11T14:36:24.060Z</time>
      </trkpt>
      <trkpt lat="50.45847" lon="3.62655">
        <ele>13</ele>
        <time>2021-09-11T14:36:27.705Z</time>
      </trkpt>
      <trkpt lat="50.45844" lon="3.6266">
        <ele>13</ele>
        <time>2021-09-11T14:36:29.316Z</time>
      </trkpt>
      <trkpt lat="50.45836" lon="3.6267">
        <ele>12.9</ele>
        <time>2021-09-11T14:36:31.461Z</time>
      </trkpt>
      <trkpt lat="50.45832" lon="3.62676">
        <ele>12.7</ele>
        <time>2021-09-11T14:36:32.319Z</time>
      </trkpt>
      <trkpt lat="50.45828" lon="3.6268">
        <ele>12.6</ele>
        <time>2021-09-11T14:36:33.184Z</time>
      </trkpt>
      <trkpt lat="50.45822" lon="3.62685">
        <ele>12.6</ele>
        <time>2021-09-11T14:36:35.685Z</time>
      </trkpt>
      <trkpt lat="50.45817" lon="3.62689">
        <ele>12.7</ele>
        <time>2021-09-11T14:36:38.154Z</time>
      </trkpt>
      <trkpt lat="50.45809" lon="3.62681">
        <ele>12.9</ele>
        <time>2021-09-11T14:36:42.481Z</time>
      </trkpt>
      <trkpt lat="50.45805" lon="3.62678">
        <ele>13</ele>
        <time>2021-09-11T14:36:44.538Z</time>
      </trkpt>
      <trkpt lat="50.458" lon="3.62673">
        <ele>13</ele>
        <time>2021-09-11T14:36:46.720Z</time>
      </trkpt>
      <trkpt lat="50.45791" lon="3.62668">
        <ele>13</ele>
        <time>2021-09-11T14:36:50.235Z</time>
      </trkpt>
      <trkpt lat="50.45781" lon="3.6266">
        <ele>13</ele>
        <time>2021-09-11T14:36:54.366Z</time>
      </trkpt>
      <trkpt lat="50.45777" lon="3.62657">
        <ele>13</ele>
        <time>2021-09-11T14:36:55.998Z</time>
      </trkpt>
      <trkpt lat="50.45767" lon="3.62651">
        <ele>13</ele>
        <time>2021-09-11T14:36:59.939Z</time>
      </trkpt>
      <trkpt lat="50.45759" lon="3.62643">
        <ele>13</ele>
        <time>2021-09-11T14:37:03.431Z</time>
      </trkpt>
      <trkpt lat="50.45751" lon="3.62636">
        <ele>13.1</ele>
        <time>2021-09-11T14:37:07.177Z</time>
      </trkpt>
      <trkpt lat="50.45747" lon="3.62632">
        <ele>13.2</ele>
        <time>2021-09-11T14:37:09.341Z</time>
      </trkpt>
      <trkpt lat="50.45739" lon="3.62624">
        <ele>13.5</ele>
        <time>2021-09-11T14:37:14.257Z</time>
      </trkpt>
      <trkpt lat="50.45735" lon="3.62619">
        <ele>13.7</ele>
        <time>2021-09-11T14:37:17.190Z</time>
      </trkpt>
      <trkpt lat="50.45728" lon="3.62613">
        <ele>13.9</ele>
        <time>2021-09-11T14:37:21.002Z</time>
      </trkpt>
      <trkpt lat="50.45722" lon="3.62606">
        <ele>13.8</ele>
        <time>2021-09-11T14:37:22.498Z</time>
      </trkpt>
      <trkpt lat="50.45717" lon="3.62594">
        <ele>13.5</ele>
        <time>2021-09-11T14:37:23.963Z</time>
      </trkpt>
      <trkpt lat="50.45707" lon="3.62587">
        <ele>13.6</ele>
        <time>2021-09-11T14:37:28.362Z</time>
      </trkpt>
      <trkpt lat="50.45698" lon="3.62583">
        <ele>13.9</ele>
        <time>2021-09-11T14:37:33.238Z</time>
      </trkpt>
      <trkpt lat="50.45693" lon="3.62579">
        <ele>14.1</ele>
        <time>2021-09-11T14:37:36.305Z</time>
      </trkpt>
      <trkpt lat="50.45684" lon="3.62574">
        <ele>14.4</ele>
        <time>2021-09-11T14:37:41.241Z</time>
      </trkpt>
      <trkpt lat="50.45678" lon="3.62568">
        <ele>14.6</ele>
        <time>2021-09-11T14:37:44.768Z</time>
      </trkpt>
      <trkpt lat="50.45672" lon="3.62565">
        <ele>14.8</ele>
        <time>2021-09-11T14:37:48.037Z</time>
      </trkpt>
      <trkpt lat="50.45667" lon="3.62561">
        <ele>15</ele>
        <time>2021-09-11T14:37:51.104Z</time>
      </trkpt>
      <trkpt lat="50.45663" lon="3.62557">
        <ele>15</ele>
        <time>2021-09-11T14:37:52.850Z</time>
      </trkpt>
      <trkpt lat="50.45657" lon="3.62553">
        <ele>15</ele>
        <time>2021-09-11T14:37:55.250Z</time>
      </trkpt>
      <trkpt lat="50.45652" lon="3.6255">
        <ele>15.1</ele>
        <time>2021-09-11T14:37:57.627Z</time>
      </trkpt>
      <trkpt lat="50.45647" lon="3.62545">
        <ele>15.3</ele>
        <time>2021-09-11T14:38:00.786Z</time>
      </trkpt>
      <trkpt lat="50.4564" lon="3.6254">
        <ele>15.5</ele>
        <time>2021-09-11T14:38:04.502Z</time>
      </trkpt>
      <trkpt lat="50.45634" lon="3.62535">
        <ele>15.8</ele>
        <time>2021-09-11T14:38:08.702Z</time>
      </trkpt>
      <trkpt lat="50.45628" lon="3.62531">
        <ele>15.9</ele>
        <time>2021-09-11T14:38:11.494Z</time>
      </trkpt>
      <trkpt lat="50.45621" lon="3.62527">
        <ele>16</ele>
        <time>2021-09-11T14:38:14.621Z</time>
      </trkpt>
      <trkpt lat="50.45612" lon="3.62522">
        <ele>16</ele>
        <time>2021-09-11T14:38:18.136Z</time>
      </trkpt>
      <trkpt lat="50.45606" lon="3.62518">
        <ele>16</ele>
        <time>2021-09-11T14:38:20.535Z</time>
      </trkpt>
      <trkpt lat="50.456" lon="3.62514">
        <ele>16</ele>
        <time>2021-09-11T14:38:22.935Z</time>
      </trkpt>
      <trkpt lat="50.45594" lon="3.62511">
        <ele>16</ele>
        <time>2021-09-11T14:38:25.253Z</time>
      </trkpt>
      <trkpt lat="50.45588" lon="3.62507">
        <ele>16</ele>
        <time>2021-09-11T14:38:27.653Z</time>
      </trkpt>
      <trkpt lat="50.45578" lon="3.62501">
        <ele>16.2</ele>
        <time>2021-09-11T14:38:32.408Z</time>
      </trkpt>
      <trkpt lat="50.45571" lon="3.62497">
        <ele>16.4</ele>
        <time>2021-09-11T14:38:36.045Z</time>
      </trkpt>
      <trkpt lat="50.45564" lon="3.62494">
        <ele>16.7</ele>
        <time>2021-09-11T14:38:40.344Z</time>
      </trkpt>
      <trkpt lat="50.45557" lon="3.62492">
        <ele>16.9</ele>
        <time>2021-09-11T14:38:43.872Z</time>
      </trkpt>
      <trkpt lat="50.45552" lon="3.6249">
        <ele>17</ele>
        <time>2021-09-11T14:38:46.182Z</time>
      </trkpt>
      <trkpt lat="50.45545" lon="3.62488">
        <ele>17</ele>
        <time>2021-09-11T14:38:48.801Z</time>
      </trkpt>
      <trkpt lat="50.45538" lon="3.62483">
        <ele>17</ele>
        <time>2021-09-11T14:38:51.632Z</time>
      </trkpt>
      <trkpt lat="50.45531" lon="3.62476">
        <ele>17</ele>
        <time>2021-09-11T14:38:54.687Z</time>
      </trkpt>
      <trkpt lat="50.45524" lon="3.62472">
        <ele>17</ele>
        <time>2021-09-11T14:38:57.430Z</time>
      </trkpt>
      <trkpt lat="50.45516" lon="3.62467">
        <ele>17</ele>
        <time>2021-09-11T14:39:00.600Z</time>
      </trkpt>
      <trkpt lat="50.4551" lon="3.62464">
        <ele>17</ele>
        <time>2021-09-11T14:39:02.918Z</time>
      </trkpt>
      <trkpt lat="50.45505" lon="3.62461">
        <ele>17</ele>
        <time>2021-09-11T14:39:04.888Z</time>
      </trkpt>
      <trkpt lat="50.45502" lon="3.62455">
        <ele>17</ele>
        <time>2021-09-11T14:39:06.677Z</time>
      </trkpt>
      <trkpt lat="50.45497" lon="3.62448">
        <ele>17</ele>
        <time>2021-09-11T14:39:09.143Z</time>
      </trkpt>
      <trkpt lat="50.45491" lon="3.6244">
        <ele>17</ele>
        <time>2021-09-11T14:39:12.040Z</time>
      </trkpt>
      <trkpt lat="50.45486" lon="3.62433">
        <ele>17</ele>
        <time>2021-09-11T14:39:14.506Z</time>
      </trkpt>
      <trkpt lat="50.45482" lon="3.62425">
        <ele>17</ele>
        <time>2021-09-11T14:39:16.891Z</time>
      </trkpt>
      <trkpt lat="50.45479" lon="3.62418">
        <ele>17</ele>
        <time>2021-09-11T14:39:18.869Z</time>
      </trkpt>
      <trkpt lat="50.45474" lon="3.62408">
        <ele>17</ele>
        <time>2021-09-11T14:39:21.849Z</time>
      </trkpt>
      <trkpt lat="50.45472" lon="3.624">
        <ele>17</ele>
        <time>2021-09-11T14:39:23.864Z</time>
      </trkpt>
      <trkpt lat="50.45468" lon="3.6239">
        <ele>17</ele>
        <time>2021-09-11T14:39:26.632Z</time>
      </trkpt>
      <trkpt lat="50.45464" lon="3.62379">
        <ele>17.1</ele>
        <time>2021-09-11T14:39:29.982Z</time>
      </trkpt>
      <trkpt lat="50.4546" lon="3.62374">
        <ele>17.2</ele>
        <time>2021-09-11T14:39:32.275Z</time>
      </trkpt>
      <trkpt lat="50.45458" lon="3.62367">
        <ele>17.4</ele>
        <time>2021-09-11T14:39:35.152Z</time>
      </trkpt>
      <trkpt lat="50.45456" lon="3.62361">
        <ele>17.6</ele>
        <time>2021-09-11T14:39:37.864Z</time>
      </trkpt>
      <trkpt lat="50.45453" lon="3.62354">
        <ele>17.5</ele>
        <time>2021-09-11T14:39:38.872Z</time>
      </trkpt>
      <trkpt lat="50.45451" lon="3.62348">
        <ele>17.4</ele>
        <time>2021-09-11T14:39:39.640Z</time>
      </trkpt>
      <trkpt lat="50.45445" lon="3.62336">
        <ele>17.1</ele>
        <time>2021-09-11T14:39:41.231Z</time>
      </trkpt>
      <trkpt lat="50.45442" lon="3.6233">
        <ele>17</ele>
        <time>2021-09-11T14:39:42.122Z</time>
      </trkpt>
      <trkpt lat="50.45439" lon="3.62321">
        <ele>17</ele>
        <time>2021-09-11T14:39:44.503Z</time>
      </trkpt>
      <trkpt lat="50.45435" lon="3.62312">
        <ele>17</ele>
        <time>2021-09-11T14:39:47.076Z</time>
      </trkpt>
      <trkpt lat="50.4543" lon="3.62299">
        <ele>17.1</ele>
        <time>2021-09-11T14:39:51.009Z</time>
      </trkpt>
      <trkpt lat="50.45428" lon="3.62292">
        <ele>17.2</ele>
        <time>2021-09-11T14:39:53.222Z</time>
      </trkpt>
      <trkpt lat="50.45424" lon="3.62282">
        <ele>17.2</ele>
        <time>2021-09-11T14:39:55.991Z</time>
      </trkpt>
      <trkpt lat="50.45421" lon="3.62275">
        <ele>17.2</ele>
        <time>2021-09-11T14:39:57.968Z</time>
      </trkpt>
      <trkpt lat="50.45417" lon="3.62266">
        <ele>17.4</ele>
        <time>2021-09-11T14:40:01.455Z</time>
      </trkpt>
      <trkpt lat="50.45413" lon="3.62258">
        <ele>17.6</ele>
        <time>2021-09-11T14:40:04.780Z</time>
      </trkpt>
      <trkpt lat="50.45408" lon="3.62249">
        <ele>17.7</ele>
        <time>2021-09-11T14:40:07.964Z</time>
      </trkpt>
      <trkpt lat="50.45405" lon="3.62241">
        <ele>17.7</ele>
        <time>2021-09-11T14:40:10.140Z</time>
      </trkpt>
      <trkpt lat="50.45401" lon="3.62233">
        <ele>17.8</ele>
        <time>2021-09-11T14:40:12.917Z</time>
      </trkpt>
      <trkpt lat="50.45398" lon="3.62227">
        <ele>17.9</ele>
        <time>2021-09-11T14:40:15.121Z</time>
      </trkpt>
      <trkpt lat="50.45396" lon="3.62221">
        <ele>18</ele>
        <time>2021-09-11T14:40:17.137Z</time>
      </trkpt>
      <trkpt lat="50.45393" lon="3.6221">
        <ele>18.4</ele>
        <time>2021-09-11T14:40:22.123Z</time>
      </trkpt>
      <trkpt lat="50.4539" lon="3.62203">
        <ele>18.7</ele>
        <time>2021-09-11T14:40:25.719Z</time>
      </trkpt>
      <trkpt lat="50.45395" lon="3.62199">
        <ele>18.7</ele>
        <time>2021-09-11T14:40:27.785Z</time>
      </trkpt>
      <trkpt lat="50.454" lon="3.62195">
        <ele>18.6</ele>
        <time>2021-09-11T14:40:28.849Z</time>
      </trkpt>
      <trkpt lat="50.45403" lon="3.62187">
        <ele>18.5</ele>
        <time>2021-09-11T14:40:29.981Z</time>
      </trkpt>
      <trkpt lat="50.45407" lon="3.6218">
        <ele>18.3</ele>
        <time>2021-09-11T14:40:30.937Z</time>
      </trkpt>
      <trkpt lat="50.45414" lon="3.62167">
        <ele>18.1</ele>
        <time>2021-09-11T14:40:32.976Z</time>
      </trkpt>
      <trkpt lat="50.45417" lon="3.62161">
        <ele>18</ele>
        <time>2021-09-11T14:40:33.867Z</time>
      </trkpt>
      <trkpt lat="50.45421" lon="3.62155">
        <ele>18</ele>
        <time>2021-09-11T14:40:35.903Z</time>
      </trkpt>
      <trkpt lat="50.45425" lon="3.62149">
        <ele>18</ele>
        <time>2021-09-11T14:40:37.940Z</time>
      </trkpt>
      <trkpt lat="50.45431" lon="3.62141">
        <ele>18</ele>
        <time>2021-09-11T14:40:40.837Z</time>
      </trkpt>
      <trkpt lat="50.45426" lon="3.62143">
        <ele>18</ele>
        <time>2021-09-11T14:40:42.737Z</time>
      </trkpt>
      <trkpt lat="50.4543" lon="3.62135">
        <ele>17.9</ele>
        <time>2021-09-11T14:40:44.001Z</time>
      </trkpt>
      <trkpt lat="50.45434" lon="3.62129">
        <ele>17.6</ele>
        <time>2021-09-11T14:40:44.729Z</time>
      </trkpt>
      <trkpt lat="50.45437" lon="3.62123">
        <ele>17.4</ele>
        <time>2021-09-11T14:40:45.448Z</time>
      </trkpt>
      <trkpt lat="50.45451" lon="3.62101">
        <ele>17</ele>
        <time>2021-09-11T14:40:49.097Z</time>
      </trkpt>
      <trkpt lat="50.45457" lon="3.62089">
        <ele>17</ele>
        <time>2021-09-11T14:40:52.673Z</time>
      </trkpt>
      <trkpt lat="50.45462" lon="3.62079">
        <ele>17</ele>
        <time>2021-09-11T14:40:55.654Z</time>
      </trkpt>
      <trkpt lat="50.45466" lon="3.62071">
        <ele>17</ele>
        <time>2021-09-11T14:40:58.038Z</time>
      </trkpt>
      <trkpt lat="50.45468" lon="3.62064">
        <ele>17</ele>
        <time>2021-09-11T14:40:59.837Z</time>
      </trkpt>
      <trkpt lat="50.45471" lon="3.62057">
        <ele>17</ele>
        <time>2021-09-11T14:41:01.815Z</time>
      </trkpt>
      <trkpt lat="50.45475" lon="3.62051">
        <ele>17</ele>
        <time>2021-09-11T14:41:03.851Z</time>
      </trkpt>
      <trkpt lat="50.45479" lon="3.62045">
        <ele>17</ele>
        <time>2021-09-11T14:41:05.887Z</time>
      </trkpt>
      <trkpt lat="50.45483" lon="3.62038">
        <ele>17</ele>
        <time>2021-09-11T14:41:08.092Z</time>
      </trkpt>
      <trkpt lat="50.4549" lon="3.62028">
        <ele>17</ele>
        <time>2021-09-11T14:41:11.576Z</time>
      </trkpt>
      <trkpt lat="50.45496" lon="3.62018">
        <ele>17</ele>
        <time>2021-09-11T14:41:14.797Z</time>
      </trkpt>
      <trkpt lat="50.45503" lon="3.62006">
        <ele>17.1</ele>
        <time>2021-09-11T14:41:18.982Z</time>
      </trkpt>
      <trkpt lat="50.45506" lon="3.61998">
        <ele>17.2</ele>
        <time>2021-09-11T14:41:21.557Z</time>
      </trkpt>
      <trkpt lat="50.45509" lon="3.61992">
        <ele>17.3</ele>
        <time>2021-09-11T14:41:23.761Z</time>
      </trkpt>
      <trkpt lat="50.45524" lon="3.61973">
        <ele>17.9</ele>
        <time>2021-09-11T14:41:33.686Z</time>
      </trkpt>
      <trkpt lat="50.45534" lon="3.61958">
        <ele>18.2</ele>
        <time>2021-09-11T14:41:40.040Z</time>
      </trkpt>
      <trkpt lat="50.4555" lon="3.61929">
        <ele>18.2</ele>
        <time>2021-09-11T14:41:49.034Z</time>
      </trkpt>
      <trkpt lat="50.45558" lon="3.61914">
        <ele>18.1</ele>
        <time>2021-09-11T14:41:51.711Z</time>
      </trkpt>
      <trkpt lat="50.45579" lon="3.6187">
        <ele>18.2</ele>
        <time>2021-09-11T14:42:04.947Z</time>
      </trkpt>
      <trkpt lat="50.45584" lon="3.6185">
        <ele>18</ele>
        <time>2021-09-11T14:42:07.643Z</time>
      </trkpt>
      <trkpt lat="50.45574" lon="3.61825">
        <ele>17.7</ele>
        <time>2021-09-11T14:42:11.288Z</time>
      </trkpt>
      <trkpt lat="50.45573" lon="3.61797">
        <ele>17.4</ele>
        <time>2021-09-11T14:42:14.713Z</time>
      </trkpt>
      <trkpt lat="50.45579" lon="3.61799">
        <ele>17.6</ele>
        <time>2021-09-11T14:42:17.933Z</time>
      </trkpt>
      <trkpt lat="50.45585" lon="3.61785">
        <ele>17.3</ele>
        <time>2021-09-11T14:42:19.749Z</time>
      </trkpt>
      <trkpt lat="50.45592" lon="3.6177">
        <ele>17</ele>
        <time>2021-09-11T14:42:21.807Z</time>
      </trkpt>
      <trkpt lat="50.45606" lon="3.61744">
        <ele>17.2</ele>
        <time>2021-09-11T14:42:30.525Z</time>
      </trkpt>
      <trkpt lat="50.45631" lon="3.61707">
        <ele>18</ele>
        <time>2021-09-11T14:42:46.601Z</time>
      </trkpt>
      <trkpt lat="50.45642" lon="3.61692">
        <ele>18</ele>
        <time>2021-09-11T14:42:51.964Z</time>
      </trkpt>
      <trkpt lat="50.45654" lon="3.61677">
        <ele>18</ele>
        <time>2021-09-11T14:42:57.610Z</time>
      </trkpt>
      <trkpt lat="50.4567" lon="3.61664">
        <ele>18.1</ele>
        <time>2021-09-11T14:43:04.598Z</time>
      </trkpt>
      <trkpt lat="50.45691" lon="3.6165">
        <ele>18.6</ele>
        <time>2021-09-11T14:43:15.107Z</time>
      </trkpt>
      <trkpt lat="50.45704" lon="3.61639">
        <ele>18.7</ele>
        <time>2021-09-11T14:43:20.902Z</time>
      </trkpt>
      <trkpt lat="50.45718" lon="3.61623">
        <ele>18.2</ele>
        <time>2021-09-11T14:43:23.798Z</time>
      </trkpt>
      <trkpt lat="50.45726" lon="3.61615">
        <ele>18</ele>
        <time>2021-09-11T14:43:25.528Z</time>
      </trkpt>
      <trkpt lat="50.4574" lon="3.61603">
        <ele>18</ele>
        <time>2021-09-11T14:43:31.399Z</time>
      </trkpt>
      <trkpt lat="50.45744" lon="3.616">
        <ele>18</ele>
        <time>2021-09-11T14:43:33.031Z</time>
      </trkpt>
      <trkpt lat="50.45749" lon="3.61597">
        <ele>18</ele>
        <time>2021-09-11T14:43:35.002Z</time>
      </trkpt>
      <trkpt lat="50.45755" lon="3.61593">
        <ele>17.9</ele>
        <time>2021-09-11T14:43:36.275Z</time>
      </trkpt>
      <trkpt lat="50.4576" lon="3.61589">
        <ele>17.9</ele>
        <time>2021-09-11T14:43:38.341Z</time>
      </trkpt>
      <trkpt lat="50.45768" lon="3.61583">
        <ele>18</ele>
        <time>2021-09-11T14:43:41.981Z</time>
      </trkpt>
      <trkpt lat="50.45775" lon="3.61577">
        <ele>18</ele>
        <time>2021-09-11T14:43:44.917Z</time>
      </trkpt>
      <trkpt lat="50.45779" lon="3.61573">
        <ele>18</ele>
        <time>2021-09-11T14:43:46.663Z</time>
      </trkpt>
      <trkpt lat="50.45787" lon="3.61567">
        <ele>17.7</ele>
        <time>2021-09-11T14:43:48.071Z</time>
      </trkpt>
      <trkpt lat="50.45791" lon="3.61564">
        <ele>17.5</ele>
        <time>2021-09-11T14:43:48.704Z</time>
      </trkpt>
      <trkpt lat="50.45801" lon="3.61557">
        <ele>17.2</ele>
        <time>2021-09-11T14:43:50.564Z</time>
      </trkpt>
      <trkpt lat="50.4581" lon="3.61547">
        <ele>17</ele>
        <time>2021-09-11T14:43:52.645Z</time>
      </trkpt>
      <trkpt lat="50.45819" lon="3.61537">
        <ele>17</ele>
        <time>2021-09-11T14:43:56.704Z</time>
      </trkpt>
      <trkpt lat="50.45833" lon="3.61519">
        <ele>17</ele>
        <time>2021-09-11T14:44:03.365Z</time>
      </trkpt>
      <trkpt lat="50.4585" lon="3.61472">
        <ele>17</ele>
        <time>2021-09-11T14:44:16.035Z</time>
      </trkpt>
      <trkpt lat="50.45866" lon="3.61432">
        <ele>17.8</ele>
        <time>2021-09-11T14:44:30.674Z</time>
      </trkpt>
      <trkpt lat="50.45881" lon="3.61392">
        <ele>17.9</ele>
        <time>2021-09-11T14:44:41.903Z</time>
      </trkpt>
      <trkpt lat="50.45889" lon="3.61374">
        <ele>18</ele>
        <time>2021-09-11T14:44:47.409Z</time>
      </trkpt>
      <trkpt lat="50.45896" lon="3.61346">
        <ele>17.7</ele>
        <time>2021-09-11T14:44:51.135Z</time>
      </trkpt>
      <trkpt lat="50.45904" lon="3.61321">
        <ele>17.5</ele>
        <time>2021-09-11T14:44:54.802Z</time>
      </trkpt>
      <trkpt lat="50.45916" lon="3.61292">
        <ele>17.5</ele>
        <time>2021-09-11T14:45:02.909Z</time>
      </trkpt>
      <trkpt lat="50.45921" lon="3.61277">
        <ele>18</ele>
        <time>2021-09-11T14:45:09.687Z</time>
      </trkpt>
      <trkpt lat="50.45933" lon="3.61241">
        <ele>18</ele>
        <time>2021-09-11T14:45:19.212Z</time>
      </trkpt>
      <trkpt lat="50.45942" lon="3.61211">
        <ele>18</ele>
        <time>2021-09-11T14:45:26.985Z</time>
      </trkpt>
      <trkpt lat="50.4595" lon="3.61179">
        <ele>18</ele>
        <time>2021-09-11T14:45:35.043Z</time>
      </trkpt>
      <trkpt lat="50.45957" lon="3.61158">
        <ele>18</ele>
        <time>2021-09-11T14:45:40.599Z</time>
      </trkpt>
      <trkpt lat="50.45964" lon="3.61151">
        <ele>18</ele>
        <time>2021-09-11T14:45:43.654Z</time>
      </trkpt>
      <trkpt lat="50.45971" lon="3.61129">
        <ele>18</ele>
        <time>2021-09-11T14:45:49.418Z</time>
      </trkpt>
      <trkpt lat="50.45981" lon="3.61103">
        <ele>18.3</ele>
        <time>2021-09-11T14:45:57.717Z</time>
      </trkpt>
      <trkpt lat="50.45986" lon="3.61088">
        <ele>18.5</ele>
        <time>2021-09-11T14:46:02.498Z</time>
      </trkpt>
      <trkpt lat="50.45993" lon="3.61056">
        <ele>18.7</ele>
        <time>2021-09-11T14:46:11.166Z</time>
      </trkpt>
      <trkpt lat="50.45998" lon="3.61039">
        <ele>19</ele>
        <time>2021-09-11T14:46:16.870Z</time>
      </trkpt>
      <trkpt lat="50.46002" lon="3.61022">
        <ele>18.9</ele>
        <time>2021-09-11T14:46:19.327Z</time>
      </trkpt>
      <trkpt lat="50.46008" lon="3.61005">
        <ele>18.7</ele>
        <time>2021-09-11T14:46:21.720Z</time>
      </trkpt>
      <trkpt lat="50.46022" lon="3.60971">
        <ele>18.2</ele>
        <time>2021-09-11T14:46:26.515Z</time>
      </trkpt>
      <trkpt lat="50.46029" lon="3.60952">
        <ele>18</ele>
        <time>2021-09-11T14:46:29.280Z</time>
      </trkpt>
      <trkpt lat="50.4605" lon="3.60924">
        <ele>19.3</ele>
        <time>2021-09-11T14:46:46.692Z</time>
      </trkpt>
      <trkpt lat="50.4606" lon="3.60915">
        <ele>19.6</ele>
        <time>2021-09-11T14:46:52.264Z</time>
      </trkpt>
      <trkpt lat="50.46091" lon="3.60888">
        <ele>19.3</ele>
        <time>2021-09-11T14:46:59.834Z</time>
      </trkpt>
      <trkpt lat="50.46119" lon="3.60857">
        <ele>19.3</ele>
        <time>2021-09-11T14:47:12.446Z</time>
      </trkpt>
      <trkpt lat="50.46131" lon="3.60823">
        <ele>19</ele>
        <time>2021-09-11T14:47:17.482Z</time>
      </trkpt>
      <trkpt lat="50.4613" lon="3.60804">
        <ele>17.6</ele>
        <time>2021-09-11T14:47:19.063Z</time>
      </trkpt>
      <trkpt lat="50.46132" lon="3.60787">
        <ele>17.2</ele>
        <time>2021-09-11T14:47:20.768Z</time>
      </trkpt>
      <trkpt lat="50.46135" lon="3.60753">
        <ele>17</ele>
        <time>2021-09-11T14:47:25.392Z</time>
      </trkpt>
      <trkpt lat="50.46127" lon="3.60712">
        <ele>17.2</ele>
        <time>2021-09-11T14:47:36.165Z</time>
      </trkpt>
      <trkpt lat="50.46131" lon="3.60692">
        <ele>17.3</ele>
        <time>2021-09-11T14:47:41.441Z</time>
      </trkpt>
      <trkpt lat="50.46138" lon="3.60655">
        <ele>17</ele>
        <time>2021-09-11T14:47:46.435Z</time>
      </trkpt>
      <trkpt lat="50.46145" lon="3.6063">
        <ele>17</ele>
        <time>2021-09-11T14:47:52.836Z</time>
      </trkpt>
      <trkpt lat="50.46151" lon="3.60589">
        <ele>17</ele>
        <time>2021-09-11T14:48:02.696Z</time>
      </trkpt>
      <trkpt lat="50.46155" lon="3.60545">
        <ele>17.2</ele>
        <time>2021-09-11T14:48:13.834Z</time>
      </trkpt>
      <trkpt lat="50.46159" lon="3.60506">
        <ele>17.8</ele>
        <time>2021-09-11T14:48:25.682Z</time>
      </trkpt>
      <trkpt lat="50.4616" lon="3.60471">
        <ele>18</ele>
        <time>2021-09-11T14:48:34.628Z</time>
      </trkpt>
      <trkpt lat="50.46159" lon="3.60457">
        <ele>18</ele>
        <time>2021-09-11T14:48:37.929Z</time>
      </trkpt>
      <trkpt lat="50.46156" lon="3.60435">
        <ele>18</ele>
        <time>2021-09-11T14:48:43.203Z</time>
      </trkpt>
      <trkpt lat="50.4615" lon="3.60408">
        <ele>18</ele>
        <time>2021-09-11T14:48:49.905Z</time>
      </trkpt>
      <trkpt lat="50.46168" lon="3.60369">
        <ele>18</ele>
        <time>2021-09-11T14:49:01.195Z</time>
      </trkpt>
      <trkpt lat="50.46174" lon="3.60347">
        <ele>17.9</ele>
        <time>2021-09-11T14:49:06.292Z</time>
      </trkpt>
      <trkpt lat="50.46182" lon="3.60328">
        <ele>18</ele>
        <time>2021-09-11T14:49:11.991Z</time>
      </trkpt>
      <trkpt lat="50.46175" lon="3.60321">
        <ele>18</ele>
        <time>2021-09-11T14:49:15.046Z</time>
      </trkpt>
      <trkpt lat="50.46173" lon="3.60315">
        <ele>18</ele>
        <time>2021-09-11T14:49:16.633Z</time>
      </trkpt>
      <trkpt lat="50.46175" lon="3.60298">
        <ele>18</ele>
        <time>2021-09-11T14:49:20.685Z</time>
      </trkpt>
      <trkpt lat="50.46176" lon="3.60254">
        <ele>18</ele>
        <time>2021-09-11T14:49:31.004Z</time>
      </trkpt>
      <trkpt lat="50.46175" lon="3.60208">
        <ele>18</ele>
        <time>2021-09-11T14:49:41.791Z</time>
      </trkpt>
      <trkpt lat="50.4618" lon="3.6016">
        <ele>18</ele>
        <time>2021-09-11T14:49:53.191Z</time>
      </trkpt>
      <trkpt lat="50.46179" lon="3.60138">
        <ele>18</ele>
        <time>2021-09-11T14:49:58.360Z</time>
      </trkpt>
      <trkpt lat="50.46174" lon="3.60096">
        <ele>18</ele>
        <time>2021-09-11T14:50:08.374Z</time>
      </trkpt>
      <trkpt lat="50.46173" lon="3.60075">
        <ele>18</ele>
        <time>2021-09-11T14:50:13.309Z</time>
      </trkpt>
      <trkpt lat="50.46171" lon="3.60057">
        <ele>18</ele>
        <time>2021-09-11T14:50:17.592Z</time>
      </trkpt>
      <trkpt lat="50.4617" lon="3.60025">
        <ele>17.9</ele>
        <time>2021-09-11T14:50:24.576Z</time>
      </trkpt>
      <trkpt lat="50.46169" lon="3.59984">
        <ele>17</ele>
        <time>2021-09-11T14:50:28.700Z</time>
      </trkpt>
      <trkpt lat="50.46168" lon="3.59965">
        <ele>17</ele>
        <time>2021-09-11T14:50:33.169Z</time>
      </trkpt>
      <trkpt lat="50.46162" lon="3.59967">
        <ele>17</ele>
        <time>2021-09-11T14:50:35.427Z</time>
      </trkpt>
      <trkpt lat="50.46156" lon="3.59965">
        <ele>17</ele>
        <time>2021-09-11T14:50:37.685Z</time>
      </trkpt>
      <trkpt lat="50.46147" lon="3.59962">
        <ele>17</ele>
        <time>2021-09-11T14:50:41.072Z</time>
      </trkpt>
      <trkpt lat="50.4614" lon="3.59959">
        <ele>17</ele>
        <time>2021-09-11T14:50:43.744Z</time>
      </trkpt>
      <trkpt lat="50.46131" lon="3.59955">
        <ele>17</ele>
        <time>2021-09-11T14:50:47.187Z</time>
      </trkpt>
      <trkpt lat="50.46126" lon="3.59942">
        <ele>17</ele>
        <time>2021-09-11T14:50:50.747Z</time>
      </trkpt>
      <trkpt lat="50.46124" lon="3.59935">
        <ele>17</ele>
        <time>2021-09-11T14:50:52.545Z</time>
      </trkpt>
      <trkpt lat="50.46122" lon="3.59928">
        <ele>17</ele>
        <time>2021-09-11T14:50:54.343Z</time>
      </trkpt>
      <trkpt lat="50.4612" lon="3.59919">
        <ele>17</ele>
        <time>2021-09-11T14:50:56.578Z</time>
      </trkpt>
      <trkpt lat="50.46116" lon="3.59907">
        <ele>17</ele>
        <time>2021-09-11T14:50:59.752Z</time>
      </trkpt>
      <trkpt lat="50.46113" lon="3.59897">
        <ele>17</ele>
        <time>2021-09-11T14:51:02.343Z</time>
      </trkpt>
      <trkpt lat="50.4611" lon="3.59888">
        <ele>17</ele>
        <time>2021-09-11T14:51:04.724Z</time>
      </trkpt>
      <trkpt lat="50.46104" lon="3.59875">
        <ele>17</ele>
        <time>2021-09-11T14:51:08.488Z</time>
      </trkpt>
      <trkpt lat="50.46099" lon="3.59865">
        <ele>17</ele>
        <time>2021-09-11T14:51:11.468Z</time>
      </trkpt>
      <trkpt lat="50.46096" lon="3.5986">
        <ele>17</ele>
        <time>2021-09-11T14:51:13.078Z</time>
      </trkpt>
      <trkpt lat="50.46088" lon="3.59848">
        <ele>17</ele>
        <time>2021-09-11T14:51:17.151Z</time>
      </trkpt>
      <trkpt lat="50.46084" lon="3.59841">
        <ele>17</ele>
        <time>2021-09-11T14:51:19.355Z</time>
      </trkpt>
      <trkpt lat="50.46081" lon="3.59834">
        <ele>17</ele>
        <time>2021-09-11T14:51:21.333Z</time>
      </trkpt>
      <trkpt lat="50.46078" lon="3.59827">
        <ele>17</ele>
        <time>2021-09-11T14:51:23.311Z</time>
      </trkpt>
      <trkpt lat="50.46075" lon="3.59821">
        <ele>17</ele>
        <time>2021-09-11T14:51:25.099Z</time>
      </trkpt>
      <trkpt lat="50.46072" lon="3.59815">
        <ele>17</ele>
        <time>2021-09-11T14:51:26.887Z</time>
      </trkpt>
      <trkpt lat="50.46067" lon="3.59805">
        <ele>17</ele>
        <time>2021-09-11T14:51:29.867Z</time>
      </trkpt>
      <trkpt lat="50.46063" lon="3.59798">
        <ele>17</ele>
        <time>2021-09-11T14:51:32.072Z</time>
      </trkpt>
      <trkpt lat="50.46058" lon="3.5979">
        <ele>17</ele>
        <time>2021-09-11T14:51:34.700Z</time>
      </trkpt>
      <trkpt lat="50.46054" lon="3.59783">
        <ele>17</ele>
        <time>2021-09-11T14:51:36.904Z</time>
      </trkpt>
      <trkpt lat="50.46048" lon="3.59772">
        <ele>17.2</ele>
        <time>2021-09-11T14:51:41.141Z</time>
      </trkpt>
      <trkpt lat="50.46044" lon="3.59766">
        <ele>17.4</ele>
        <time>2021-09-11T14:51:44.186Z</time>
      </trkpt>
      <trkpt lat="50.46036" lon="3.5976">
        <ele>17.6</ele>
        <time>2021-09-11T14:51:48.300Z</time>
      </trkpt>
      <trkpt lat="50.4603" lon="3.59755">
        <ele>17.8</ele>
        <time>2021-09-11T14:51:51.724Z</time>
      </trkpt>
      <trkpt lat="50.46023" lon="3.59751">
        <ele>18</ele>
        <time>2021-09-11T14:51:55.361Z</time>
      </trkpt>
      <trkpt lat="50.46019" lon="3.59746">
        <ele>18</ele>
        <time>2021-09-11T14:51:57.243Z</time>
      </trkpt>
      <trkpt lat="50.4601" lon="3.59742">
        <ele>18</ele>
        <time>2021-09-11T14:52:00.686Z</time>
      </trkpt>
      <trkpt lat="50.46001" lon="3.59739">
        <ele>18</ele>
        <time>2021-09-11T14:52:04.073Z</time>
      </trkpt>
      <trkpt lat="50.45997" lon="3.59738">
        <ele>17.9</ele>
        <time>2021-09-11T14:52:04.782Z</time>
      </trkpt>
      <trkpt lat="50.4599" lon="3.59736">
        <ele>17.8</ele>
        <time>2021-09-11T14:52:06.195Z</time>
      </trkpt>
      <trkpt lat="50.4598" lon="3.59733">
        <ele>17.7</ele>
        <time>2021-09-11T14:52:08.330Z</time>
      </trkpt>
      <trkpt lat="50.45972" lon="3.59732">
        <ele>17.6</ele>
        <time>2021-09-11T14:52:09.956Z</time>
      </trkpt>
      <trkpt lat="50.45967" lon="3.59731">
        <ele>17.7</ele>
        <time>2021-09-11T14:52:12.223Z</time>
      </trkpt>
      <trkpt lat="50.45958" lon="3.59732">
        <ele>17.6</ele>
        <time>2021-09-11T14:52:14.084Z</time>
      </trkpt>
      <trkpt lat="50.4595" lon="3.59733">
        <ele>17.6</ele>
        <time>2021-09-11T14:52:17.039Z</time>
      </trkpt>
      <trkpt lat="50.45946" lon="3.59737">
        <ele>17.5</ele>
        <time>2021-09-11T14:52:17.904Z</time>
      </trkpt>
      <trkpt lat="50.45942" lon="3.59746">
        <ele>17.1</ele>
        <time>2021-09-11T14:52:18.802Z</time>
      </trkpt>
      <trkpt lat="50.45938" lon="3.59749">
        <ele>17</ele>
        <time>2021-09-11T14:52:19.596Z</time>
      </trkpt>
      <trkpt lat="50.45929" lon="3.59751">
        <ele>17</ele>
        <time>2021-09-11T14:52:22.943Z</time>
      </trkpt>
      <trkpt lat="50.45923" lon="3.59761">
        <ele>16.7</ele>
        <time>2021-09-11T14:52:24.326Z</time>
      </trkpt>
      <trkpt lat="50.45919" lon="3.59766">
        <ele>16.5</ele>
        <time>2021-09-11T14:52:25.098Z</time>
      </trkpt>
      <trkpt lat="50.45915" lon="3.59779">
        <ele>16.1</ele>
        <time>2021-09-11T14:52:26.428Z</time>
      </trkpt>
      <trkpt lat="50.45908" lon="3.59786">
        <ele>16.2</ele>
        <time>2021-09-11T14:52:29.862Z</time>
      </trkpt>
      <trkpt lat="50.45904" lon="3.59791">
        <ele>16.2</ele>
        <time>2021-09-11T14:52:31.744Z</time>
      </trkpt>
      <trkpt lat="50.459" lon="3.59796">
        <ele>16.2</ele>
        <time>2021-09-11T14:52:33.626Z</time>
      </trkpt>
      <trkpt lat="50.45897" lon="3.59801">
        <ele>16.1</ele>
        <time>2021-09-11T14:52:34.408Z</time>
      </trkpt>
      <trkpt lat="50.45892" lon="3.59808">
        <ele>16</ele>
        <time>2021-09-11T14:52:35.723Z</time>
      </trkpt>
      <trkpt lat="50.45888" lon="3.59816">
        <ele>16.1</ele>
        <time>2021-09-11T14:52:38.500Z</time>
      </trkpt>
      <trkpt lat="50.45885" lon="3.59823">
        <ele>16.2</ele>
        <time>2021-09-11T14:52:40.884Z</time>
      </trkpt>
      <trkpt lat="50.4588" lon="3.5983">
        <ele>16.4</ele>
        <time>2021-09-11T14:52:44.279Z</time>
      </trkpt>
      <trkpt lat="50.45876" lon="3.59837">
        <ele>16.4</ele>
        <time>2021-09-11T14:52:46.483Z</time>
      </trkpt>
      <trkpt lat="50.45873" lon="3.59843">
        <ele>16.4</ele>
        <time>2021-09-11T14:52:48.272Z</time>
      </trkpt>
      <trkpt lat="50.45868" lon="3.59849">
        <ele>16.3</ele>
        <time>2021-09-11T14:52:49.492Z</time>
      </trkpt>
      <trkpt lat="50.45861" lon="3.59856">
        <ele>16.2</ele>
        <time>2021-09-11T14:52:51.182Z</time>
      </trkpt>
      <trkpt lat="50.45855" lon="3.59859">
        <ele>16.3</ele>
        <time>2021-09-11T14:52:53.895Z</time>
      </trkpt>
      <trkpt lat="50.4585" lon="3.5986">
        <ele>16.4</ele>
        <time>2021-09-11T14:52:56.163Z</time>
      </trkpt>
      <trkpt lat="50.45844" lon="3.59862">
        <ele>16.6</ele>
        <time>2021-09-11T14:52:59.383Z</time>
      </trkpt>
      <trkpt lat="50.4584" lon="3.59865">
        <ele>16.8</ele>
        <time>2021-09-11T14:53:02.148Z</time>
      </trkpt>
      <trkpt lat="50.45836" lon="3.59871">
        <ele>16.9</ele>
        <time>2021-09-11T14:53:04.588Z</time>
      </trkpt>
      <trkpt lat="50.45832" lon="3.59877">
        <ele>17</ele>
        <time>2021-09-11T14:53:07.029Z</time>
      </trkpt>
      <trkpt lat="50.45829" lon="3.59884">
        <ele>17</ele>
        <time>2021-09-11T14:53:09.007Z</time>
      </trkpt>
      <trkpt lat="50.45825" lon="3.59898">
        <ele>17</ele>
        <time>2021-09-11T14:53:12.603Z</time>
      </trkpt>
      <trkpt lat="50.45823" lon="3.59905">
        <ele>17</ele>
        <time>2021-09-11T14:53:14.402Z</time>
      </trkpt>
      <trkpt lat="50.45819" lon="3.59915">
        <ele>17</ele>
        <time>2021-09-11T14:53:17.170Z</time>
      </trkpt>
      <trkpt lat="50.45816" lon="3.59921">
        <ele>17</ele>
        <time>2021-09-11T14:53:18.958Z</time>
      </trkpt>
      <trkpt lat="50.45813" lon="3.59926">
        <ele>17</ele>
        <time>2021-09-11T14:53:20.569Z</time>
      </trkpt>
      <trkpt lat="50.45808" lon="3.59931">
        <ele>17</ele>
        <time>2021-09-11T14:53:22.751Z</time>
      </trkpt>
      <trkpt lat="50.45802" lon="3.59933">
        <ele>17</ele>
        <time>2021-09-11T14:53:25.009Z</time>
      </trkpt>
      <trkpt lat="50.45788" lon="3.59933">
        <ele>17</ele>
        <time>2021-09-11T14:53:30.163Z</time>
      </trkpt>
      <trkpt lat="50.45769" lon="3.5993">
        <ele>17.2</ele>
        <time>2021-09-11T14:53:37.940Z</time>
      </trkpt>
      <trkpt lat="50.45753" lon="3.59951">
        <ele>16.8</ele>
        <time>2021-09-11T14:53:41.827Z</time>
      </trkpt>
      <trkpt lat="50.45738" lon="3.59974">
        <ele>16</ele>
        <time>2021-09-11T14:53:45.019Z</time>
      </trkpt>
      <trkpt lat="50.45714" lon="3.59959">
        <ele>16.3</ele>
        <time>2021-09-11T14:53:55.661Z</time>
      </trkpt>
      <trkpt lat="50.45707" lon="3.59949">
        <ele>16.4</ele>
        <time>2021-09-11T14:53:59.518Z</time>
      </trkpt>
      <trkpt lat="50.45699" lon="3.59933">
        <ele>16.5</ele>
        <time>2021-09-11T14:54:04.649Z</time>
      </trkpt>
      <trkpt lat="50.45693" lon="3.59914">
        <ele>16.9</ele>
        <time>2021-09-11T14:54:11.472Z</time>
      </trkpt>
      <trkpt lat="50.45689" lon="3.59881">
        <ele>17.1</ele>
        <time>2021-09-11T14:54:20.083Z</time>
      </trkpt>
      <trkpt lat="50.45673" lon="3.59854">
        <ele>17.2</ele>
        <time>2021-09-11T14:54:29.080Z</time>
      </trkpt>
      <trkpt lat="50.45654" lon="3.5982">
        <ele>17</ele>
        <time>2021-09-11T14:54:38.664Z</time>
      </trkpt>
      <trkpt lat="50.45654" lon="3.59795">
        <ele>17.5</ele>
        <time>2021-09-11T14:54:46.891Z</time>
      </trkpt>
      <trkpt lat="50.45654" lon="3.59771">
        <ele>17.8</ele>
        <time>2021-09-11T14:54:53.750Z</time>
      </trkpt>
      <trkpt lat="50.4565" lon="3.59739">
        <ele>18.4</ele>
        <time>2021-09-11T14:55:04.146Z</time>
      </trkpt>
      <trkpt lat="50.45646" lon="3.59726">
        <ele>18.3</ele>
        <time>2021-09-11T14:55:06.047Z</time>
      </trkpt>
      <trkpt lat="50.45642" lon="3.59715">
        <ele>18.4</ele>
        <time>2021-09-11T14:55:09.397Z</time>
      </trkpt>
      <trkpt lat="50.45632" lon="3.59703">
        <ele>18.4</ele>
        <time>2021-09-11T14:55:14.030Z</time>
      </trkpt>
      <trkpt lat="50.4563" lon="3.59692">
        <ele>18.7</ele>
        <time>2021-09-11T14:55:18.336Z</time>
      </trkpt>
      <trkpt lat="50.45631" lon="3.59677">
        <ele>19.2</ele>
        <time>2021-09-11T14:55:24.603Z</time>
      </trkpt>
      <trkpt lat="50.45627" lon="3.59663">
        <ele>19.2</ele>
        <time>2021-09-11T14:55:28.199Z</time>
      </trkpt>
      <trkpt lat="50.45626" lon="3.59651">
        <ele>19.3</ele>
        <time>2021-09-11T14:55:31.419Z</time>
      </trkpt>
      <trkpt lat="50.45629" lon="3.59635">
        <ele>19.7</ele>
        <time>2021-09-11T14:55:37.388Z</time>
      </trkpt>
      <trkpt lat="50.45632" lon="3.59617">
        <ele>20.3</ele>
        <time>2021-09-11T14:55:45.047Z</time>
      </trkpt>
      <trkpt lat="50.45635" lon="3.59606">
        <ele>20.7</ele>
        <time>2021-09-11T14:55:50.033Z</time>
      </trkpt>
      <trkpt lat="50.45641" lon="3.59602">
        <ele>21.1</ele>
        <time>2021-09-11T14:55:54.567Z</time>
      </trkpt>
      <trkpt lat="50.45647" lon="3.59598">
        <ele>21.3</ele>
        <time>2021-09-11T14:55:57.905Z</time>
      </trkpt>
      <trkpt lat="50.45653" lon="3.5958">
        <ele>21.5</ele>
        <time>2021-09-11T14:56:03.453Z</time>
      </trkpt>
      <trkpt lat="50.45657" lon="3.59569">
        <ele>21.7</ele>
        <time>2021-09-11T14:56:07.295Z</time>
      </trkpt>
      <trkpt lat="50.45664" lon="3.59543">
        <ele>21.5</ele>
        <time>2021-09-11T14:56:10.999Z</time>
      </trkpt>
      <trkpt lat="50.45669" lon="3.5952">
        <ele>20.7</ele>
        <time>2021-09-11T14:56:13.082Z</time>
      </trkpt>
      <trkpt lat="50.45678" lon="3.59476">
        <ele>19.5</ele>
        <time>2021-09-11T14:56:17.451Z</time>
      </trkpt>
      <trkpt lat="50.45685" lon="3.59423">
        <ele>18.9</ele>
        <time>2021-09-11T14:56:24.015Z</time>
      </trkpt>
      <trkpt lat="50.45673" lon="3.59378">
        <ele>18.6</ele>
        <time>2021-09-11T14:56:30.543Z</time>
      </trkpt>
      <trkpt lat="50.45673" lon="3.59359">
        <ele>19.3</ele>
        <time>2021-09-11T14:56:38.753Z</time>
      </trkpt>
      <trkpt lat="50.45669" lon="3.59342">
        <ele>19.7</ele>
        <time>2021-09-11T14:56:44.978Z</time>
      </trkpt>
      <trkpt lat="50.45651" lon="3.59321">
        <ele>18.2</ele>
        <time>2021-09-11T14:56:47.899Z</time>
      </trkpt>
      <trkpt lat="50.45628" lon="3.59302">
        <ele>16.8</ele>
        <time>2021-09-11T14:56:51.334Z</time>
      </trkpt>
      <trkpt lat="50.45579" lon="3.593">
        <ele>17</ele>
        <time>2021-09-11T14:57:10.080Z</time>
      </trkpt>
      <trkpt lat="50.45563" lon="3.593">
        <ele>17</ele>
        <time>2021-09-11T14:57:15.971Z</time>
      </trkpt>
      <trkpt lat="50.45534" lon="3.59303">
        <ele>17</ele>
        <time>2021-09-11T14:57:26.671Z</time>
      </trkpt>
      <trkpt lat="50.45508" lon="3.59321">
        <ele>17</ele>
        <time>2021-09-11T14:57:37.132Z</time>
      </trkpt>
      <trkpt lat="50.45505" lon="3.59327">
        <ele>17</ele>
        <time>2021-09-11T14:57:38.920Z</time>
      </trkpt>
      <trkpt lat="50.45501" lon="3.59322">
        <ele>17</ele>
        <time>2021-09-11T14:57:40.802Z</time>
      </trkpt>
      <trkpt lat="50.45492" lon="3.5933">
        <ele>17.1</ele>
        <time>2021-09-11T14:57:44.980Z</time>
      </trkpt>
      <trkpt lat="50.45478" lon="3.59346">
        <ele>16.9</ele>
        <time>2021-09-11T14:57:48.529Z</time>
      </trkpt>
      <trkpt lat="50.45466" lon="3.59365">
        <ele>17.2</ele>
        <time>2021-09-11T14:57:56.008Z</time>
      </trkpt>
      <trkpt lat="50.45456" lon="3.59383">
        <ele>17.1</ele>
        <time>2021-09-11T14:58:01.095Z</time>
      </trkpt>
      <trkpt lat="50.45447" lon="3.59401">
        <ele>17</ele>
        <time>2021-09-11T14:58:05.950Z</time>
      </trkpt>
      <trkpt lat="50.45441" lon="3.59413">
        <ele>17.1</ele>
        <time>2021-09-11T14:58:09.899Z</time>
      </trkpt>
      <trkpt lat="50.45435" lon="3.59444">
        <ele>17</ele>
        <time>2021-09-11T14:58:16.969Z</time>
      </trkpt>
      <trkpt lat="50.45412" lon="3.59487">
        <ele>16.5</ele>
        <time>2021-09-11T14:58:24.073Z</time>
      </trkpt>
      <trkpt lat="50.45401" lon="3.59498">
        <ele>16.1</ele>
        <time>2021-09-11T14:58:26.214Z</time>
      </trkpt>
      <trkpt lat="50.45387" lon="3.59505">
        <ele>16.1</ele>
        <time>2021-09-11T14:58:31.623Z</time>
      </trkpt>
      <trkpt lat="50.45373" lon="3.5951">
        <ele>16.4</ele>
        <time>2021-09-11T14:58:38.160Z</time>
      </trkpt>
      <trkpt lat="50.45354" lon="3.59521">
        <ele>16.5</ele>
        <time>2021-09-11T14:58:45.968Z</time>
      </trkpt>
      <trkpt lat="50.45353" lon="3.5954">
        <ele>16.2</ele>
        <time>2021-09-11T14:58:48.093Z</time>
      </trkpt>
      <trkpt lat="50.45334" lon="3.59558">
        <ele>16</ele>
        <time>2021-09-11T14:58:52.796Z</time>
      </trkpt>
      <trkpt lat="50.45312" lon="3.59579">
        <ele>16.8</ele>
        <time>2021-09-11T14:59:06.046Z</time>
      </trkpt>
      <trkpt lat="50.45301" lon="3.59583">
        <ele>17.2</ele>
        <time>2021-09-11T14:59:12.200Z</time>
      </trkpt>
      <trkpt lat="50.45293" lon="3.59588">
        <ele>17.4</ele>
        <time>2021-09-11T14:59:16.226Z</time>
      </trkpt>
      <trkpt lat="50.45287" lon="3.59594">
        <ele>17.4</ele>
        <time>2021-09-11T14:59:18.845Z</time>
      </trkpt>
      <trkpt lat="50.45285" lon="3.596">
        <ele>17.3</ele>
        <time>2021-09-11T14:59:19.613Z</time>
      </trkpt>
      <trkpt lat="50.4528" lon="3.59606">
        <ele>17.2</ele>
        <time>2021-09-11T14:59:20.834Z</time>
      </trkpt>
      <trkpt lat="50.45275" lon="3.59618">
        <ele>16.9</ele>
        <time>2021-09-11T14:59:22.299Z</time>
      </trkpt>
      <trkpt lat="50.4527" lon="3.59633">
        <ele>16.5</ele>
        <time>2021-09-11T14:59:23.957Z</time>
      </trkpt>
      <trkpt lat="50.45263" lon="3.59648">
        <ele>16.4</ele>
        <time>2021-09-11T14:59:26.487Z</time>
      </trkpt>
      <trkpt lat="50.45258" lon="3.59658">
        <ele>16.2</ele>
        <time>2021-09-11T14:59:27.904Z</time>
      </trkpt>
      <trkpt lat="50.45251" lon="3.59674">
        <ele>16</ele>
        <time>2021-09-11T14:59:30.293Z</time>
      </trkpt>
      <trkpt lat="50.45246" lon="3.59679">
        <ele>16.1</ele>
        <time>2021-09-11T14:59:32.875Z</time>
      </trkpt>
      <trkpt lat="50.45242" lon="3.59685">
        <ele>16.3</ele>
        <time>2021-09-11T14:59:35.919Z</time>
      </trkpt>
      <trkpt lat="50.45236" lon="3.59694">
        <ele>16.5</ele>
        <time>2021-09-11T14:59:39.840Z</time>
      </trkpt>
      <trkpt lat="50.45231" lon="3.59701">
        <ele>16.5</ele>
        <time>2021-09-11T14:59:42.306Z</time>
      </trkpt>
      <trkpt lat="50.45227" lon="3.59707">
        <ele>16.5</ele>
        <time>2021-09-11T14:59:44.342Z</time>
      </trkpt>
      <trkpt lat="50.45224" lon="3.59712">
        <ele>16.3</ele>
        <time>2021-09-11T14:59:44.963Z</time>
      </trkpt>
      <trkpt lat="50.4522" lon="3.59718">
        <ele>16.2</ele>
        <time>2021-09-11T14:59:46.008Z</time>
      </trkpt>
      <trkpt lat="50.45215" lon="3.59722">
        <ele>16.3</ele>
        <time>2021-09-11T14:59:48.477Z</time>
      </trkpt>
      <trkpt lat="50.45211" lon="3.59726">
        <ele>16.3</ele>
        <time>2021-09-11T14:59:50.222Z</time>
      </trkpt>
      <trkpt lat="50.45207" lon="3.59731">
        <ele>16.4</ele>
        <time>2021-09-11T14:59:52.515Z</time>
      </trkpt>
      <trkpt lat="50.45203" lon="3.59735">
        <ele>16.4</ele>
        <time>2021-09-11T14:59:54.261Z</time>
      </trkpt>
      <trkpt lat="50.45199" lon="3.59739">
        <ele>16.3</ele>
        <time>2021-09-11T14:59:55.126Z</time>
      </trkpt>
      <trkpt lat="50.45193" lon="3.59744">
        <ele>16.2</ele>
        <time>2021-09-11T14:59:56.463Z</time>
      </trkpt>
      <trkpt lat="50.45187" lon="3.59751">
        <ele>16</ele>
        <time>2021-09-11T14:59:57.742Z</time>
      </trkpt>
      <trkpt lat="50.45183" lon="3.59756">
        <ele>16</ele>
        <time>2021-09-11T14:59:59.624Z</time>
      </trkpt>
      <trkpt lat="50.45175" lon="3.59762">
        <ele>16</ele>
        <time>2021-09-11T15:00:02.888Z</time>
      </trkpt>
      <trkpt lat="50.45168" lon="3.59768">
        <ele>16</ele>
        <time>2021-09-11T15:00:05.824Z</time>
      </trkpt>
      <trkpt lat="50.45162" lon="3.59772">
        <ele>16</ele>
        <time>2021-09-11T15:00:08.224Z</time>
      </trkpt>
      <trkpt lat="50.45158" lon="3.59775">
        <ele>16</ele>
        <time>2021-09-11T15:00:09.856Z</time>
      </trkpt>
      <trkpt lat="50.45152" lon="3.5978">
        <ele>16</ele>
        <time>2021-09-11T15:00:12.357Z</time>
      </trkpt>
      <trkpt lat="50.45147" lon="3.59785">
        <ele>16</ele>
        <time>2021-09-11T15:00:14.539Z</time>
      </trkpt>
      <trkpt lat="50.45137" lon="3.59795">
        <ele>16.1</ele>
        <time>2021-09-11T15:00:19.269Z</time>
      </trkpt>
      <trkpt lat="50.45131" lon="3.59799">
        <ele>16.3</ele>
        <time>2021-09-11T15:00:22.607Z</time>
      </trkpt>
      <trkpt lat="50.45126" lon="3.59804">
        <ele>16.5</ele>
        <time>2021-09-11T15:00:25.765Z</time>
      </trkpt>
      <trkpt lat="50.45121" lon="3.59809">
        <ele>16.6</ele>
        <time>2021-09-11T15:00:28.346Z</time>
      </trkpt>
      <trkpt lat="50.45113" lon="3.59814">
        <ele>16.6</ele>
        <time>2021-09-11T15:00:31.516Z</time>
      </trkpt>
      <trkpt lat="50.45102" lon="3.59819">
        <ele>16.7</ele>
        <time>2021-09-11T15:00:36.099Z</time>
      </trkpt>
      <trkpt lat="50.45097" lon="3.59821">
        <ele>16.7</ele>
        <time>2021-09-11T15:00:37.998Z</time>
      </trkpt>
      <trkpt lat="50.45086" lon="3.59827">
        <ele>16.9</ele>
        <time>2021-09-11T15:00:43.086Z</time>
      </trkpt>
      <trkpt lat="50.45078" lon="3.59831">
        <ele>17</ele>
        <time>2021-09-11T15:00:46.555Z</time>
      </trkpt>
      <trkpt lat="50.45069" lon="3.59836">
        <ele>17</ele>
        <time>2021-09-11T15:00:50.070Z</time>
      </trkpt>
      <trkpt lat="50.45062" lon="3.59841">
        <ele>17.1</ele>
        <time>2021-09-11T15:00:53.284Z</time>
      </trkpt>
      <trkpt lat="50.45056" lon="3.59847">
        <ele>17.5</ele>
        <time>2021-09-11T15:00:58.058Z</time>
      </trkpt>
      <trkpt lat="50.45052" lon="3.59851">
        <ele>17.6</ele>
        <time>2021-09-11T15:01:00.222Z</time>
      </trkpt>
      <trkpt lat="50.45044" lon="3.59855">
        <ele>17.8</ele>
        <time>2021-09-11T15:01:04.176Z</time>
      </trkpt>
      <trkpt lat="50.45038" lon="3.59857">
        <ele>17.9</ele>
        <time>2021-09-11T15:01:06.830Z</time>
      </trkpt>
      <trkpt lat="50.45028" lon="3.59859">
        <ele>17.9</ele>
        <time>2021-09-11T15:01:10.542Z</time>
      </trkpt>
      <trkpt lat="50.45022" lon="3.59862">
        <ele>18</ele>
        <time>2021-09-11T15:01:13.255Z</time>
      </trkpt>
      <trkpt lat="50.45018" lon="3.59865">
        <ele>17.9</ele>
        <time>2021-09-11T15:01:14.049Z</time>
      </trkpt>
      <trkpt lat="50.45013" lon="3.59867">
        <ele>17.9</ele>
        <time>2021-09-11T15:01:15.949Z</time>
      </trkpt>
      <trkpt lat="50.45006" lon="3.5987">
        <ele>17.9</ele>
        <time>2021-09-11T15:01:18.620Z</time>
      </trkpt>
      <trkpt lat="50.45" lon="3.59873">
        <ele>18</ele>
        <time>2021-09-11T15:01:21.333Z</time>
      </trkpt>
      <trkpt lat="50.44995" lon="3.59879">
        <ele>18.2</ele>
        <time>2021-09-11T15:01:24.601Z</time>
      </trkpt>
      <trkpt lat="50.44988" lon="3.59884">
        <ele>18.4</ele>
        <time>2021-09-11T15:01:28.318Z</time>
      </trkpt>
      <trkpt lat="50.4498" lon="3.59889">
        <ele>18.7</ele>
        <time>2021-09-11T15:01:32.974Z</time>
      </trkpt>
      <trkpt lat="50.44969" lon="3.59888">
        <ele>19</ele>
        <time>2021-09-11T15:01:38.378Z</time>
      </trkpt>
      <trkpt lat="50.44961" lon="3.59879">
        <ele>19</ele>
        <time>2021-09-11T15:01:42.001Z</time>
      </trkpt>
      <trkpt lat="50.44959" lon="3.59868">
        <ele>19</ele>
        <time>2021-09-11T15:01:44.683Z</time>
      </trkpt>
      <trkpt lat="50.44962" lon="3.59861">
        <ele>19</ele>
        <time>2021-09-11T15:01:46.661Z</time>
      </trkpt>
      <trkpt lat="50.44963" lon="3.59849">
        <ele>19</ele>
        <time>2021-09-11T15:01:49.498Z</time>
      </trkpt>
      <trkpt lat="50.44962" lon="3.59836">
        <ele>19</ele>
        <time>2021-09-11T15:01:52.568Z</time>
      </trkpt>
      <trkpt lat="50.44962" lon="3.59828">
        <ele>18.9</ele>
        <time>2021-09-11T15:01:53.513Z</time>
      </trkpt>
      <trkpt lat="50.44962" lon="3.59819">
        <ele>18.7</ele>
        <time>2021-09-11T15:01:54.414Z</time>
      </trkpt>
      <trkpt lat="50.44961" lon="3.59809">
        <ele>18.5</ele>
        <time>2021-09-11T15:01:55.468Z</time>
      </trkpt>
      <trkpt lat="50.44961" lon="3.59799">
        <ele>18.4</ele>
        <time>2021-09-11T15:01:56.706Z</time>
      </trkpt>
      <trkpt lat="50.44961" lon="3.59791">
        <ele>18.4</ele>
        <time>2021-09-11T15:01:58.581Z</time>
      </trkpt>
      <trkpt lat="50.44961" lon="3.59776">
        <ele>18.4</ele>
        <time>2021-09-11T15:02:02.098Z</time>
      </trkpt>
      <trkpt lat="50.44961" lon="3.59767">
        <ele>18.4</ele>
        <time>2021-09-11T15:02:04.208Z</time>
      </trkpt>
      <trkpt lat="50.44962" lon="3.59751">
        <ele>18.4</ele>
        <time>2021-09-11T15:02:07.977Z</time>
      </trkpt>
      <trkpt lat="50.44963" lon="3.59759">
        <ele>18.3</ele>
        <time>2021-09-11T15:02:08.944Z</time>
      </trkpt>
      <trkpt lat="50.44966" lon="3.59752">
        <ele>18.2</ele>
        <time>2021-09-11T15:02:09.952Z</time>
      </trkpt>
      <trkpt lat="50.44967" lon="3.59728">
        <ele>18.8</ele>
        <time>2021-09-11T15:02:18.747Z</time>
      </trkpt>
      <trkpt lat="50.44966" lon="3.59706">
        <ele>19</ele>
        <time>2021-09-11T15:02:24.693Z</time>
      </trkpt>
      <trkpt lat="50.44963" lon="3.59678">
        <ele>19</ele>
        <time>2021-09-11T15:02:31.349Z</time>
      </trkpt>
      <trkpt lat="50.44964" lon="3.5962">
        <ele>19</ele>
        <time>2021-09-11T15:02:44.951Z</time>
      </trkpt>
      <trkpt lat="50.44968" lon="3.59588">
        <ele>19</ele>
        <time>2021-09-11T15:02:52.596Z</time>
      </trkpt>
      <trkpt lat="50.44969" lon="3.59561">
        <ele>19</ele>
        <time>2021-09-11T15:02:58.936Z</time>
      </trkpt>
      <trkpt lat="50.4496" lon="3.59506">
        <ele>19.6</ele>
        <time>2021-09-11T15:03:14.635Z</time>
      </trkpt>
      <trkpt lat="50.4496" lon="3.59488">
        <ele>19.2</ele>
        <time>2021-09-11T15:03:16.437Z</time>
      </trkpt>
      <trkpt lat="50.4496" lon="3.59464">
        <ele>19</ele>
        <time>2021-09-11T15:03:19.508Z</time>
      </trkpt>
      <trkpt lat="50.44955" lon="3.59438">
        <ele>19</ele>
        <time>2021-09-11T15:03:25.875Z</time>
      </trkpt>
      <trkpt lat="50.44955" lon="3.59423">
        <ele>19</ele>
        <time>2021-09-11T15:03:29.392Z</time>
      </trkpt>
      <trkpt lat="50.44968" lon="3.59438">
        <ele>19</ele>
        <time>2021-09-11T15:03:35.331Z</time>
      </trkpt>
      <trkpt lat="50.44982" lon="3.59438">
        <ele>19</ele>
        <time>2021-09-11T15:03:40.485Z</time>
      </trkpt>
      <trkpt lat="50.44991" lon="3.59434">
        <ele>19</ele>
        <time>2021-09-11T15:03:43.929Z</time>
      </trkpt>
      <trkpt lat="50.45025" lon="3.59412">
        <ele>19.9</ele>
        <time>2021-09-11T15:04:01.379Z</time>
      </trkpt>
      <trkpt lat="50.4506" lon="3.59383">
        <ele>20</ele>
        <time>2021-09-11T15:04:16.293Z</time>
      </trkpt>
      <trkpt lat="50.45083" lon="3.59365">
        <ele>20</ele>
        <time>2021-09-11T15:04:25.754Z</time>
      </trkpt>
      <trkpt lat="50.45118" lon="3.59345">
        <ele>20</ele>
        <time>2021-09-11T15:04:39.466Z</time>
      </trkpt>
      <trkpt lat="50.45129" lon="3.59324">
        <ele>20</ele>
        <time>2021-09-11T15:04:45.841Z</time>
      </trkpt>
      <trkpt lat="50.45134" lon="3.59301">
        <ele>20.2</ele>
        <time>2021-09-11T15:04:52.303Z</time>
      </trkpt>
      <trkpt lat="50.45138" lon="3.59282">
        <ele>20.8</ele>
        <time>2021-09-11T15:05:00.353Z</time>
      </trkpt>
      <trkpt lat="50.45144" lon="3.59262">
        <ele>21.6</ele>
        <time>2021-09-11T15:05:09.839Z</time>
      </trkpt>
      <trkpt lat="50.45162" lon="3.59231">
        <ele>22</ele>
        <time>2021-09-11T15:05:21.238Z</time>
      </trkpt>
      <trkpt lat="50.45175" lon="3.59222">
        <ele>22</ele>
        <time>2021-09-11T15:05:26.468Z</time>
      </trkpt>
      <trkpt lat="50.45188" lon="3.59208">
        <ele>22</ele>
        <time>2021-09-11T15:05:32.271Z</time>
      </trkpt>
      <trkpt lat="50.45191" lon="3.59216">
        <ele>22</ele>
        <time>2021-09-11T15:05:34.448Z</time>
      </trkpt>
      <trkpt lat="50.45203" lon="3.59231">
        <ele>22.2</ele>
        <time>2021-09-11T15:05:40.860Z</time>
      </trkpt>
      <trkpt lat="50.45209" lon="3.59236">
        <ele>22.3</ele>
        <time>2021-09-11T15:05:43.751Z</time>
      </trkpt>
      <trkpt lat="50.45206" lon="3.592">
        <ele>22.4</ele>
        <time>2021-09-11T15:05:52.613Z</time>
      </trkpt>
      <trkpt lat="50.45197" lon="3.59179">
        <ele>22.6</ele>
        <time>2021-09-11T15:05:59.308Z</time>
      </trkpt>
      <trkpt lat="50.45195" lon="3.59158">
        <ele>23</ele>
        <time>2021-09-11T15:06:06.136Z</time>
      </trkpt>
      <trkpt lat="50.45208" lon="3.59127">
        <ele>23.5</ele>
        <time>2021-09-11T15:06:16.929Z</time>
      </trkpt>
      <trkpt lat="50.45217" lon="3.59112">
        <ele>23.8</ele>
        <time>2021-09-11T15:06:23.040Z</time>
      </trkpt>
      <trkpt lat="50.45234" lon="3.59084">
        <ele>24.4</ele>
        <time>2021-09-11T15:06:34.714Z</time>
      </trkpt>
      <trkpt lat="50.45241" lon="3.59071">
        <ele>24.7</ele>
        <time>2021-09-11T15:06:40.060Z</time>
      </trkpt>
      <trkpt lat="50.4525" lon="3.59058">
        <ele>25</ele>
        <time>2021-09-11T15:06:45.867Z</time>
      </trkpt>
      <trkpt lat="50.4526" lon="3.5904">
        <ele>25</ele>
        <time>2021-09-11T15:06:51.466Z</time>
      </trkpt>
      <trkpt lat="50.45273" lon="3.59017">
        <ele>25.3</ele>
        <time>2021-09-11T15:06:59.853Z</time>
      </trkpt>
      <trkpt lat="50.45284" lon="3.58992">
        <ele>26</ele>
        <time>2021-09-11T15:07:10.507Z</time>
      </trkpt>
      <trkpt lat="50.45294" lon="3.58966">
        <ele>26</ele>
        <time>2021-09-11T15:07:17.627Z</time>
      </trkpt>
      <trkpt lat="50.45301" lon="3.58956">
        <ele>26</ele>
        <time>2021-09-11T15:07:21.111Z</time>
      </trkpt>
      <trkpt lat="50.45312" lon="3.58949">
        <ele>26</ele>
        <time>2021-09-11T15:07:25.481Z</time>
      </trkpt>
      <trkpt lat="50.4532" lon="3.5895">
        <ele>26</ele>
        <time>2021-09-11T15:07:28.435Z</time>
      </trkpt>
      <trkpt lat="50.45336" lon="3.58944">
        <ele>26</ele>
        <time>2021-09-11T15:07:34.491Z</time>
      </trkpt>
      <trkpt lat="50.45347" lon="3.58934">
        <ele>26</ele>
        <time>2021-09-11T15:07:39.171Z</time>
      </trkpt>
      <trkpt lat="50.45334" lon="3.58893">
        <ele>26.8</ele>
        <time>2021-09-11T15:07:53.511Z</time>
      </trkpt>
      <trkpt lat="50.4534" lon="3.5887">
        <ele>26.9</ele>
        <time>2021-09-11T15:07:59.695Z</time>
      </trkpt>
      <trkpt lat="50.45355" lon="3.58854">
        <ele>27</ele>
        <time>2021-09-11T15:08:06.726Z</time>
      </trkpt>
      <trkpt lat="50.45375" lon="3.58823">
        <ele>27</ele>
        <time>2021-09-11T15:08:17.071Z</time>
      </trkpt>
      <trkpt lat="50.45397" lon="3.58791">
        <ele>26.9</ele>
        <time>2021-09-11T15:08:27.574Z</time>
      </trkpt>
      <trkpt lat="50.45418" lon="3.58763">
        <ele>27</ele>
        <time>2021-09-11T15:08:38.064Z</time>
      </trkpt>
      <trkpt lat="50.45429" lon="3.58743">
        <ele>27</ele>
        <time>2021-09-11T15:08:44.259Z</time>
      </trkpt>
      <trkpt lat="50.45438" lon="3.58728">
        <ele>27</ele>
        <time>2021-09-11T15:08:49.091Z</time>
      </trkpt>
      <trkpt lat="50.45452" lon="3.58715">
        <ele>27</ele>
        <time>2021-09-11T15:08:55.078Z</time>
      </trkpt>
      <trkpt lat="50.45464" lon="3.58701">
        <ele>27</ele>
        <time>2021-09-11T15:09:00.582Z</time>
      </trkpt>
      <trkpt lat="50.45483" lon="3.58677">
        <ele>27</ele>
        <time>2021-09-11T15:09:09.559Z</time>
      </trkpt>
      <trkpt lat="50.455" lon="3.58657">
        <ele>27</ele>
        <time>2021-09-11T15:09:17.378Z</time>
      </trkpt>
      <trkpt lat="50.45518" lon="3.58637">
        <ele>27</ele>
        <time>2021-09-11T15:09:25.496Z</time>
      </trkpt>
      <trkpt lat="50.45526" lon="3.58625">
        <ele>27</ele>
        <time>2021-09-11T15:09:29.569Z</time>
      </trkpt>
      <trkpt lat="50.45537" lon="3.58609">
        <ele>27</ele>
        <time>2021-09-11T15:09:35.088Z</time>
      </trkpt>
      <trkpt lat="50.45542" lon="3.58596">
        <ele>27</ele>
        <time>2021-09-11T15:09:38.648Z</time>
      </trkpt>
      <trkpt lat="50.45561" lon="3.58562">
        <ele>27</ele>
        <time>2021-09-11T15:09:49.252Z</time>
      </trkpt>
      <trkpt lat="50.45571" lon="3.58549">
        <ele>27.1</ele>
        <time>2021-09-11T15:09:54.394Z</time>
      </trkpt>
      <trkpt lat="50.4559" lon="3.58524">
        <ele>27.7</ele>
        <time>2021-09-11T15:10:06.119Z</time>
      </trkpt>
      <trkpt lat="50.45611" lon="3.58498">
        <ele>27</ele>
        <time>2021-09-11T15:10:10.724Z</time>
      </trkpt>
      <trkpt lat="50.4562" lon="3.58488">
        <ele>27</ele>
        <time>2021-09-11T15:10:14.783Z</time>
      </trkpt>
      <trkpt lat="50.45627" lon="3.58477">
        <ele>27</ele>
        <time>2021-09-11T15:10:18.428Z</time>
      </trkpt>
      <trkpt lat="50.45648" lon="3.58453">
        <ele>26.9</ele>
        <time>2021-09-11T15:10:27.457Z</time>
      </trkpt>
      <trkpt lat="50.45675" lon="3.58425">
        <ele>26.7</ele>
        <time>2021-09-11T15:10:38.338Z</time>
      </trkpt>
      <trkpt lat="50.45684" lon="3.58409">
        <ele>26.4</ele>
        <time>2021-09-11T15:10:40.789Z</time>
      </trkpt>
      <trkpt lat="50.45706" lon="3.58378">
        <ele>26.2</ele>
        <time>2021-09-11T15:10:50.648Z</time>
      </trkpt>
      <trkpt lat="50.45719" lon="3.58364">
        <ele>26.1</ele>
        <time>2021-09-11T15:10:55.937Z</time>
      </trkpt>
      <trkpt lat="50.45741" lon="3.58339">
        <ele>26</ele>
        <time>2021-09-11T15:11:05.400Z</time>
      </trkpt>
      <trkpt lat="50.4575" lon="3.58323">
        <ele>26</ele>
        <time>2021-09-11T15:11:10.404Z</time>
      </trkpt>
      <trkpt lat="50.45757" lon="3.58308">
        <ele>26</ele>
        <time>2021-09-11T15:11:14.763Z</time>
      </trkpt>
      <trkpt lat="50.45774" lon="3.58279">
        <ele>26</ele>
        <time>2021-09-11T15:11:24.003Z</time>
      </trkpt>
      <trkpt lat="50.45783" lon="3.5827">
        <ele>26</ele>
        <time>2021-09-11T15:11:27.931Z</time>
      </trkpt>
      <trkpt lat="50.45793" lon="3.58258">
        <ele>26</ele>
        <time>2021-09-11T15:11:32.564Z</time>
      </trkpt>
      <trkpt lat="50.45802" lon="3.58245">
        <ele>26.2</ele>
        <time>2021-09-11T15:11:37.859Z</time>
      </trkpt>
      <trkpt lat="50.45811" lon="3.58232">
        <ele>26.6</ele>
        <time>2021-09-11T15:11:44.287Z</time>
      </trkpt>
      <trkpt lat="50.45827" lon="3.58204">
        <ele>27</ele>
        <time>2021-09-11T15:11:54.698Z</time>
      </trkpt>
      <trkpt lat="50.45843" lon="3.58173">
        <ele>27</ele>
        <time>2021-09-11T15:12:04.052Z</time>
      </trkpt>
      <trkpt lat="50.45854" lon="3.58167">
        <ele>27</ele>
        <time>2021-09-11T15:12:08.339Z</time>
      </trkpt>
      <trkpt lat="50.45866" lon="3.58139">
        <ele>27</ele>
        <time>2021-09-11T15:12:16.250Z</time>
      </trkpt>
      <trkpt lat="50.4587" lon="3.58117">
        <ele>27</ele>
        <time>2021-09-11T15:12:21.613Z</time>
      </trkpt>
      <trkpt lat="50.45887" lon="3.58109">
        <ele>27.1</ele>
        <time>2021-09-11T15:12:28.502Z</time>
      </trkpt>
      <trkpt lat="50.45897" lon="3.58086">
        <ele>27.9</ele>
        <time>2021-09-11T15:12:39.563Z</time>
      </trkpt>
      <trkpt lat="50.45906" lon="3.58066">
        <ele>28</ele>
        <time>2021-09-11T15:12:45.662Z</time>
      </trkpt>
      <trkpt lat="50.45912" lon="3.58054">
        <ele>28</ele>
        <time>2021-09-11T15:12:49.238Z</time>
      </trkpt>
      <trkpt lat="50.45918" lon="3.58043">
        <ele>28</ele>
        <time>2021-09-11T15:12:52.633Z</time>
      </trkpt>
      <trkpt lat="50.45927" lon="3.58021">
        <ele>28</ele>
        <time>2021-09-11T15:12:58.762Z</time>
      </trkpt>
      <trkpt lat="50.45942" lon="3.57998">
        <ele>28</ele>
        <time>2021-09-11T15:13:06.480Z</time>
      </trkpt>
      <trkpt lat="50.4595" lon="3.57987">
        <ele>28</ele>
        <time>2021-09-11T15:13:10.394Z</time>
      </trkpt>
      <trkpt lat="50.45963" lon="3.5797">
        <ele>28.1</ele>
        <time>2021-09-11T15:13:16.978Z</time>
      </trkpt>
      <trkpt lat="50.45974" lon="3.57949">
        <ele>28.8</ele>
        <time>2021-09-11T15:13:27.101Z</time>
      </trkpt>
      <trkpt lat="50.45988" lon="3.57925">
        <ele>28.4</ele>
        <time>2021-09-11T15:13:30.960Z</time>
      </trkpt>
      <trkpt lat="50.45996" lon="3.57913">
        <ele>28.3</ele>
        <time>2021-09-11T15:13:33.304Z</time>
      </trkpt>
      <trkpt lat="50.46005" lon="3.57902">
        <ele>28.4</ele>
        <time>2021-09-11T15:13:37.869Z</time>
      </trkpt>
      <trkpt lat="50.4602" lon="3.57873">
        <ele>28.7</ele>
        <time>2021-09-11T15:13:47.771Z</time>
      </trkpt>
      <trkpt lat="50.46026" lon="3.57859">
        <ele>29</ele>
        <time>2021-09-11T15:13:53.085Z</time>
      </trkpt>
      <trkpt lat="50.46033" lon="3.57842">
        <ele>29</ele>
        <time>2021-09-11T15:13:57.831Z</time>
      </trkpt>
      <trkpt lat="50.46031" lon="3.57829">
        <ele>29</ele>
        <time>2021-09-11T15:14:00.965Z</time>
      </trkpt>
      <trkpt lat="50.46045" lon="3.57812">
        <ele>28.5</ele>
        <time>2021-09-11T15:14:03.945Z</time>
      </trkpt>
      <trkpt lat="50.46063" lon="3.57793">
        <ele>28</ele>
        <time>2021-09-11T15:14:07.811Z</time>
      </trkpt>
      <trkpt lat="50.46075" lon="3.57776">
        <ele>28</ele>
        <time>2021-09-11T15:14:13.760Z</time>
      </trkpt>
      <trkpt lat="50.46084" lon="3.57764">
        <ele>28</ele>
        <time>2021-09-11T15:14:18.107Z</time>
      </trkpt>
      <trkpt lat="50.46091" lon="3.57754">
        <ele>28</ele>
        <time>2021-09-11T15:14:21.590Z</time>
      </trkpt>
      <trkpt lat="50.46094" lon="3.5775">
        <ele>28</ele>
        <time>2021-09-11T15:14:23.039Z</time>
      </trkpt>
      <trkpt lat="50.46101" lon="3.57741">
        <ele>28</ele>
        <time>2021-09-11T15:14:26.369Z</time>
      </trkpt>
      <trkpt lat="50.46106" lon="3.57735">
        <ele>28</ele>
        <time>2021-09-11T15:14:28.686Z</time>
      </trkpt>
      <trkpt lat="50.4611" lon="3.5773">
        <ele>28</ele>
        <time>2021-09-11T15:14:30.568Z</time>
      </trkpt>
      <trkpt lat="50.46121" lon="3.57717">
        <ele>28</ele>
        <time>2021-09-11T15:14:35.636Z</time>
      </trkpt>
      <trkpt lat="50.46131" lon="3.57706">
        <ele>28</ele>
        <time>2021-09-11T15:14:40.130Z</time>
      </trkpt>
      <trkpt lat="50.46148" lon="3.57687">
        <ele>27.5</ele>
        <time>2021-09-11T15:14:43.812Z</time>
      </trkpt>
      <trkpt lat="50.46156" lon="3.57669">
        <ele>27</ele>
        <time>2021-09-11T15:14:45.990Z</time>
      </trkpt>
      <trkpt lat="50.46172" lon="3.57644">
        <ele>27</ele>
        <time>2021-09-11T15:14:54.298Z</time>
      </trkpt>
      <trkpt lat="50.4619" lon="3.57614">
        <ele>27</ele>
        <time>2021-09-11T15:15:03.960Z</time>
      </trkpt>
      <trkpt lat="50.462" lon="3.57601">
        <ele>27</ele>
        <time>2021-09-11T15:15:08.739Z</time>
      </trkpt>
      <trkpt lat="50.46209" lon="3.5759">
        <ele>27</ele>
        <time>2021-09-11T15:15:12.937Z</time>
      </trkpt>
      <trkpt lat="50.46218" lon="3.57579">
        <ele>27</ele>
        <time>2021-09-11T15:15:17.136Z</time>
      </trkpt>
      <trkpt lat="50.46226" lon="3.57574">
        <ele>27</ele>
        <time>2021-09-11T15:15:20.305Z</time>
      </trkpt>
      <trkpt lat="50.46232" lon="3.5757">
        <ele>27</ele>
        <time>2021-09-11T15:15:22.705Z</time>
      </trkpt>
      <trkpt lat="50.46237" lon="3.57566">
        <ele>27</ele>
        <time>2021-09-11T15:15:24.771Z</time>
      </trkpt>
      <trkpt lat="50.46248" lon="3.57563">
        <ele>27</ele>
        <time>2021-09-11T15:15:28.881Z</time>
      </trkpt>
      <trkpt lat="50.46254" lon="3.57562">
        <ele>27</ele>
        <time>2021-09-11T15:15:31.103Z</time>
      </trkpt>
      <trkpt lat="50.46278" lon="3.57543">
        <ele>27</ele>
        <time>2021-09-11T15:15:40.997Z</time>
      </trkpt>
      <trkpt lat="50.46311" lon="3.57538">
        <ele>27.2</ele>
        <time>2021-09-11T15:15:53.917Z</time>
      </trkpt>
      <trkpt lat="50.46328" lon="3.57534">
        <ele>27.8</ele>
        <time>2021-09-11T15:16:03.220Z</time>
      </trkpt>
      <trkpt lat="50.46351" lon="3.57527">
        <ele>28</ele>
        <time>2021-09-11T15:16:12.577Z</time>
      </trkpt>
      <trkpt lat="50.46378" lon="3.57521">
        <ele>28</ele>
        <time>2021-09-11T15:16:22.616Z</time>
      </trkpt>
      <trkpt lat="50.46393" lon="3.57521">
        <ele>28</ele>
        <time>2021-09-11T15:16:28.138Z</time>
      </trkpt>
      <trkpt lat="50.46405" lon="3.57512">
        <ele>28</ele>
        <time>2021-09-11T15:16:33.034Z</time>
      </trkpt>
      <trkpt lat="50.46424" lon="3.57506">
        <ele>28.3</ele>
        <time>2021-09-11T15:16:41.348Z</time>
      </trkpt>
      <trkpt lat="50.46448" lon="3.57501">
        <ele>29</ele>
        <time>2021-09-11T15:16:53.472Z</time>
      </trkpt>
      <trkpt lat="50.4646" lon="3.57494">
        <ele>29</ele>
        <time>2021-09-11T15:16:58.185Z</time>
      </trkpt>
      <trkpt lat="50.46483" lon="3.57479">
        <ele>29</ele>
        <time>2021-09-11T15:17:07.353Z</time>
      </trkpt>
      <trkpt lat="50.46495" lon="3.57468">
        <ele>29</ele>
        <time>2021-09-11T15:17:12.468Z</time>
      </trkpt>
      <trkpt lat="50.4651" lon="3.57461">
        <ele>29</ele>
        <time>2021-09-11T15:17:18.229Z</time>
      </trkpt>
      <trkpt lat="50.46514" lon="3.57455">
        <ele>29</ele>
        <time>2021-09-11T15:17:20.266Z</time>
      </trkpt>
      <trkpt lat="50.46527" lon="3.5745">
        <ele>29</ele>
        <time>2021-09-11T15:17:25.193Z</time>
      </trkpt>
      <trkpt lat="50.46557" lon="3.57439">
        <ele>29</ele>
        <time>2021-09-11T15:17:36.535Z</time>
      </trkpt>
      <trkpt lat="50.46571" lon="3.57435">
        <ele>29</ele>
        <time>2021-09-11T15:17:41.774Z</time>
      </trkpt>
      <trkpt lat="50.46584" lon="3.5743">
        <ele>29</ele>
        <time>2021-09-11T15:17:46.701Z</time>
      </trkpt>
      <trkpt lat="50.46598" lon="3.57429">
        <ele>29</ele>
        <time>2021-09-11T15:17:51.861Z</time>
      </trkpt>
      <trkpt lat="50.4661" lon="3.57428">
        <ele>29</ele>
        <time>2021-09-11T15:17:56.285Z</time>
      </trkpt>
      <trkpt lat="50.46621" lon="3.5742">
        <ele>29</ele>
        <time>2021-09-11T15:18:00.748Z</time>
      </trkpt>
      <trkpt lat="50.46629" lon="3.574">
        <ele>29</ele>
        <time>2021-09-11T15:18:06.283Z</time>
      </trkpt>
      <trkpt lat="50.46642" lon="3.57394">
        <ele>29.1</ele>
        <time>2021-09-11T15:18:11.633Z</time>
      </trkpt>
      <trkpt lat="50.46669" lon="3.57386">
        <ele>30</ele>
        <time>2021-09-11T15:18:26.085Z</time>
      </trkpt>
      <trkpt lat="50.46692" lon="3.57375">
        <ele>30</ele>
        <time>2021-09-11T15:18:34.936Z</time>
      </trkpt>
      <trkpt lat="50.46706" lon="3.5737">
        <ele>30</ele>
        <time>2021-09-11T15:18:40.222Z</time>
      </trkpt>
      <trkpt lat="50.46717" lon="3.57368">
        <ele>30</ele>
        <time>2021-09-11T15:18:44.299Z</time>
      </trkpt>
      <trkpt lat="50.46733" lon="3.57366">
        <ele>30</ele>
        <time>2021-09-11T15:18:50.208Z</time>
      </trkpt>
      <trkpt lat="50.46747" lon="3.57364">
        <ele>30</ele>
        <time>2021-09-11T15:18:55.384Z</time>
      </trkpt>
      <trkpt lat="50.46756" lon="3.57367">
        <ele>30</ele>
        <time>2021-09-11T15:18:58.771Z</time>
      </trkpt>
      <trkpt lat="50.46773" lon="3.57373">
        <ele>30</ele>
        <time>2021-09-11T15:19:05.186Z</time>
      </trkpt>
      <trkpt lat="50.46783" lon="3.57375">
        <ele>30</ele>
        <time>2021-09-11T15:19:08.897Z</time>
      </trkpt>
      <trkpt lat="50.46804" lon="3.57379">
        <ele>30</ele>
        <time>2021-09-11T15:19:16.685Z</time>
      </trkpt>
      <trkpt lat="50.46812" lon="3.57361">
        <ele>30.2</ele>
        <time>2021-09-11T15:19:22.606Z</time>
      </trkpt>
      <trkpt lat="50.46812" lon="3.57333">
        <ele>30</ele>
        <time>2021-09-11T15:19:26.275Z</time>
      </trkpt>
      <trkpt lat="50.4682" lon="3.57311">
        <ele>30.4</ele>
        <time>2021-09-11T15:19:33.958Z</time>
      </trkpt>
      <trkpt lat="50.46829" lon="3.57303">
        <ele>30.9</ele>
        <time>2021-09-11T15:19:40.544Z</time>
      </trkpt>
      <trkpt lat="50.46853" lon="3.57294">
        <ele>31</ele>
        <time>2021-09-11T15:19:49.978Z</time>
      </trkpt>
      <trkpt lat="50.46865" lon="3.5729">
        <ele>31</ele>
        <time>2021-09-11T15:19:54.494Z</time>
      </trkpt>
      <trkpt lat="50.46876" lon="3.57286">
        <ele>31</ele>
        <time>2021-09-11T15:19:58.651Z</time>
      </trkpt>
      <trkpt lat="50.46898" lon="3.57277">
        <ele>31</ele>
        <time>2021-09-11T15:20:07.021Z</time>
      </trkpt>
      <trkpt lat="50.46905" lon="3.57274">
        <ele>31.1</ele>
        <time>2021-09-11T15:20:10.078Z</time>
      </trkpt>
      <trkpt lat="50.46921" lon="3.57259">
        <ele>31.7</ele>
        <time>2021-09-11T15:20:19.808Z</time>
      </trkpt>
      <trkpt lat="50.46938" lon="3.57249">
        <ele>32</ele>
        <time>2021-09-11T15:20:27.683Z</time>
      </trkpt>
      <trkpt lat="50.46949" lon="3.57242">
        <ele>32</ele>
        <time>2021-09-11T15:20:32.052Z</time>
      </trkpt>
      <trkpt lat="50.46969" lon="3.57229">
        <ele>32</ele>
        <time>2021-09-11T15:20:40.021Z</time>
      </trkpt>
      <trkpt lat="50.46979" lon="3.57214">
        <ele>32</ele>
        <time>2021-09-11T15:20:45.111Z</time>
      </trkpt>
      <trkpt lat="50.46976" lon="3.57189">
        <ele>32</ele>
        <time>2021-09-11T15:20:51.072Z</time>
      </trkpt>
      <trkpt lat="50.46972" lon="3.57164">
        <ele>32</ele>
        <time>2021-09-11T15:20:57.113Z</time>
      </trkpt>
      <trkpt lat="50.4697" lon="3.57142">
        <ele>32</ele>
        <time>2021-09-11T15:21:02.320Z</time>
      </trkpt>
      <trkpt lat="50.46967" lon="3.57122">
        <ele>32</ele>
        <time>2021-09-11T15:21:07.135Z</time>
      </trkpt>
      <trkpt lat="50.4696" lon="3.57083">
        <ele>32</ele>
        <time>2021-09-11T15:21:16.631Z</time>
      </trkpt>
      <trkpt lat="50.46957" lon="3.57063">
        <ele>32</ele>
        <time>2021-09-11T15:21:21.446Z</time>
      </trkpt>
      <trkpt lat="50.46953" lon="3.57043">
        <ele>32</ele>
        <time>2021-09-11T15:21:26.358Z</time>
      </trkpt>
      <trkpt lat="50.46946" lon="3.57004">
        <ele>32</ele>
        <time>2021-09-11T15:21:35.854Z</time>
      </trkpt>
      <trkpt lat="50.46941" lon="3.5697">
        <ele>31.1</ele>
        <time>2021-09-11T15:21:39.160Z</time>
      </trkpt>
      <trkpt lat="50.4694" lon="3.56956">
        <ele>31.5</ele>
        <time>2021-09-11T15:21:44.735Z</time>
      </trkpt>
      <trkpt lat="50.46937" lon="3.56938">
        <ele>31.7</ele>
        <time>2021-09-11T15:21:49.893Z</time>
      </trkpt>
      <trkpt lat="50.46941" lon="3.56948">
        <ele>31.8</ele>
        <time>2021-09-11T15:21:53.045Z</time>
      </trkpt>
      <trkpt lat="50.46937" lon="3.56935">
        <ele>31.7</ele>
        <time>2021-09-11T15:21:54.946Z</time>
      </trkpt>
      <trkpt lat="50.46932" lon="3.56922">
        <ele>31.6</ele>
        <time>2021-09-11T15:21:56.959Z</time>
      </trkpt>
      <trkpt lat="50.46927" lon="3.56916">
        <ele>31.4</ele>
        <time>2021-09-11T15:21:57.980Z</time>
      </trkpt>
      <trkpt lat="50.46923" lon="3.56912">
        <ele>31.2</ele>
        <time>2021-09-11T15:21:58.675Z</time>
      </trkpt>
      <trkpt lat="50.46915" lon="3.56908">
        <ele>31</ele>
        <time>2021-09-11T15:22:00.159Z</time>
      </trkpt>
      <trkpt lat="50.46911" lon="3.56906">
        <ele>31</ele>
        <time>2021-09-11T15:22:01.704Z</time>
      </trkpt>
      <trkpt lat="50.46901" lon="3.56904">
        <ele>31</ele>
        <time>2021-09-11T15:22:05.415Z</time>
      </trkpt>
      <trkpt lat="50.46889" lon="3.56904">
        <ele>31</ele>
        <time>2021-09-11T15:22:09.833Z</time>
      </trkpt>
      <trkpt lat="50.46878" lon="3.56903">
        <ele>31</ele>
        <time>2021-09-11T15:22:13.890Z</time>
      </trkpt>
      <trkpt lat="50.46867" lon="3.56904">
        <ele>31</ele>
        <time>2021-09-11T15:22:17.946Z</time>
      </trkpt>
      <trkpt lat="50.46862" lon="3.56903">
        <ele>31</ele>
        <time>2021-09-11T15:22:19.802Z</time>
      </trkpt>
      <trkpt lat="50.46852" lon="3.56901">
        <ele>30.8</ele>
        <time>2021-09-11T15:22:21.667Z</time>
      </trkpt>
      <trkpt lat="50.46846" lon="3.569">
        <ele>30.7</ele>
        <time>2021-09-11T15:22:22.828Z</time>
      </trkpt>
      <trkpt lat="50.46836" lon="3.56899">
        <ele>30.4</ele>
        <time>2021-09-11T15:22:24.486Z</time>
      </trkpt>
      <trkpt lat="50.46831" lon="3.56898">
        <ele>30.3</ele>
        <time>2021-09-11T15:22:25.418Z</time>
      </trkpt>
      <trkpt lat="50.4682" lon="3.56897">
        <ele>30.2</ele>
        <time>2021-09-11T15:22:27.752Z</time>
      </trkpt>
      <trkpt lat="50.46809" lon="3.56896">
        <ele>30</ele>
        <time>2021-09-11T15:22:29.832Z</time>
      </trkpt>
      <trkpt lat="50.46804" lon="3.56896">
        <ele>30</ele>
        <time>2021-09-11T15:22:31.673Z</time>
      </trkpt>
      <trkpt lat="50.46793" lon="3.56897">
        <ele>30</ele>
        <time>2021-09-11T15:22:35.729Z</time>
      </trkpt>
      <trkpt lat="50.46787" lon="3.56897">
        <ele>30</ele>
        <time>2021-09-11T15:22:37.938Z</time>
      </trkpt>
      <trkpt lat="50.46781" lon="3.56898">
        <ele>30</ele>
        <time>2021-09-11T15:22:40.160Z</time>
      </trkpt>
      <trkpt lat="50.46769" lon="3.56898">
        <ele>29.8</ele>
        <time>2021-09-11T15:22:42.466Z</time>
      </trkpt>
      <trkpt lat="50.46757" lon="3.569">
        <ele>29.6</ele>
        <time>2021-09-11T15:22:44.788Z</time>
      </trkpt>
      <trkpt lat="50.46752" lon="3.56901">
        <ele>29.5</ele>
        <time>2021-09-11T15:22:45.720Z</time>
      </trkpt>
      <trkpt lat="50.46742" lon="3.56904">
        <ele>29.4</ele>
        <time>2021-09-11T15:22:47.855Z</time>
      </trkpt>
      <trkpt lat="50.4673" lon="3.56907">
        <ele>29.2</ele>
        <time>2021-09-11T15:22:50.196Z</time>
      </trkpt>
      <trkpt lat="50.46724" lon="3.56908">
        <ele>29</ele>
        <time>2021-09-11T15:22:51.162Z</time>
      </trkpt>
      <trkpt lat="50.46712" lon="3.5691">
        <ele>29</ele>
        <time>2021-09-11T15:22:55.605Z</time>
      </trkpt>
      <trkpt lat="50.46701" lon="3.56912">
        <ele>29</ele>
        <time>2021-09-11T15:22:59.681Z</time>
      </trkpt>
      <trkpt lat="50.46695" lon="3.56913">
        <ele>29</ele>
        <time>2021-09-11T15:23:01.903Z</time>
      </trkpt>
      <trkpt lat="50.46684" lon="3.56915">
        <ele>29</ele>
        <time>2021-09-11T15:23:05.980Z</time>
      </trkpt>
      <trkpt lat="50.46679" lon="3.56916">
        <ele>29</ele>
        <time>2021-09-11T15:23:07.835Z</time>
      </trkpt>
      <trkpt lat="50.46667" lon="3.56918">
        <ele>29</ele>
        <time>2021-09-11T15:23:12.278Z</time>
      </trkpt>
      <trkpt lat="50.46661" lon="3.5692">
        <ele>28.8</ele>
        <time>2021-09-11T15:23:13.265Z</time>
      </trkpt>
      <trkpt lat="50.46648" lon="3.56922">
        <ele>28.5</ele>
        <time>2021-09-11T15:23:15.596Z</time>
      </trkpt>
      <trkpt lat="50.46636" lon="3.56923">
        <ele>28.2</ele>
        <time>2021-09-11T15:23:17.693Z</time>
      </trkpt>
      <trkpt lat="50.46625" lon="3.56925">
        <ele>28.2</ele>
        <time>2021-09-11T15:23:21.770Z</time>
      </trkpt>
      <trkpt lat="50.46614" lon="3.56927">
        <ele>28</ele>
        <time>2021-09-11T15:23:23.863Z</time>
      </trkpt>
      <trkpt lat="50.46608" lon="3.56928">
        <ele>28</ele>
        <time>2021-09-11T15:23:26.084Z</time>
      </trkpt>
      <trkpt lat="50.46597" lon="3.56929">
        <ele>28</ele>
        <time>2021-09-11T15:23:30.141Z</time>
      </trkpt>
      <trkpt lat="50.46592" lon="3.5693">
        <ele>28</ele>
        <time>2021-09-11T15:23:31.996Z</time>
      </trkpt>
      <trkpt lat="50.46582" lon="3.56932">
        <ele>28</ele>
        <time>2021-09-11T15:23:35.708Z</time>
      </trkpt>
      <trkpt lat="50.46572" lon="3.56932">
        <ele>27.6</ele>
        <time>2021-09-11T15:23:37.203Z</time>
      </trkpt>
      <trkpt lat="50.46562" lon="3.56933">
        <ele>27.2</ele>
        <time>2021-09-11T15:23:38.703Z</time>
      </trkpt>
      <trkpt lat="50.46553" lon="3.56934">
        <ele>27</ele>
        <time>2021-09-11T15:23:40.328Z</time>
      </trkpt>
      <trkpt lat="50.46547" lon="3.56934">
        <ele>27</ele>
        <time>2021-09-11T15:23:42.537Z</time>
      </trkpt>
      <trkpt lat="50.46536" lon="3.56936">
        <ele>27</ele>
        <time>2021-09-11T15:23:46.614Z</time>
      </trkpt>
      <trkpt lat="50.4653" lon="3.56937">
        <ele>27</ele>
        <time>2021-09-11T15:23:48.836Z</time>
      </trkpt>
      <trkpt lat="50.46525" lon="3.56938">
        <ele>27</ele>
        <time>2021-09-11T15:23:50.691Z</time>
      </trkpt>
      <trkpt lat="50.46515" lon="3.56939">
        <ele>27</ele>
        <time>2021-09-11T15:23:54.380Z</time>
      </trkpt>
      <trkpt lat="50.46509" lon="3.56939">
        <ele>27</ele>
        <time>2021-09-11T15:23:56.589Z</time>
      </trkpt>
      <trkpt lat="50.46503" lon="3.5694">
        <ele>27</ele>
        <time>2021-09-11T15:23:58.811Z</time>
      </trkpt>
      <trkpt lat="50.46498" lon="3.56939">
        <ele>27</ele>
        <time>2021-09-11T15:24:00.666Z</time>
      </trkpt>
      <trkpt lat="50.46486" lon="3.56939">
        <ele>27</ele>
        <time>2021-09-11T15:24:05.084Z</time>
      </trkpt>
      <trkpt lat="50.4648" lon="3.56939">
        <ele>27</ele>
        <time>2021-09-11T15:24:07.293Z</time>
      </trkpt>
      <trkpt lat="50.46475" lon="3.5694">
        <ele>27</ele>
        <time>2021-09-11T15:24:09.149Z</time>
      </trkpt>
      <trkpt lat="50.46464" lon="3.56939">
        <ele>27</ele>
        <time>2021-09-11T15:24:13.206Z</time>
      </trkpt>
      <trkpt lat="50.46459" lon="3.56939">
        <ele>27</ele>
        <time>2021-09-11T15:24:15.046Z</time>
      </trkpt>
      <trkpt lat="50.46447" lon="3.56939">
        <ele>27</ele>
        <time>2021-09-11T15:24:19.464Z</time>
      </trkpt>
      <trkpt lat="50.46442" lon="3.5694">
        <ele>27</ele>
        <time>2021-09-11T15:24:21.320Z</time>
      </trkpt>
      <trkpt lat="50.46437" lon="3.56941">
        <ele>27</ele>
        <time>2021-09-11T15:24:23.176Z</time>
      </trkpt>
      <trkpt lat="50.46432" lon="3.56937">
        <ele>27</ele>
        <time>2021-09-11T15:24:25.241Z</time>
      </trkpt>
      <trkpt lat="50.46427" lon="3.56935">
        <ele>27</ele>
        <time>2021-09-11T15:24:27.141Z</time>
      </trkpt>
      <trkpt lat="50.46418" lon="3.56938">
        <ele>27</ele>
        <time>2021-09-11T15:24:30.528Z</time>
      </trkpt>
      <trkpt lat="50.46412" lon="3.56939">
        <ele>27</ele>
        <time>2021-09-11T15:24:32.750Z</time>
      </trkpt>
      <trkpt lat="50.46403" lon="3.56941">
        <ele>27</ele>
        <time>2021-09-11T15:24:36.096Z</time>
      </trkpt>
      <trkpt lat="50.46398" lon="3.56942">
        <ele>27</ele>
        <time>2021-09-11T15:24:37.952Z</time>
      </trkpt>
      <trkpt lat="50.4639" lon="3.56945">
        <ele>27</ele>
        <time>2021-09-11T15:24:40.980Z</time>
      </trkpt>
      <trkpt lat="50.46394" lon="3.56951">
        <ele>27</ele>
        <time>2021-09-11T15:24:43.016Z</time>
      </trkpt>
      <trkpt lat="50.46401" lon="3.5695">
        <ele>27</ele>
        <time>2021-09-11T15:24:45.604Z</time>
      </trkpt>
      <trkpt lat="50.46406" lon="3.56945">
        <ele>27</ele>
        <time>2021-09-11T15:24:47.786Z</time>
      </trkpt>
      <trkpt lat="50.46418" lon="3.5694">
        <ele>27</ele>
        <time>2021-09-11T15:24:52.357Z</time>
      </trkpt>
      <trkpt lat="50.46423" lon="3.56939">
        <ele>27</ele>
        <time>2021-09-11T15:24:54.212Z</time>
      </trkpt>
      <trkpt lat="50.46429" lon="3.56927">
        <ele>27</ele>
        <time>2021-09-11T15:24:57.788Z</time>
      </trkpt>
      <trkpt lat="50.46429" lon="3.56918">
        <ele>27</ele>
        <time>2021-09-11T15:24:59.898Z</time>
      </trkpt>
      <trkpt lat="50.4643" lon="3.56902">
        <ele>26.7</ele>
        <time>2021-09-11T15:25:01.601Z</time>
      </trkpt>
      <trkpt lat="50.46431" lon="3.56894">
        <ele>26.6</ele>
        <time>2021-09-11T15:25:02.568Z</time>
      </trkpt>
      <trkpt lat="50.46432" lon="3.56878">
        <ele>26.6</ele>
        <time>2021-09-11T15:25:06.336Z</time>
      </trkpt>
      <trkpt lat="50.46434" lon="3.56863">
        <ele>26.6</ele>
        <time>2021-09-11T15:25:09.928Z</time>
      </trkpt>
      <trkpt lat="50.46436" lon="3.56856">
        <ele>26.6</ele>
        <time>2021-09-11T15:25:11.726Z</time>
      </trkpt>
      <trkpt lat="50.46437" lon="3.56849">
        <ele>26.4</ele>
        <time>2021-09-11T15:25:12.385Z</time>
      </trkpt>
      <trkpt lat="50.46437" lon="3.56841">
        <ele>26.2</ele>
        <time>2021-09-11T15:25:13.152Z</time>
      </trkpt>
      <trkpt lat="50.46436" lon="3.56828">
        <ele>26.1</ele>
        <time>2021-09-11T15:25:14.851Z</time>
      </trkpt>
      <trkpt lat="50.4644" lon="3.56823">
        <ele>26.3</ele>
        <time>2021-09-11T15:25:17.784Z</time>
      </trkpt>
      <trkpt lat="50.46442" lon="3.56814">
        <ele>26.6</ele>
        <time>2021-09-11T15:25:21.676Z</time>
      </trkpt>
      <trkpt lat="50.46443" lon="3.56806">
        <ele>26.9</ele>
        <time>2021-09-11T15:25:25.197Z</time>
      </trkpt>
      <trkpt lat="50.46443" lon="3.56791">
        <ele>26.5</ele>
        <time>2021-09-11T15:25:26.600Z</time>
      </trkpt>
      <trkpt lat="50.46443" lon="3.56777">
        <ele>26</ele>
        <time>2021-09-11T15:25:27.756Z</time>
      </trkpt>
      <trkpt lat="50.46443" lon="3.56764">
        <ele>26</ele>
        <time>2021-09-11T15:25:30.803Z</time>
      </trkpt>
      <trkpt lat="50.46444" lon="3.56748">
        <ele>26</ele>
        <time>2021-09-11T15:25:34.571Z</time>
      </trkpt>
      <trkpt lat="50.46445" lon="3.56739">
        <ele>26</ele>
        <time>2021-09-11T15:25:36.712Z</time>
      </trkpt>
      <trkpt lat="50.46447" lon="3.56727">
        <ele>26.1</ele>
        <time>2021-09-11T15:25:40.001Z</time>
      </trkpt>
      <trkpt lat="50.46451" lon="3.56709">
        <ele>26.2</ele>
        <time>2021-09-11T15:25:44.833Z</time>
      </trkpt>
      <trkpt lat="50.46454" lon="3.56697">
        <ele>26.3</ele>
        <time>2021-09-11T15:25:48.234Z</time>
      </trkpt>
      <trkpt lat="50.4646" lon="3.56679">
        <ele>26.2</ele>
        <time>2021-09-11T15:25:51.024Z</time>
      </trkpt>
      <trkpt lat="50.46466" lon="3.56663">
        <ele>26</ele>
        <time>2021-09-11T15:25:53.289Z</time>
      </trkpt>
      <trkpt lat="50.46471" lon="3.56654">
        <ele>26</ele>
        <time>2021-09-11T15:25:56.089Z</time>
      </trkpt>
      <trkpt lat="50.46475" lon="3.56643">
        <ele>26.1</ele>
        <time>2021-09-11T15:25:59.438Z</time>
      </trkpt>
      <trkpt lat="50.46479" lon="3.56632">
        <ele>26.2</ele>
        <time>2021-09-11T15:26:02.787Z</time>
      </trkpt>
      <trkpt lat="50.46484" lon="3.56621">
        <ele>26.2</ele>
        <time>2021-09-11T15:26:05.955Z</time>
      </trkpt>
      <trkpt lat="50.46488" lon="3.5661">
        <ele>26</ele>
        <time>2021-09-11T15:26:07.365Z</time>
      </trkpt>
      <trkpt lat="50.46493" lon="3.56596">
        <ele>26</ele>
        <time>2021-09-11T15:26:11.127Z</time>
      </trkpt>
      <trkpt lat="50.46495" lon="3.5659">
        <ele>26</ele>
        <time>2021-09-11T15:26:12.714Z</time>
      </trkpt>
      <trkpt lat="50.46499" lon="3.56581">
        <ele>26</ele>
        <time>2021-09-11T15:26:15.287Z</time>
      </trkpt>
      <trkpt lat="50.46502" lon="3.56569">
        <ele>26</ele>
        <time>2021-09-11T15:26:18.308Z</time>
      </trkpt>
      <trkpt lat="50.46511" lon="3.56548">
        <ele>26</ele>
        <time>2021-09-11T15:26:24.241Z</time>
      </trkpt>
      <trkpt lat="50.46515" lon="3.56535">
        <ele>26</ele>
        <time>2021-09-11T15:26:27.625Z</time>
      </trkpt>
      <trkpt lat="50.46518" lon="3.56529">
        <ele>26</ele>
        <time>2021-09-11T15:26:29.413Z</time>
      </trkpt>
      <trkpt lat="50.46521" lon="3.56521">
        <ele>26</ele>
        <time>2021-09-11T15:26:31.589Z</time>
      </trkpt>
      <trkpt lat="50.46521" lon="3.56512">
        <ele>26</ele>
        <time>2021-09-11T15:26:33.698Z</time>
      </trkpt>
      <trkpt lat="50.46523" lon="3.56505">
        <ele>26</ele>
        <time>2021-09-11T15:26:35.496Z</time>
      </trkpt>
      <trkpt lat="50.46525" lon="3.56493">
        <ele>26</ele>
        <time>2021-09-11T15:26:38.403Z</time>
      </trkpt>
      <trkpt lat="50.46518" lon="3.56493">
        <ele>26</ele>
        <time>2021-09-11T15:26:40.980Z</time>
      </trkpt>
      <trkpt lat="50.46512" lon="3.56488">
        <ele>26</ele>
        <time>2021-09-11T15:26:43.481Z</time>
      </trkpt>
      <trkpt lat="50.46503" lon="3.56478">
        <ele>26</ele>
        <time>2021-09-11T15:26:47.539Z</time>
      </trkpt>
      <trkpt lat="50.46495" lon="3.56468">
        <ele>25.8</ele>
        <time>2021-09-11T15:26:49.437Z</time>
      </trkpt>
      <trkpt lat="50.46485" lon="3.56459">
        <ele>25.5</ele>
        <time>2021-09-11T15:26:51.425Z</time>
      </trkpt>
      <trkpt lat="50.46476" lon="3.56451">
        <ele>25.1</ele>
        <time>2021-09-11T15:26:52.991Z</time>
      </trkpt>
      <trkpt lat="50.46471" lon="3.56448">
        <ele>25</ele>
        <time>2021-09-11T15:26:53.995Z</time>
      </trkpt>
      <trkpt lat="50.46467" lon="3.56444">
        <ele>24.8</ele>
        <time>2021-09-11T15:26:54.690Z</time>
      </trkpt>
      <trkpt lat="50.46458" lon="3.56435">
        <ele>24.5</ele>
        <time>2021-09-11T15:26:56.489Z</time>
      </trkpt>
      <trkpt lat="50.46449" lon="3.56424">
        <ele>24.2</ele>
        <time>2021-09-11T15:26:58.450Z</time>
      </trkpt>
      <trkpt lat="50.46445" lon="3.56419">
        <ele>24</ele>
        <time>2021-09-11T15:26:59.221Z</time>
      </trkpt>
      <trkpt lat="50.46437" lon="3.56411">
        <ele>24</ele>
        <time>2021-09-11T15:27:02.712Z</time>
      </trkpt>
      <trkpt lat="50.46432" lon="3.56406">
        <ele>24</ele>
        <time>2021-09-11T15:27:04.895Z</time>
      </trkpt>
      <trkpt lat="50.46427" lon="3.56401">
        <ele>24</ele>
        <time>2021-09-11T15:27:07.077Z</time>
      </trkpt>
      <trkpt lat="50.4642" lon="3.56394">
        <ele>24</ele>
        <time>2021-09-11T15:27:10.132Z</time>
      </trkpt>
      <trkpt lat="50.46416" lon="3.5639">
        <ele>24</ele>
        <time>2021-09-11T15:27:11.877Z</time>
      </trkpt>
      <trkpt lat="50.46412" lon="3.56386">
        <ele>23.8</ele>
        <time>2021-09-11T15:27:12.572Z</time>
      </trkpt>
      <trkpt lat="50.46403" lon="3.56378">
        <ele>23.5</ele>
        <time>2021-09-11T15:27:14.299Z</time>
      </trkpt>
      <trkpt lat="50.46398" lon="3.56374">
        <ele>23.3</ele>
        <time>2021-09-11T15:27:15.175Z</time>
      </trkpt>
      <trkpt lat="50.4639" lon="3.56366">
        <ele>23</ele>
        <time>2021-09-11T15:27:16.716Z</time>
      </trkpt>
      <trkpt lat="50.46387" lon="3.5636">
        <ele>23</ele>
        <time>2021-09-11T15:27:18.504Z</time>
      </trkpt>
      <trkpt lat="50.46389" lon="3.56348">
        <ele>23</ele>
        <time>2021-09-11T15:27:21.411Z</time>
      </trkpt>
      <trkpt lat="50.46397" lon="3.56344">
        <ele>23.3</ele>
        <time>2021-09-11T15:27:26.006Z</time>
      </trkpt>
      <trkpt lat="50.46405" lon="3.56339">
        <ele>23.6</ele>
        <time>2021-09-11T15:27:30.662Z</time>
      </trkpt>
      <trkpt lat="50.46414" lon="3.5633">
        <ele>23.8</ele>
        <time>2021-09-11T15:27:35.404Z</time>
      </trkpt>
      <trkpt lat="50.46419" lon="3.56324">
        <ele>23.7</ele>
        <time>2021-09-11T15:27:36.625Z</time>
      </trkpt>
      <trkpt lat="50.46426" lon="3.5632">
        <ele>23.7</ele>
        <time>2021-09-11T15:27:39.367Z</time>
      </trkpt>
      <trkpt lat="50.46439" lon="3.56315">
        <ele>23.9</ele>
        <time>2021-09-11T15:27:45.076Z</time>
      </trkpt>
      <trkpt lat="50.46449" lon="3.5631">
        <ele>24.2</ele>
        <time>2021-09-11T15:27:50.310Z</time>
      </trkpt>
      <trkpt lat="50.46453" lon="3.56306">
        <ele>24.3</ele>
        <time>2021-09-11T15:27:52.474Z</time>
      </trkpt>
      <trkpt lat="50.46459" lon="3.56301">
        <ele>24.5</ele>
        <time>2021-09-11T15:27:55.898Z</time>
      </trkpt>
      <trkpt lat="50.46466" lon="3.56295">
        <ele>24.8</ele>
        <time>2021-09-11T15:28:00.377Z</time>
      </trkpt>
      <trkpt lat="50.46472" lon="3.5629">
        <ele>25</ele>
        <time>2021-09-11T15:28:03.801Z</time>
      </trkpt>
      <trkpt lat="50.46482" lon="3.5628">
        <ele>25</ele>
        <time>2021-09-11T15:28:08.166Z</time>
      </trkpt>
      <trkpt lat="50.46489" lon="3.56275">
        <ele>25</ele>
        <time>2021-09-11T15:28:10.997Z</time>
      </trkpt>
      <trkpt lat="50.46495" lon="3.5627">
        <ele>25</ele>
        <time>2021-09-11T15:28:13.497Z</time>
      </trkpt>
      <trkpt lat="50.46501" lon="3.56263">
        <ele>25</ele>
        <time>2021-09-11T15:28:16.249Z</time>
      </trkpt>
      <trkpt lat="50.46508" lon="3.56256">
        <ele>25.3</ele>
        <time>2021-09-11T15:28:20.816Z</time>
      </trkpt>
      <trkpt lat="50.46513" lon="3.56252">
        <ele>25.5</ele>
        <time>2021-09-11T15:28:23.883Z</time>
      </trkpt>
      <trkpt lat="50.46521" lon="3.56245">
        <ele>25.8</ele>
        <time>2021-09-11T15:28:28.700Z</time>
      </trkpt>
      <trkpt lat="50.46525" lon="3.56241">
        <ele>25.9</ele>
        <time>2021-09-11T15:28:30.864Z</time>
      </trkpt>
      <trkpt lat="50.4653" lon="3.56237">
        <ele>26</ele>
        <time>2021-09-11T15:28:33.333Z</time>
      </trkpt>
      <trkpt lat="50.46534" lon="3.56233">
        <ele>26</ele>
        <time>2021-09-11T15:28:35.078Z</time>
      </trkpt>
      <trkpt lat="50.46539" lon="3.56228">
        <ele>26</ele>
        <time>2021-09-11T15:28:37.261Z</time>
      </trkpt>
      <trkpt lat="50.46545" lon="3.56222">
        <ele>26</ele>
        <time>2021-09-11T15:28:39.879Z</time>
      </trkpt>
      <trkpt lat="50.46556" lon="3.56213">
        <ele>26</ele>
        <time>2021-09-11T15:28:44.445Z</time>
      </trkpt>
      <trkpt lat="50.46561" lon="3.56207">
        <ele>26</ele>
        <time>2021-09-11T15:28:46.762Z</time>
      </trkpt>
      <trkpt lat="50.46568" lon="3.56199">
        <ele>26</ele>
        <time>2021-09-11T15:28:49.949Z</time>
      </trkpt>
      <trkpt lat="50.46573" lon="3.56194">
        <ele>26</ele>
        <time>2021-09-11T15:28:52.131Z</time>
      </trkpt>
      <trkpt lat="50.46582" lon="3.56186">
        <ele>26</ele>
        <time>2021-09-11T15:28:55.938Z</time>
      </trkpt>
      <trkpt lat="50.46588" lon="3.56178">
        <ele>26</ele>
        <time>2021-09-11T15:28:58.835Z</time>
      </trkpt>
      <trkpt lat="50.46596" lon="3.5617">
        <ele>26</ele>
        <time>2021-09-11T15:29:02.326Z</time>
      </trkpt>
      <trkpt lat="50.46599" lon="3.56165">
        <ele>26</ele>
        <time>2021-09-11T15:29:03.937Z</time>
      </trkpt>
      <trkpt lat="50.46608" lon="3.56156">
        <ele>26</ele>
        <time>2021-09-11T15:29:07.864Z</time>
      </trkpt>
      <trkpt lat="50.46612" lon="3.5615">
        <ele>26</ele>
        <time>2021-09-11T15:29:09.901Z</time>
      </trkpt>
      <trkpt lat="50.46618" lon="3.56141">
        <ele>26</ele>
        <time>2021-09-11T15:29:12.955Z</time>
      </trkpt>
      <trkpt lat="50.46622" lon="3.56135">
        <ele>25.9</ele>
        <time>2021-09-11T15:29:14.000Z</time>
      </trkpt>
      <trkpt lat="50.46623" lon="3.56127">
        <ele>25.8</ele>
        <time>2021-09-11T15:29:14.966Z</time>
      </trkpt>
      <trkpt lat="50.46621" lon="3.56114">
        <ele>25.7</ele>
        <time>2021-09-11T15:29:16.707Z</time>
      </trkpt>
      <trkpt lat="50.46618" lon="3.56108">
        <ele>25.8</ele>
        <time>2021-09-11T15:29:18.911Z</time>
      </trkpt>
      <trkpt lat="50.46611" lon="3.56097">
        <ele>26</ele>
        <time>2021-09-11T15:29:23.383Z</time>
      </trkpt>
      <trkpt lat="50.46603" lon="3.56089">
        <ele>26</ele>
        <time>2021-09-11T15:29:26.875Z</time>
      </trkpt>
      <trkpt lat="50.466" lon="3.56084">
        <ele>26</ele>
        <time>2021-09-11T15:29:28.485Z</time>
      </trkpt>
      <trkpt lat="50.46595" lon="3.56076">
        <ele>25.7</ele>
        <time>2021-09-11T15:29:29.532Z</time>
      </trkpt>
      <trkpt lat="50.46588" lon="3.5607">
        <ele>25.5</ele>
        <time>2021-09-11T15:29:30.922Z</time>
      </trkpt>
      <trkpt lat="50.4658" lon="3.56055">
        <ele>25.1</ele>
        <time>2021-09-11T15:29:32.936Z</time>
      </trkpt>
      <trkpt lat="50.46574" lon="3.56045">
        <ele>25.2</ele>
        <time>2021-09-11T15:29:36.533Z</time>
      </trkpt>
      <trkpt lat="50.46565" lon="3.56029">
        <ele>25</ele>
        <time>2021-09-11T15:29:39.209Z</time>
      </trkpt>
      <trkpt lat="50.46559" lon="3.5602">
        <ele>25</ele>
        <time>2021-09-11T15:29:42.264Z</time>
      </trkpt>
      <trkpt lat="50.46553" lon="3.56009">
        <ele>25</ele>
        <time>2021-09-11T15:29:45.658Z</time>
      </trkpt>
      <trkpt lat="50.4655" lon="3.56003">
        <ele>25</ele>
        <time>2021-09-11T15:29:47.446Z</time>
      </trkpt>
      <trkpt lat="50.46545" lon="3.55993">
        <ele>25</ele>
        <time>2021-09-11T15:29:50.426Z</time>
      </trkpt>
      <trkpt lat="50.46541" lon="3.55987">
        <ele>25</ele>
        <time>2021-09-11T15:29:52.463Z</time>
      </trkpt>
      <trkpt lat="50.46534" lon="3.55975">
        <ele>25</ele>
        <time>2021-09-11T15:29:56.277Z</time>
      </trkpt>
      <trkpt lat="50.46528" lon="3.55966">
        <ele>25</ele>
        <time>2021-09-11T15:29:59.331Z</time>
      </trkpt>
      <trkpt lat="50.46519" lon="3.55959">
        <ele>24.8</ele>
        <time>2021-09-11T15:30:01.188Z</time>
      </trkpt>
      <trkpt lat="50.46514" lon="3.55955">
        <ele>24.7</ele>
        <time>2021-09-11T15:30:02.251Z</time>
      </trkpt>
      <trkpt lat="50.46506" lon="3.55946">
        <ele>24.3</ele>
        <time>2021-09-11T15:30:03.714Z</time>
      </trkpt>
      <trkpt lat="50.46502" lon="3.5594">
        <ele>24.1</ele>
        <time>2021-09-11T15:30:04.573Z</time>
      </trkpt>
      <trkpt lat="50.465" lon="3.55932">
        <ele>24</ele>
        <time>2021-09-11T15:30:05.604Z</time>
      </trkpt>
      <trkpt lat="50.46498" lon="3.55916">
        <ele>24</ele>
        <time>2021-09-11T15:30:09.425Z</time>
      </trkpt>
      <trkpt lat="50.46495" lon="3.55909">
        <ele>24</ele>
        <time>2021-09-11T15:30:11.403Z</time>
      </trkpt>
      <trkpt lat="50.46492" lon="3.55903">
        <ele>23.9</ele>
        <time>2021-09-11T15:30:12.293Z</time>
      </trkpt>
      <trkpt lat="50.46485" lon="3.55891">
        <ele>23.5</ele>
        <time>2021-09-11T15:30:13.864Z</time>
      </trkpt>
      <trkpt lat="50.46477" lon="3.55878">
        <ele>23.2</ele>
        <time>2021-09-11T15:30:15.849Z</time>
      </trkpt>
      <trkpt lat="50.46472" lon="3.55872">
        <ele>23</ele>
        <time>2021-09-11T15:30:16.869Z</time>
      </trkpt>
      <trkpt lat="50.46467" lon="3.55865">
        <ele>23</ele>
        <time>2021-09-11T15:30:19.335Z</time>
      </trkpt>
      <trkpt lat="50.4646" lon="3.55853">
        <ele>23</ele>
        <time>2021-09-11T15:30:23.150Z</time>
      </trkpt>
      <trkpt lat="50.46456" lon="3.55847">
        <ele>23</ele>
        <time>2021-09-11T15:30:25.186Z</time>
      </trkpt>
      <trkpt lat="50.46452" lon="3.55841">
        <ele>23</ele>
        <time>2021-09-11T15:30:27.222Z</time>
      </trkpt>
      <trkpt lat="50.46446" lon="3.5583">
        <ele>23</ele>
        <time>2021-09-11T15:30:30.617Z</time>
      </trkpt>
      <trkpt lat="50.4644" lon="3.55819">
        <ele>22.8</ele>
        <time>2021-09-11T15:30:32.287Z</time>
      </trkpt>
      <trkpt lat="50.46433" lon="3.55807">
        <ele>22.6</ele>
        <time>2021-09-11T15:30:34.216Z</time>
      </trkpt>
      <trkpt lat="50.46428" lon="3.55796">
        <ele>22.4</ele>
        <time>2021-09-11T15:30:35.747Z</time>
      </trkpt>
      <trkpt lat="50.46425" lon="3.5579">
        <ele>22.3</ele>
        <time>2021-09-11T15:30:36.637Z</time>
      </trkpt>
      <trkpt lat="50.46422" lon="3.55785">
        <ele>22.2</ele>
        <time>2021-09-11T15:30:37.419Z</time>
      </trkpt>
      <trkpt lat="50.46417" lon="3.55778">
        <ele>22</ele>
        <time>2021-09-11T15:30:38.527Z</time>
      </trkpt>
      <trkpt lat="50.46412" lon="3.55771">
        <ele>21.8</ele>
        <time>2021-09-11T15:30:39.636Z</time>
      </trkpt>
      <trkpt lat="50.46408" lon="3.55765">
        <ele>21.7</ele>
        <time>2021-09-11T15:30:40.681Z</time>
      </trkpt>
      <trkpt lat="50.46406" lon="3.55757">
        <ele>21.6</ele>
        <time>2021-09-11T15:30:41.712Z</time>
      </trkpt>
      <trkpt lat="50.46411" lon="3.55752">
        <ele>21.8</ele>
        <time>2021-09-11T15:30:44.870Z</time>
      </trkpt>
      <trkpt lat="50.46415" lon="3.55746">
        <ele>21.9</ele>
        <time>2021-09-11T15:30:47.311Z</time>
      </trkpt>
      <trkpt lat="50.4642" lon="3.55734">
        <ele>22</ele>
        <time>2021-09-11T15:30:51.047Z</time>
      </trkpt>
      <trkpt lat="50.46413" lon="3.55725">
        <ele>21.9</ele>
        <time>2021-09-11T15:30:52.913Z</time>
      </trkpt>
      <trkpt lat="50.46405" lon="3.55717">
        <ele>21.5</ele>
        <time>2021-09-11T15:30:54.303Z</time>
      </trkpt>
      <trkpt lat="50.46399" lon="3.55712">
        <ele>21.2</ele>
        <time>2021-09-11T15:30:55.280Z</time>
      </trkpt>
      <trkpt lat="50.46396" lon="3.55707">
        <ele>21.1</ele>
        <time>2021-09-11T15:30:56.062Z</time>
      </trkpt>
      <trkpt lat="50.4639" lon="3.557">
        <ele>21</ele>
        <time>2021-09-11T15:30:57.558Z</time>
      </trkpt>
      <trkpt lat="50.46382" lon="3.55691">
        <ele>20.7</ele>
        <time>2021-09-11T15:30:59.176Z</time>
      </trkpt>
      <trkpt lat="50.46378" lon="3.55687">
        <ele>20.5</ele>
        <time>2021-09-11T15:30:59.871Z</time>
      </trkpt>
      <trkpt lat="50.46374" lon="3.55682">
        <ele>20.2</ele>
        <time>2021-09-11T15:31:00.521Z</time>
      </trkpt>
      <trkpt lat="50.4637" lon="3.55678">
        <ele>19.9</ele>
        <time>2021-09-11T15:31:01.101Z</time>
      </trkpt>
      <trkpt lat="50.46361" lon="3.55668">
        <ele>19</ele>
        <time>2021-09-11T15:31:02.538Z</time>
      </trkpt>
      <trkpt lat="50.46357" lon="3.55663">
        <ele>18.9</ele>
        <time>2021-09-11T15:31:03.487Z</time>
      </trkpt>
      <trkpt lat="50.46352" lon="3.55658">
        <ele>18.7</ele>
        <time>2021-09-11T15:31:04.429Z</time>
      </trkpt>
      <trkpt lat="50.46345" lon="3.55649">
        <ele>18.4</ele>
        <time>2021-09-11T15:31:05.876Z</time>
      </trkpt>
      <trkpt lat="50.46348" lon="3.55638">
        <ele>18.5</ele>
        <time>2021-09-11T15:31:09.064Z</time>
      </trkpt>
      <trkpt lat="50.46354" lon="3.5563">
        <ele>18.4</ele>
        <time>2021-09-11T15:31:10.653Z</time>
      </trkpt>
      <trkpt lat="50.46358" lon="3.55623">
        <ele>18.3</ele>
        <time>2021-09-11T15:31:11.804Z</time>
      </trkpt>
      <trkpt lat="50.46361" lon="3.55617">
        <ele>18.2</ele>
        <time>2021-09-11T15:31:12.695Z</time>
      </trkpt>
      <trkpt lat="50.46366" lon="3.55604">
        <ele>18.2</ele>
        <time>2021-09-11T15:31:16.254Z</time>
      </trkpt>
      <trkpt lat="50.46372" lon="3.5559">
        <ele>18.4</ele>
        <time>2021-09-11T15:31:21.023Z</time>
      </trkpt>
      <trkpt lat="50.46386" lon="3.5556">
        <ele>18.1</ele>
        <time>2021-09-11T15:31:25.807Z</time>
      </trkpt>
      <trkpt lat="50.46396" lon="3.55538">
        <ele>18.3</ele>
        <time>2021-09-11T15:31:32.897Z</time>
      </trkpt>
      <trkpt lat="50.46406" lon="3.55518">
        <ele>18.6</ele>
        <time>2021-09-11T15:31:40.076Z</time>
      </trkpt>
      <trkpt lat="50.46415" lon="3.55488">
        <ele>18.9</ele>
        <time>2021-09-11T15:31:49.011Z</time>
      </trkpt>
      <trkpt lat="50.46427" lon="3.55453">
        <ele>19</ele>
        <time>2021-09-11T15:31:58.678Z</time>
      </trkpt>
      <trkpt lat="50.46433" lon="3.5543">
        <ele>18.8</ele>
        <time>2021-09-11T15:32:01.876Z</time>
      </trkpt>
      <trkpt lat="50.46437" lon="3.55426">
        <ele>18.8</ele>
        <time>2021-09-11T15:32:03.622Z</time>
      </trkpt>
      <trkpt lat="50.4644" lon="3.55414">
        <ele>18.8</ele>
        <time>2021-09-11T15:32:06.643Z</time>
      </trkpt>
      <trkpt lat="50.46443" lon="3.55405">
        <ele>18.9</ele>
        <time>2021-09-11T15:32:09.417Z</time>
      </trkpt>
      <trkpt lat="50.46436" lon="3.5539">
        <ele>18.7</ele>
        <time>2021-09-11T15:32:11.686Z</time>
      </trkpt>
      <trkpt lat="50.46431" lon="3.55387">
        <ele>18.5</ele>
        <time>2021-09-11T15:32:12.507Z</time>
      </trkpt>
      <trkpt lat="50.46427" lon="3.55383">
        <ele>18.5</ele>
        <time>2021-09-11T15:32:14.253Z</time>
      </trkpt>
      <trkpt lat="50.46418" lon="3.55378">
        <ele>18.4</ele>
        <time>2021-09-11T15:32:16.238Z</time>
      </trkpt>
      <trkpt lat="50.46413" lon="3.55376">
        <ele>18.4</ele>
        <time>2021-09-11T15:32:18.137Z</time>
      </trkpt>
      <trkpt lat="50.46402" lon="3.55369">
        <ele>18.3</ele>
        <time>2021-09-11T15:32:20.673Z</time>
      </trkpt>
      <trkpt lat="50.4639" lon="3.55361">
        <ele>18</ele>
        <time>2021-09-11T15:32:22.998Z</time>
      </trkpt>
      <trkpt lat="50.46384" lon="3.55357">
        <ele>17.8</ele>
        <time>2021-09-11T15:32:24.068Z</time>
      </trkpt>
      <trkpt lat="50.46377" lon="3.55353">
        <ele>17.6</ele>
        <time>2021-09-11T15:32:25.341Z</time>
      </trkpt>
      <trkpt lat="50.46371" lon="3.5535">
        <ele>17.4</ele>
        <time>2021-09-11T15:32:26.363Z</time>
      </trkpt>
      <trkpt lat="50.46358" lon="3.55344">
        <ele>16.9</ele>
        <time>2021-09-11T15:32:28.452Z</time>
      </trkpt>
      <trkpt lat="50.46346" lon="3.55338">
        <ele>16.5</ele>
        <time>2021-09-11T15:32:30.495Z</time>
      </trkpt>
      <trkpt lat="50.4634" lon="3.55334">
        <ele>16.2</ele>
        <time>2021-09-11T15:32:31.417Z</time>
      </trkpt>
      <trkpt lat="50.46335" lon="3.55331">
        <ele>16.1</ele>
        <time>2021-09-11T15:32:32.421Z</time>
      </trkpt>
      <trkpt lat="50.46326" lon="3.55321">
        <ele>16.4</ele>
        <time>2021-09-11T15:32:37.828Z</time>
      </trkpt>
      <trkpt lat="50.46321" lon="3.55316">
        <ele>16.6</ele>
        <time>2021-09-11T15:32:40.986Z</time>
      </trkpt>
      <trkpt lat="50.46312" lon="3.55309">
        <ele>16.9</ele>
        <time>2021-09-11T15:32:46.076Z</time>
      </trkpt>
      <trkpt lat="50.46308" lon="3.55306">
        <ele>17</ele>
        <time>2021-09-11T15:32:48.133Z</time>
      </trkpt>
      <trkpt lat="50.46304" lon="3.55302">
        <ele>17</ele>
        <time>2021-09-11T15:32:49.879Z</time>
      </trkpt>
      <trkpt lat="50.46298" lon="3.55297">
        <ele>17</ele>
        <time>2021-09-11T15:32:52.379Z</time>
      </trkpt>
      <trkpt lat="50.46291" lon="3.55292">
        <ele>17</ele>
        <time>2021-09-11T15:32:55.210Z</time>
      </trkpt>
      <trkpt lat="50.46286" lon="3.55288">
        <ele>17</ele>
        <time>2021-09-11T15:32:57.276Z</time>
      </trkpt>
      <trkpt lat="50.46281" lon="3.55283">
        <ele>17</ele>
        <time>2021-09-11T15:32:59.458Z</time>
      </trkpt>
      <trkpt lat="50.46276" lon="3.55281">
        <ele>17</ele>
        <time>2021-09-11T15:33:01.358Z</time>
      </trkpt>
      <trkpt lat="50.46271" lon="3.55278">
        <ele>17</ele>
        <time>2021-09-11T15:33:03.328Z</time>
      </trkpt>
      <trkpt lat="50.46266" lon="3.55273">
        <ele>17</ele>
        <time>2021-09-11T15:33:05.510Z</time>
      </trkpt>
      <trkpt lat="50.46261" lon="3.55266">
        <ele>17</ele>
        <time>2021-09-11T15:33:07.976Z</time>
      </trkpt>
      <trkpt lat="50.46257" lon="3.55263">
        <ele>17</ele>
        <time>2021-09-11T15:33:09.608Z</time>
      </trkpt>
      <trkpt lat="50.46251" lon="3.55265">
        <ele>17</ele>
        <time>2021-09-11T15:33:11.866Z</time>
      </trkpt>
      <trkpt lat="50.46246" lon="3.5526">
        <ele>16.9</ele>
        <time>2021-09-11T15:33:13.003Z</time>
      </trkpt>
      <trkpt lat="50.46242" lon="3.55256">
        <ele>16.7</ele>
        <time>2021-09-11T15:33:13.697Z</time>
      </trkpt>
      <trkpt lat="50.46232" lon="3.55247">
        <ele>16.3</ele>
        <time>2021-09-11T15:33:15.513Z</time>
      </trkpt>
      <trkpt lat="50.46224" lon="3.55239">
        <ele>16</ele>
        <time>2021-09-11T15:33:17.054Z</time>
      </trkpt>
      <trkpt lat="50.4622" lon="3.55235">
        <ele>16</ele>
        <time>2021-09-11T15:33:18.800Z</time>
      </trkpt>
      <trkpt lat="50.46214" lon="3.55231">
        <ele>15.9</ele>
        <time>2021-09-11T15:33:20.073Z</time>
      </trkpt>
      <trkpt lat="50.46206" lon="3.55226">
        <ele>15.9</ele>
        <time>2021-09-11T15:33:23.243Z</time>
      </trkpt>
      <trkpt lat="50.462" lon="3.5522">
        <ele>16</ele>
        <time>2021-09-11T15:33:26.248Z</time>
      </trkpt>
      <trkpt lat="50.46189" lon="3.5521">
        <ele>15.8</ele>
        <time>2021-09-11T15:33:28.719Z</time>
      </trkpt>
      <trkpt lat="50.46184" lon="3.55207">
        <ele>15.6</ele>
        <time>2021-09-11T15:33:29.540Z</time>
      </trkpt>
      <trkpt lat="50.46176" lon="3.552">
        <ele>15.3</ele>
        <time>2021-09-11T15:33:31.011Z</time>
      </trkpt>
      <trkpt lat="50.46169" lon="3.55195">
        <ele>15.1</ele>
        <time>2021-09-11T15:33:32.338Z</time>
      </trkpt>
      <trkpt lat="50.46164" lon="3.5519">
        <ele>15</ele>
        <time>2021-09-11T15:33:33.474Z</time>
      </trkpt>
      <trkpt lat="50.4616" lon="3.55187">
        <ele>15</ele>
        <time>2021-09-11T15:33:35.106Z</time>
      </trkpt>
      <trkpt lat="50.46156" lon="3.55183">
        <ele>15</ele>
        <time>2021-09-11T15:33:36.852Z</time>
      </trkpt>
      <trkpt lat="50.46151" lon="3.55179">
        <ele>15</ele>
        <time>2021-09-11T15:33:38.917Z</time>
      </trkpt>
      <trkpt lat="50.46146" lon="3.55175">
        <ele>15</ele>
        <time>2021-09-11T15:33:40.983Z</time>
      </trkpt>
      <trkpt lat="50.4614" lon="3.55167">
        <ele>15</ele>
        <time>2021-09-11T15:33:43.881Z</time>
      </trkpt>
      <trkpt lat="50.46133" lon="3.55159">
        <ele>15</ele>
        <time>2021-09-11T15:33:47.068Z</time>
      </trkpt>
      <trkpt lat="50.46127" lon="3.55153">
        <ele>15</ele>
        <time>2021-09-11T15:33:49.686Z</time>
      </trkpt>
      <trkpt lat="50.46117" lon="3.5514">
        <ele>15</ele>
        <time>2021-09-11T15:33:54.465Z</time>
      </trkpt>
      <trkpt lat="50.4611" lon="3.55132">
        <ele>15</ele>
        <time>2021-09-11T15:33:57.652Z</time>
      </trkpt>
      <trkpt lat="50.46106" lon="3.55127">
        <ele>15</ele>
        <time>2021-09-11T15:33:59.534Z</time>
      </trkpt>
      <trkpt lat="50.46102" lon="3.55122">
        <ele>15</ele>
        <time>2021-09-11T15:34:01.416Z</time>
      </trkpt>
      <trkpt lat="50.46099" lon="3.55118">
        <ele>15</ele>
        <time>2021-09-11T15:34:02.865Z</time>
      </trkpt>
      <trkpt lat="50.46094" lon="3.55112">
        <ele>15</ele>
        <time>2021-09-11T15:34:05.181Z</time>
      </trkpt>
      <trkpt lat="50.4609" lon="3.55108">
        <ele>15</ele>
        <time>2021-09-11T15:34:06.927Z</time>
      </trkpt>
      <trkpt lat="50.46083" lon="3.551">
        <ele>15</ele>
        <time>2021-09-11T15:34:10.114Z</time>
      </trkpt>
      <trkpt lat="50.46079" lon="3.55095">
        <ele>15</ele>
        <time>2021-09-11T15:34:11.996Z</time>
      </trkpt>
      <trkpt lat="50.46072" lon="3.55087">
        <ele>15</ele>
        <time>2021-09-11T15:34:15.183Z</time>
      </trkpt>
      <trkpt lat="50.46067" lon="3.55081">
        <ele>15</ele>
        <time>2021-09-11T15:34:17.500Z</time>
      </trkpt>
      <trkpt lat="50.4606" lon="3.5507">
        <ele>15</ele>
        <time>2021-09-11T15:34:21.145Z</time>
      </trkpt>
      <trkpt lat="50.46055" lon="3.55063">
        <ele>15</ele>
        <time>2021-09-11T15:34:23.611Z</time>
      </trkpt>
      <trkpt lat="50.46052" lon="3.55059">
        <ele>15</ele>
        <time>2021-09-11T15:34:25.060Z</time>
      </trkpt>
      <trkpt lat="50.46043" lon="3.55049">
        <ele>15.1</ele>
        <time>2021-09-11T15:34:29.486Z</time>
      </trkpt>
      <trkpt lat="50.46037" lon="3.55043">
        <ele>15.2</ele>
        <time>2021-09-11T15:34:32.492Z</time>
      </trkpt>
      <trkpt lat="50.46031" lon="3.55037">
        <ele>15.1</ele>
        <time>2021-09-11T15:34:33.904Z</time>
      </trkpt>
      <trkpt lat="50.46026" lon="3.55033">
        <ele>15</ele>
        <time>2021-09-11T15:34:34.967Z</time>
      </trkpt>
      <trkpt lat="50.46017" lon="3.55022">
        <ele>15.1</ele>
        <time>2021-09-11T15:34:39.532Z</time>
      </trkpt>
      <trkpt lat="50.46013" lon="3.55016">
        <ele>15.2</ele>
        <time>2021-09-11T15:34:41.973Z</time>
      </trkpt>
      <trkpt lat="50.4601" lon="3.5501">
        <ele>15.2</ele>
        <time>2021-09-11T15:34:43.761Z</time>
      </trkpt>
      <trkpt lat="50.46006" lon="3.55005">
        <ele>15.2</ele>
        <time>2021-09-11T15:34:45.643Z</time>
      </trkpt>
      <trkpt lat="50.46002" lon="3.54999">
        <ele>15.1</ele>
        <time>2021-09-11T15:34:46.688Z</time>
      </trkpt>
      <trkpt lat="50.45997" lon="3.54995">
        <ele>15</ele>
        <time>2021-09-11T15:34:47.751Z</time>
      </trkpt>
      <trkpt lat="50.45989" lon="3.54986">
        <ele>15</ele>
        <time>2021-09-11T15:34:51.374Z</time>
      </trkpt>
      <trkpt lat="50.45985" lon="3.54974">
        <ele>15</ele>
        <time>2021-09-11T15:34:54.549Z</time>
      </trkpt>
      <trkpt lat="50.45981" lon="3.5497">
        <ele>15</ele>
        <time>2021-09-11T15:34:56.294Z</time>
      </trkpt>
      <trkpt lat="50.45976" lon="3.54961">
        <ele>15</ele>
        <time>2021-09-11T15:34:59.094Z</time>
      </trkpt>
      <trkpt lat="50.45972" lon="3.54956">
        <ele>15</ele>
        <time>2021-09-11T15:35:00.976Z</time>
      </trkpt>
      <trkpt lat="50.45969" lon="3.54951">
        <ele>15</ele>
        <time>2021-09-11T15:35:02.586Z</time>
      </trkpt>
      <trkpt lat="50.45961" lon="3.5494">
        <ele>15</ele>
        <time>2021-09-11T15:35:06.501Z</time>
      </trkpt>
      <trkpt lat="50.45955" lon="3.54932">
        <ele>15</ele>
        <time>2021-09-11T15:35:09.398Z</time>
      </trkpt>
      <trkpt lat="50.45948" lon="3.54921">
        <ele>15</ele>
        <time>2021-09-11T15:35:13.044Z</time>
      </trkpt>
      <trkpt lat="50.45941" lon="3.54907">
        <ele>15</ele>
        <time>2021-09-11T15:35:17.216Z</time>
      </trkpt>
      <trkpt lat="50.45936" lon="3.54897">
        <ele>15</ele>
        <time>2021-09-11T15:35:20.196Z</time>
      </trkpt>
      <trkpt lat="50.45932" lon="3.54892">
        <ele>15</ele>
        <time>2021-09-11T15:35:22.078Z</time>
      </trkpt>
      <trkpt lat="50.45927" lon="3.54884">
        <ele>15.1</ele>
        <time>2021-09-11T15:35:25.093Z</time>
      </trkpt>
      <trkpt lat="50.45923" lon="3.54876">
        <ele>15.1</ele>
        <time>2021-09-11T15:35:27.477Z</time>
      </trkpt>
      <trkpt lat="50.4592" lon="3.54869">
        <ele>15.1</ele>
        <time>2021-09-11T15:35:29.455Z</time>
      </trkpt>
      <trkpt lat="50.45917" lon="3.54862">
        <ele>15</ele>
        <time>2021-09-11T15:35:30.463Z</time>
      </trkpt>
      <trkpt lat="50.45914" lon="3.54856">
        <ele>15.2</ele>
        <time>2021-09-11T15:35:33.334Z</time>
      </trkpt>
      <trkpt lat="50.45911" lon="3.54848">
        <ele>15.4</ele>
        <time>2021-09-11T15:35:36.488Z</time>
      </trkpt>
      <trkpt lat="50.45906" lon="3.54836">
        <ele>15.6</ele>
        <time>2021-09-11T15:35:40.693Z</time>
      </trkpt>
      <trkpt lat="50.45902" lon="3.54826">
        <ele>15.6</ele>
        <time>2021-09-11T15:35:43.461Z</time>
      </trkpt>
      <trkpt lat="50.45897" lon="3.54813">
        <ele>15.8</ele>
        <time>2021-09-11T15:35:47.853Z</time>
      </trkpt>
      <trkpt lat="50.45893" lon="3.54806">
        <ele>16</ele>
        <time>2021-09-11T15:35:51.030Z</time>
      </trkpt>
      <trkpt lat="50.45889" lon="3.54797">
        <ele>16</ele>
        <time>2021-09-11T15:35:53.602Z</time>
      </trkpt>
      <trkpt lat="50.45884" lon="3.54787">
        <ele>16</ele>
        <time>2021-09-11T15:35:56.583Z</time>
      </trkpt>
      <trkpt lat="50.4588" lon="3.54779">
        <ele>16</ele>
        <time>2021-09-11T15:35:58.967Z</time>
      </trkpt>
      <trkpt lat="50.45875" lon="3.54765">
        <ele>16.2</ele>
        <time>2021-09-11T15:36:03.551Z</time>
      </trkpt>
      <trkpt lat="50.45871" lon="3.54752">
        <ele>16.6</ele>
        <time>2021-09-11T15:36:09.178Z</time>
      </trkpt>
      <trkpt lat="50.45869" lon="3.54742">
        <ele>16.8</ele>
        <time>2021-09-11T15:36:12.565Z</time>
      </trkpt>
      <trkpt lat="50.45865" lon="3.54733">
        <ele>16.9</ele>
        <time>2021-09-11T15:36:15.525Z</time>
      </trkpt>
      <trkpt lat="50.45861" lon="3.54723">
        <ele>17</ele>
        <time>2021-09-11T15:36:18.678Z</time>
      </trkpt>
      <trkpt lat="50.45857" lon="3.54717">
        <ele>17</ele>
        <time>2021-09-11T15:36:20.714Z</time>
      </trkpt>
      <trkpt lat="50.45852" lon="3.54708">
        <ele>17</ele>
        <time>2021-09-11T15:36:23.514Z</time>
      </trkpt>
      <trkpt lat="50.4585" lon="3.54697">
        <ele>17</ele>
        <time>2021-09-11T15:36:26.195Z</time>
      </trkpt>
      <trkpt lat="50.45853" lon="3.54683">
        <ele>17</ele>
        <time>2021-09-11T15:36:29.657Z</time>
      </trkpt>
      <trkpt lat="50.45854" lon="3.54675">
        <ele>17</ele>
        <time>2021-09-11T15:36:31.568Z</time>
      </trkpt>
      <trkpt lat="50.45855" lon="3.54667">
        <ele>17</ele>
        <time>2021-09-11T15:36:33.479Z</time>
      </trkpt>
      <trkpt lat="50.45854" lon="3.54655">
        <ele>17</ele>
        <time>2021-09-11T15:36:36.316Z</time>
      </trkpt>
      <trkpt lat="50.45855" lon="3.54648">
        <ele>17</ele>
        <time>2021-09-11T15:36:37.997Z</time>
      </trkpt>
      <trkpt lat="50.45857" lon="3.54635">
        <ele>17</ele>
        <time>2021-09-11T15:36:41.132Z</time>
      </trkpt>
      <trkpt lat="50.45859" lon="3.54626">
        <ele>17</ele>
        <time>2021-09-11T15:36:43.366Z</time>
      </trkpt>
      <trkpt lat="50.45859" lon="3.54611">
        <ele>17</ele>
        <time>2021-09-11T15:36:46.882Z</time>
      </trkpt>
      <trkpt lat="50.45854" lon="3.54597">
        <ele>17</ele>
        <time>2021-09-11T15:36:50.644Z</time>
      </trkpt>
      <trkpt lat="50.4585" lon="3.54587">
        <ele>17</ele>
        <time>2021-09-11T15:36:53.412Z</time>
      </trkpt>
      <trkpt lat="50.4585" lon="3.54576">
        <ele>17</ele>
        <time>2021-09-11T15:36:55.991Z</time>
      </trkpt>
      <trkpt lat="50.45853" lon="3.54565">
        <ele>17</ele>
        <time>2021-09-11T15:36:58.796Z</time>
      </trkpt>
      <trkpt lat="50.45856" lon="3.54553">
        <ele>17</ele>
        <time>2021-09-11T15:37:01.817Z</time>
      </trkpt>
      <trkpt lat="50.45859" lon="3.54544">
        <ele>17</ele>
        <time>2021-09-11T15:37:04.198Z</time>
      </trkpt>
      <trkpt lat="50.45862" lon="3.54536">
        <ele>17</ele>
        <time>2021-09-11T15:37:06.375Z</time>
      </trkpt>
      <trkpt lat="50.45865" lon="3.54524">
        <ele>17</ele>
        <time>2021-09-11T15:37:09.396Z</time>
      </trkpt>
      <trkpt lat="50.45867" lon="3.54517">
        <ele>17</ele>
        <time>2021-09-11T15:37:11.195Z</time>
      </trkpt>
      <trkpt lat="50.45868" lon="3.54509">
        <ele>17</ele>
        <time>2021-09-11T15:37:13.106Z</time>
      </trkpt>
      <trkpt lat="50.4587" lon="3.54501">
        <ele>17</ele>
        <time>2021-09-11T15:37:15.120Z</time>
      </trkpt>
      <trkpt lat="50.45874" lon="3.54489">
        <ele>17</ele>
        <time>2021-09-11T15:37:18.295Z</time>
      </trkpt>
      <trkpt lat="50.45877" lon="3.54481">
        <ele>17</ele>
        <time>2021-09-11T15:37:20.471Z</time>
      </trkpt>
      <trkpt lat="50.45881" lon="3.54465">
        <ele>17</ele>
        <time>2021-09-11T15:37:24.500Z</time>
      </trkpt>
      <trkpt lat="50.45883" lon="3.54458">
        <ele>17</ele>
        <time>2021-09-11T15:37:26.298Z</time>
      </trkpt>
      <trkpt lat="50.45887" lon="3.54446">
        <ele>17</ele>
        <time>2021-09-11T15:37:29.473Z</time>
      </trkpt>
      <trkpt lat="50.45889" lon="3.54439">
        <ele>17</ele>
        <time>2021-09-11T15:37:31.272Z</time>
      </trkpt>
      <trkpt lat="50.45891" lon="3.54429">
        <ele>17</ele>
        <time>2021-09-11T15:37:33.728Z</time>
      </trkpt>
      <trkpt lat="50.45893" lon="3.54421">
        <ele>17</ele>
        <time>2021-09-11T15:37:35.743Z</time>
      </trkpt>
      <trkpt lat="50.45896" lon="3.54405">
        <ele>17</ele>
        <time>2021-09-11T15:37:39.652Z</time>
      </trkpt>
      <trkpt lat="50.45899" lon="3.54389">
        <ele>17</ele>
        <time>2021-09-11T15:37:43.562Z</time>
      </trkpt>
      <trkpt lat="50.45901" lon="3.54381">
        <ele>17</ele>
        <time>2021-09-11T15:37:45.576Z</time>
      </trkpt>
      <trkpt lat="50.45904" lon="3.54369">
        <ele>17</ele>
        <time>2021-09-11T15:37:48.598Z</time>
      </trkpt>
      <trkpt lat="50.45907" lon="3.54355">
        <ele>17</ele>
        <time>2021-09-11T15:37:52.060Z</time>
      </trkpt>
      <trkpt lat="50.45909" lon="3.54345">
        <ele>17</ele>
        <time>2021-09-11T15:37:54.517Z</time>
      </trkpt>
      <trkpt lat="50.45911" lon="3.54337">
        <ele>17</ele>
        <time>2021-09-11T15:37:56.531Z</time>
      </trkpt>
      <trkpt lat="50.45915" lon="3.54326">
        <ele>17</ele>
        <time>2021-09-11T15:37:59.500Z</time>
      </trkpt>
      <trkpt lat="50.45918" lon="3.54312">
        <ele>17</ele>
        <time>2021-09-11T15:38:02.963Z</time>
      </trkpt>
      <trkpt lat="50.45921" lon="3.54304">
        <ele>17</ele>
        <time>2021-09-11T15:38:05.139Z</time>
      </trkpt>
      <trkpt lat="50.45923" lon="3.54297">
        <ele>17</ele>
        <time>2021-09-11T15:38:06.937Z</time>
      </trkpt>
      <trkpt lat="50.45926" lon="3.5429">
        <ele>17</ele>
        <time>2021-09-11T15:38:08.915Z</time>
      </trkpt>
      <trkpt lat="50.45929" lon="3.54281">
        <ele>17</ele>
        <time>2021-09-11T15:38:11.296Z</time>
      </trkpt>
      <trkpt lat="50.45931" lon="3.54275">
        <ele>17</ele>
        <time>2021-09-11T15:38:12.884Z</time>
      </trkpt>
      <trkpt lat="50.45934" lon="3.54269">
        <ele>17</ele>
        <time>2021-09-11T15:38:14.672Z</time>
      </trkpt>
      <trkpt lat="50.45938" lon="3.54257">
        <ele>17</ele>
        <time>2021-09-11T15:38:17.847Z</time>
      </trkpt>
      <trkpt lat="50.45943" lon="3.54247">
        <ele>17</ele>
        <time>2021-09-11T15:38:20.827Z</time>
      </trkpt>
      <trkpt lat="50.45947" lon="3.54235">
        <ele>17</ele>
        <time>2021-09-11T15:38:24.002Z</time>
      </trkpt>
      <trkpt lat="50.45951" lon="3.54227">
        <ele>17</ele>
        <time>2021-09-11T15:38:26.386Z</time>
      </trkpt>
      <trkpt lat="50.45955" lon="3.54218">
        <ele>17</ele>
        <time>2021-09-11T15:38:28.958Z</time>
      </trkpt>
      <trkpt lat="50.45961" lon="3.54207">
        <ele>17</ele>
        <time>2021-09-11T15:38:32.354Z</time>
      </trkpt>
      <trkpt lat="50.45964" lon="3.54201">
        <ele>17</ele>
        <time>2021-09-11T15:38:34.142Z</time>
      </trkpt>
      <trkpt lat="50.45967" lon="3.54194">
        <ele>17</ele>
        <time>2021-09-11T15:38:36.119Z</time>
      </trkpt>
      <trkpt lat="50.45972" lon="3.54184">
        <ele>17</ele>
        <time>2021-09-11T15:38:39.100Z</time>
      </trkpt>
      <trkpt lat="50.45978" lon="3.54172">
        <ele>17</ele>
        <time>2021-09-11T15:38:42.676Z</time>
      </trkpt>
      <trkpt lat="50.45981" lon="3.54165">
        <ele>17</ele>
        <time>2021-09-11T15:38:44.654Z</time>
      </trkpt>
      <trkpt lat="50.45985" lon="3.54156">
        <ele>17</ele>
        <time>2021-09-11T15:38:47.226Z</time>
      </trkpt>
      <trkpt lat="50.45989" lon="3.54147">
        <ele>17</ele>
        <time>2021-09-11T15:38:49.799Z</time>
      </trkpt>
      <trkpt lat="50.45994" lon="3.54136">
        <ele>17.1</ele>
        <time>2021-09-11T15:38:53.344Z</time>
      </trkpt>
      <trkpt lat="50.45998" lon="3.54129">
        <ele>17.4</ele>
        <time>2021-09-11T15:38:57.202Z</time>
      </trkpt>
      <trkpt lat="50.46003" lon="3.5412">
        <ele>17.6</ele>
        <time>2021-09-11T15:39:00.890Z</time>
      </trkpt>
      <trkpt lat="50.46006" lon="3.54112">
        <ele>17.8</ele>
        <time>2021-09-11T15:39:04.044Z</time>
      </trkpt>
      <trkpt lat="50.46009" lon="3.54105">
        <ele>17.7</ele>
        <time>2021-09-11T15:39:05.052Z</time>
      </trkpt>
      <trkpt lat="50.46011" lon="3.541">
        <ele>17.8</ele>
        <time>2021-09-11T15:39:06.882Z</time>
      </trkpt>
      <trkpt lat="50.46018" lon="3.54087">
        <ele>17.9</ele>
        <time>2021-09-11T15:39:11.241Z</time>
      </trkpt>
      <trkpt lat="50.46095" lon="3.53935">
        <ele>17.6</ele>
        <time>2021-09-11T15:39:55.137Z</time>
      </trkpt>
      <trkpt lat="50.46086" lon="3.5392">
        <ele>17.9</ele>
        <time>2021-09-11T15:40:01.248Z</time>
      </trkpt>
      <trkpt lat="50.4604" lon="3.53876">
        <ele>18</ele>
        <time>2021-09-11T15:40:21.419Z</time>
      </trkpt>
      <trkpt lat="50.4603" lon="3.53861">
        <ele>18</ele>
        <time>2021-09-11T15:40:26.510Z</time>
      </trkpt>
      <trkpt lat="50.46081" lon="3.53783">
        <ele>17</ele>
        <time>2021-09-11T15:40:40.641Z</time>
      </trkpt>
      <trkpt lat="50.46177" lon="3.53657">
        <ele>17</ele>
        <time>2021-09-11T15:41:26.699Z</time>
      </trkpt>
      <trkpt lat="50.46237" lon="3.53577">
        <ele>16</ele>
        <time>2021-09-11T15:41:42.592Z</time>
      </trkpt>
      <trkpt lat="50.46306" lon="3.53479">
        <ele>16.8</ele>
        <time>2021-09-11T15:42:19.767Z</time>
      </trkpt>
      <trkpt lat="50.46318" lon="3.53462">
        <ele>17</ele>
        <time>2021-09-11T15:42:26.477Z</time>
      </trkpt>
      <trkpt lat="50.46346" lon="3.53397">
        <ele>17</ele>
        <time>2021-09-11T15:42:44.871Z</time>
      </trkpt>
      <trkpt lat="50.46424" lon="3.53242">
        <ele>17.8</ele>
        <time>2021-09-11T15:43:34.041Z</time>
      </trkpt>
      <trkpt lat="50.46518" lon="3.53053">
        <ele>17.6</ele>
        <time>2021-09-11T15:44:29.145Z</time>
      </trkpt>
      <trkpt lat="50.46629" lon="3.52834">
        <ele>17.7</ele>
        <time>2021-09-11T15:45:35.089Z</time>
      </trkpt>
      <trkpt lat="50.46852" lon="3.52447">
        <ele>16.9</ele>
        <time>2021-09-11T15:47:33.070Z</time>
      </trkpt>
      <trkpt lat="50.46893" lon="3.5237">
        <ele>17</ele>
        <time>2021-09-11T15:47:56.937Z</time>
      </trkpt>
      <trkpt lat="50.46906" lon="3.52308">
        <ele>17</ele>
        <time>2021-09-11T15:48:12.234Z</time>
      </trkpt>
      <trkpt lat="50.46928" lon="3.52266">
        <ele>17.2</ele>
        <time>2021-09-11T15:48:25.692Z</time>
      </trkpt>
      <trkpt lat="50.46944" lon="3.52264">
        <ele>17.5</ele>
        <time>2021-09-11T15:48:32.822Z</time>
      </trkpt>
      <trkpt lat="50.46979" lon="3.52285">
        <ele>18.6</ele>
        <time>2021-09-11T15:48:51.689Z</time>
      </trkpt>
      <trkpt lat="50.46986" lon="3.5227">
        <ele>18.9</ele>
        <time>2021-09-11T15:48:57.365Z</time>
      </trkpt>
      <trkpt lat="50.46863" lon="3.52137">
        <ele>19.8</ele>
        <time>2021-09-11T15:49:55.550Z</time>
      </trkpt>
      <trkpt lat="50.46721" lon="3.52022">
        <ele>17</ele>
        <time>2021-09-11T15:50:25.935Z</time>
      </trkpt>
      <trkpt lat="50.46595" lon="3.51934">
        <ele>17</ele>
        <time>2021-09-11T15:51:16.701Z</time>
      </trkpt>
      <trkpt lat="50.46498" lon="3.51809">
        <ele>17.6</ele>
        <time>2021-09-11T15:52:05.006Z</time>
      </trkpt>
      <trkpt lat="50.46436" lon="3.51726">
        <ele>16.6</ele>
        <time>2021-09-11T15:52:21.548Z</time>
      </trkpt>
      <trkpt lat="50.46373" lon="3.51656">
        <ele>18</ele>
        <time>2021-09-11T15:52:55.620Z</time>
      </trkpt>
      <trkpt lat="50.46353" lon="3.51642">
        <ele>18.3</ele>
        <time>2021-09-11T15:53:04.838Z</time>
      </trkpt>
      <trkpt lat="50.46274" lon="3.51837">
        <ele>18</ele>
        <time>2021-09-11T15:53:57.368Z</time>
      </trkpt>
      <trkpt lat="50.46245" lon="3.51948">
        <ele>17.9</ele>
        <time>2021-09-11T15:54:24.935Z</time>
      </trkpt>
      <trkpt lat="50.4621" lon="3.52046">
        <ele>17.6</ele>
        <time>2021-09-11T15:54:49.681Z</time>
      </trkpt>
      <trkpt lat="50.46142" lon="3.52176">
        <ele>18.6</ele>
        <time>2021-09-11T15:55:32.803Z</time>
      </trkpt>
      <trkpt lat="50.461" lon="3.52271">
        <ele>18.1</ele>
        <time>2021-09-11T15:55:57.356Z</time>
      </trkpt>
      <trkpt lat="50.46085" lon="3.5234">
        <ele>17.9</ele>
        <time>2021-09-11T15:56:13.387Z</time>
      </trkpt>
      <trkpt lat="50.46048" lon="3.52579">
        <ele>17.3</ele>
        <time>2021-09-11T15:57:07.838Z</time>
      </trkpt>
      <trkpt lat="50.46031" lon="3.5267">
        <ele>17.9</ele>
        <time>2021-09-11T15:57:32.292Z</time>
      </trkpt>
      <trkpt lat="50.46004" lon="3.5275">
        <ele>17.9</ele>
        <time>2021-09-11T15:57:53.514Z</time>
      </trkpt>
      <trkpt lat="50.45991" lon="3.52773">
        <ele>17.4</ele>
        <time>2021-09-11T15:57:56.910Z</time>
      </trkpt>
      <trkpt lat="50.45835" lon="3.52637">
        <ele>21.1</ele>
        <time>2021-09-11T15:59:17.999Z</time>
      </trkpt>
      <trkpt lat="50.45749" lon="3.52559">
        <ele>23</ele>
        <time>2021-09-11T16:00:02.330Z</time>
      </trkpt>
      <trkpt lat="50.45709" lon="3.52513">
        <ele>23.5</ele>
        <time>2021-09-11T16:00:22.439Z</time>
      </trkpt>
      <trkpt lat="50.45668" lon="3.52447">
        <ele>24</ele>
        <time>2021-09-11T16:00:45.882Z</time>
      </trkpt>
      <trkpt lat="50.45654" lon="3.52445">
        <ele>24</ele>
        <time>2021-09-11T16:00:51.058Z</time>
      </trkpt>
      <trkpt lat="50.45653" lon="3.52538">
        <ele>22.6</ele>
        <time>2021-09-11T16:01:01.546Z</time>
      </trkpt>
      <trkpt lat="50.45298" lon="3.52212">
        <ele>20</ele>
        <time>2021-09-11T16:03:19.573Z</time>
      </trkpt>
      <trkpt lat="50.45243" lon="3.52288">
        <ele>19</ele>
        <time>2021-09-11T16:03:34.190Z</time>
      </trkpt>
      <trkpt lat="50.45138" lon="3.52433">
        <ele>21</ele>
        <time>2021-09-11T16:04:33.427Z</time>
      </trkpt>
      <trkpt lat="50.45122" lon="3.52459">
        <ele>22.1</ele>
        <time>2021-09-11T16:04:48.036Z</time>
      </trkpt>
      <trkpt lat="50.45107" lon="3.52485">
        <ele>23.6</ele>
        <time>2021-09-11T16:05:04.237Z</time>
      </trkpt>
      <trkpt lat="50.4509" lon="3.52518">
        <ele>24.6</ele>
        <time>2021-09-11T16:05:19.289Z</time>
      </trkpt>
      <trkpt lat="50.45069" lon="3.52556">
        <ele>26.5</ele>
        <time>2021-09-11T16:05:41.253Z</time>
      </trkpt>
      <trkpt lat="50.45057" lon="3.52573">
        <ele>27</ele>
        <time>2021-09-11T16:05:49.555Z</time>
      </trkpt>
      <trkpt lat="50.45052" lon="3.52579">
        <ele>27.1</ele>
        <time>2021-09-11T16:05:52.267Z</time>
      </trkpt>
      <trkpt lat="50.45036" lon="3.52591">
        <ele>27.8</ele>
        <time>2021-09-11T16:06:02.492Z</time>
      </trkpt>
      <trkpt lat="50.45015" lon="3.52607">
        <ele>28.4</ele>
        <time>2021-09-11T16:06:13.732Z</time>
      </trkpt>
      <trkpt lat="50.45008" lon="3.52612">
        <ele>28.7</ele>
        <time>2021-09-11T16:06:18.138Z</time>
      </trkpt>
      <trkpt lat="50.45003" lon="3.52616">
        <ele>28.9</ele>
        <time>2021-09-11T16:06:21.205Z</time>
      </trkpt>
    </trkseg>
  </trk>
</gpx>